[[{"header":{"parameterUnit":"m.s-1","parameterCategory":1,"la1":30.6,"la2":29.2853,"lo1":-89.7004,"lo2":-87.6739,"dy":0.0162,"dx":0.0183,"nx":112,"ny":82,"refTime":"2024-07-31T06:00:00:Z","depth":0,"parameterNumber":2,"parameterNumberName":"U-component_of_WINDS"},"data":[0.0,0.0,0.0,0.0,0.0,0.0,0.0,0.0,0.0,0.0,0.0,0.0,0.0,0.0,0.0,0.0,0.0,0.0,0.0,0.0,0.0,0.0,0.0,0.0,0.0,0.0,0.0,0.0,0.0,0.0,0.0,0.0,0.0,0.0,0.0,0.0,0.0,0.0,0.0,0.0,0.0,0.0,0.0,0.0,0.0,0.0,0.0,0.0,0.0,0.0,0.0,0.0,0.0,0.0,0.0,0.0,0.0,0.0,0.0,0.0,0.0,0.0,0.0,0.0,0.0,0.0,0.0,0.0,0.0,0.0,0.0,0.0,0.0,0.0,0.0,0.0,0.0,0.0,0.0,0.0,0.0,0.0,0.0,0.0,0.0,0.0,0.0,0.0,0.0,0.0,0.0,-2.2833,-2.5785,-2.7529,-2.762,-2.6974,-2.5371,-2.2571,0.0,0.0,0.0,0.0,0.0,0.0,0.0,0.0,0.0,0.0,0.0,0.0,0.0,0.0,0.0,0.0,0.0,0.0,0.0,0.0,0.0,0.0,0.0,0.0,0.0,0.0,0.0,0.0,0.0,0.0,0.0,0.0,0.0,0.0,0.0,0.0,0.0,0.0,0.0,0.0,0.0,0.0,0.0,0.0,0.0,0.0,0.0,0.0,0.0,0.0,0.0,0.0,0.0,0.0,0.0,0.0,0.0,0.0,0.0,0.0,0.0,0.0,0.0,0.0,0.0,0.0,0.0,0.0,0.0,0.0,0.0,0.0,0.0,0.0,0.0,0.0,0.0,0.0,0.0,0.0,0.0,0.0,0.0,0.0,0.0,0.0,0.0,0.0,0.0,0.0,0.0,0.0,0.0,0.0,0.0,0.0,0.0,0.0,0.0,0.0,0.0,0.0,0.0,0.0,-2.0832,-2.6145,-2.7177,-2.7699,-2.8203,-2.6831,-2.4905,-2.2557,0.0,0.0,0.0,0.0,0.0,0.0,0.0,0.0,0.0,0.0,0.0,0.0,0.0,0.0,0.0,0.0,0.0,0.0,0.0,0.0,0.0,0.0,0.0,0.0,0.0,0.0,0.0,0.0,0.0,0.0,0.0,0.0,0.0,0.0,0.0,0.0,0.0,0.0,0.0,0.0,0.0,0.0,0.0,0.0,0.0,0.0,0.0,0.0,0.0,0.0,0.0,0.0,0.0,0.0,0.0,0.0,0.0,0.0,0.0,0.0,0.0,0.0,0.0,0.0,0.0,0.0,0.0,0.0,0.0,0.0,0.0,0.0,0.0,0.0,0.0,0.0,0.0,0.0,0.0,0.0,0.0,0.0,0.0,0.0,0.0,0.0,0.0,0.0,0.0,0.0,0.0,0.0,0.0,0.0,0.0,0.0,0.0,0.0,0.0,0.0,0.0,0.0,0.0,-1.9773,-2.2427,-2.6621,-2.734,-2.7594,-2.7902,-2.6602,-2.4844,-2.2531,-1.9358,0.0,0.0,0.0,0.0,0.0,0.0,0.0,0.0,0.0,0.0,0.0,0.0,0.0,0.0,0.0,0.0,0.0,0.0,0.0,0.0,0.0,0.0,0.0,0.0,0.0,0.0,0.0,0.0,0.0,0.0,0.0,0.0,0.0,0.0,0.0,0.0,0.0,0.0,0.0,0.0,0.0,0.0,0.0,0.0,0.0,0.0,0.0,0.0,0.0,0.0,0.0,0.0,0.0,0.0,0.0,0.0,0.0,0.0,0.0,0.0,0.0,0.0,0.0,0.0,0.0,0.0,0.0,0.0,0.0,0.0,0.0,0.0,0.0,0.0,0.0,0.0,0.0,0.0,0.0,0.0,0.0,0.0,0.0,0.0,0.0,0.0,0.0,0.0,0.0,0.0,0.0,0.0,0.0,0.0,0.0,0.0,0.0,0.0,0.0,0.0,0.0,0.0,-2.2165,-2.3854,-2.6582,-2.7262,-2.749,-2.749,-2.6067,-2.4334,-2.231,-1.8617,0.0,0.0,0.0,0.0,0.0,0.0,0.0,0.0,0.0,0.0,0.0,0.0,0.0,0.0,0.0,0.0,0.0,0.0,0.0,0.0,0.0,0.0,0.0,0.0,0.0,0.0,0.0,0.0,0.0,0.0,0.0,0.0,0.0,0.0,0.0,0.0,0.0,0.0,0.0,0.0,0.0,0.0,0.0,0.0,0.0,0.0,0.0,0.0,0.0,0.0,0.0,0.0,0.0,0.0,0.0,0.0,0.0,0.0,0.0,0.0,0.0,0.0,0.0,0.0,0.0,0.0,0.0,0.0,0.0,0.0,0.0,0.0,0.0,0.0,0.0,0.0,0.0,0.0,0.0,0.0,0.0,0.0,0.0,0.0,0.0,0.0,0.0,0.0,0.0,0.0,0.0,0.0,0.0,0.0,0.0,0.0,0.0,0.0,0.0,0.0,0.0,0.0,-2.2635,-2.4883,-2.719,-2.7477,-2.749,-2.749,-2.4958,-2.2843,-2.1642,-1.724,0.0,0.0,0.0,0.0,0.0,0.0,0.0,0.0,0.0,0.0,0.0,0.0,0.0,0.0,0.0,0.0,0.0,0.0,0.0,0.0,0.0,0.0,0.0,0.0,0.0,0.0,0.0,0.0,0.0,0.0,0.0,0.0,0.0,0.0,0.0,0.0,0.0,0.0,0.0,0.0,0.0,0.0,0.0,0.0,0.0,0.0,0.0,0.0,0.0,0.0,0.0,0.0,0.0,0.0,0.0,0.0,0.0,0.0,0.0,0.0,0.0,0.0,0.0,0.0,0.0,0.0,0.0,0.0,0.0,0.0,0.0,0.0,0.0,0.0,0.0,0.0,0.0,0.0,0.0,0.0,0.0,0.0,0.0,0.0,0.0,0.0,0.0,0.0,0.0,0.0,0.0,0.0,0.0,0.0,0.0,0.0,0.0,0.0,0.0,0.0,0.0,0.0,-2.206,-2.4174,0.0,-2.749,-2.7346,-2.7027,-2.5341,-2.3326,-2.1017,0.0,0.0,0.0,0.0,0.0,0.0,0.0,0.0,0.0,0.0,0.0,0.0,0.0,0.0,0.0,0.0,0.0,0.0,0.0,0.0,0.0,0.0,0.0,0.0,0.0,0.0,0.0,0.0,0.0,0.0,0.0,0.0,0.0,0.0,0.0,0.0,0.0,0.0,0.0,0.0,0.0,0.0,0.0,0.0,0.0,0.0,0.0,0.0,0.0,0.0,0.0,0.0,0.0,0.0,0.0,0.0,0.0,0.0,0.0,0.0,0.0,0.0,0.0,0.0,0.0,0.0,0.0,0.0,0.0,0.0,0.0,0.0,0.0,0.0,0.0,0.0,0.0,0.0,0.0,0.0,0.0,0.0,0.0,0.0,0.0,0.0,0.0,0.0,0.0,0.0,0.0,0.0,0.0,0.0,0.0,0.0,0.0,0.0,0.0,0.0,0.0,0.0,-2.0188,-2.2192,-2.4321,0.0,-2.7469,-2.7235,-2.6758,-2.5058,-2.287,-2.0231,0.0,0.0,0.0,0.0,0.0,0.0,0.0,0.0,0.0,0.0,0.0,0.0,0.0,0.0,0.0,0.0,0.0,0.0,0.0,0.0,0.0,0.0,0.0,0.0,0.0,0.0,0.0,0.0,0.0,0.0,0.0,0.0,0.0,0.0,0.0,0.0,0.0,0.0,0.0,0.0,0.0,0.0,0.0,0.0,0.0,0.0,0.0,0.0,0.0,0.0,0.0,0.0,0.0,0.0,0.0,0.0,0.0,0.0,0.0,0.0,0.0,0.0,0.0,0.0,0.0,0.0,0.0,0.0,0.0,0.0,0.0,0.0,0.0,0.0,0.0,0.0,0.0,0.0,0.0,0.0,0.0,0.0,0.0,0.0,0.0,0.0,0.0,0.0,0.0,0.0,0.0,0.0,0.0,0.0,0.0,0.0,0.0,0.0,0.0,0.0,0.0,0.0,-2.0321,-2.3212,-2.5628,-2.732,-2.7369,-2.7135,-2.6713,-2.3754,-2.1113,0.0,0.0,0.0,0.0,0.0,0.0,0.0,0.0,0.0,0.0,0.0,0.0,0.0,0.0,0.0,0.0,0.0,0.0,0.0,0.0,0.0,0.0,0.0,0.0,0.0,0.0,0.0,0.0,0.0,0.0,0.0,0.0,0.0,0.0,0.0,0.0,0.0,0.0,0.0,0.0,0.0,0.0,0.0,0.0,0.0,0.0,0.0,0.0,0.0,0.0,0.0,0.0,0.0,0.0,0.0,0.0,0.0,0.0,0.0,0.0,0.0,0.0,0.0,0.0,0.0,0.0,0.0,0.0,0.0,0.0,0.0,0.0,0.0,0.0,0.0,0.0,0.0,0.0,0.0,0.0,0.0,0.0,0.0,0.0,0.0,0.0,0.0,0.0,0.0,0.0,0.0,0.0,0.0,0.0,0.0,0.0,0.0,0.0,0.0,0.0,0.0,0.0,0.0,0.0,-2.3249,-2.5392,-2.7,-2.7113,-2.6714,-2.5788,-2.4124,-2.1803,-1.8798,0.0,0.0,0.0,0.0,0.0,0.0,0.0,0.0,0.0,0.0,0.0,0.0,0.0,0.0,0.0,0.0,0.0,0.0,0.0,0.0,0.0,0.0,0.0,0.0,0.0,0.0,0.0,0.0,0.0,0.0,0.0,0.0,0.0,0.0,0.0,0.0,0.0,0.0,0.0,0.0,0.0,0.0,0.0,0.0,0.0,0.0,0.0,0.0,0.0,0.0,0.0,0.0,0.0,0.0,0.0,0.0,0.0,0.0,0.0,0.0,0.0,0.0,0.0,0.0,0.0,0.0,0.0,0.0,0.0,0.0,0.0,0.0,0.0,0.0,0.0,0.0,0.0,0.0,0.0,0.0,0.0,0.0,0.0,0.0,0.0,0.0,0.0,0.0,0.0,0.0,0.0,0.0,0.0,0.0,0.0,0.0,0.0,0.0,0.0,0.0,0.0,0.0,-2.0461,-2.3257,-2.5479,-2.6857,-2.6943,-2.6539,-2.5672,-2.4491,-2.236,-1.9032,0.0,0.0,0.0,0.0,0.0,0.0,0.0,0.0,0.0,0.0,0.0,0.0,0.0,0.0,0.0,0.0,0.0,0.0,0.0,0.0,0.0,0.0,0.0,0.0,0.0,0.0,0.0,0.0,0.0,0.0,0.0,0.0,0.0,0.0,0.0,0.0,0.0,0.0,0.0,0.0,0.0,0.0,0.0,0.0,0.0,0.0,0.0,0.0,0.0,0.0,0.0,0.0,0.0,0.0,0.0,0.0,0.0,0.0,0.0,0.0,0.0,0.0,0.0,0.0,0.0,0.0,0.0,0.0,0.0,0.0,0.0,0.0,0.0,0.0,0.0,0.0,0.0,0.0,0.0,0.0,0.0,0.0,0.0,0.0,0.0,0.0,0.0,0.0,0.0,0.0,0.0,0.0,0.0,0.0,0.0,0.0,0.0,0.0,0.0,0.0,0.0,0.0,-2.0033,-2.3165,-2.5646,-2.6828,-2.6726,-2.6418,-2.5981,-2.4671,-2.2645,-1.968,0.0,0.0,0.0,0.0,0.0,0.0,0.0,0.0,0.0,0.0,0.0,0.0,0.0,0.0,0.0,0.0,0.0,0.0,0.0,0.0,0.0,0.0,0.0,0.0,0.0,0.0,0.0,0.0,0.0,0.0,0.0,0.0,0.0,0.0,0.0,0.0,0.0,0.0,0.0,0.0,0.0,0.0,0.0,0.0,0.0,0.0,0.0,0.0,0.0,0.0,0.0,0.0,0.0,0.0,0.0,0.0,0.0,0.0,0.0,0.0,-1.6797,0.0,0.0,0.0,0.0,0.0,0.0,0.0,0.0,0.0,0.0,0.0,0.0,0.0,0.0,0.0,0.0,0.0,0.0,0.0,0.0,0.0,0.0,0.0,0.0,0.0,0.0,0.0,0.0,0.0,0.0,0.0,0.0,0.0,0.0,0.0,0.0,0.0,0.0,0.0,0.0,0.0,-2.0333,-2.2813,-2.4901,-2.6442,-2.5978,-2.5409,-2.4862,-2.3729,-2.203,-1.965,0.0,0.0,0.0,0.0,0.0,0.0,0.0,0.0,0.0,0.0,0.0,0.0,0.0,0.0,0.0,0.0,0.0,0.0,0.0,0.0,0.0,0.0,0.0,0.0,0.0,0.0,0.0,0.0,0.0,0.0,0.0,0.0,0.0,0.0,0.0,0.0,0.0,0.0,0.0,0.0,0.0,0.0,0.0,0.0,0.0,0.0,0.0,0.0,0.0,0.0,0.0,0.0,0.0,0.0,0.0,0.0,0.0,0.0,0.0,0.0,0.0,-1.8199,0.0,0.0,0.0,0.0,0.0,0.0,0.0,0.0,0.0,0.0,0.0,0.0,0.0,0.0,0.0,0.0,0.0,0.0,0.0,0.0,0.0,0.0,0.0,0.0,0.0,0.0,0.0,0.0,0.0,0.0,0.0,0.0,0.0,0.0,0.0,0.0,0.0,0.0,0.0,0.0,-2.0081,-2.2744,-2.4913,-2.6339,-2.6141,-2.5775,-2.5492,-2.4427,-2.3039,-2.134,-1.9243,0.0,0.0,0.0,0.0,0.0,0.0,0.0,0.0,0.0,0.0,0.0,0.0,0.0,0.0,0.0,0.0,0.0,0.0,0.0,0.0,0.0,0.0,0.0,0.0,0.0,0.0,0.0,0.0,0.0,0.0,0.0,0.0,0.0,0.0,0.0,0.0,0.0,0.0,0.0,0.0,0.0,0.0,0.0,0.0,0.0,0.0,0.0,0.0,0.0,0.0,0.0,0.0,0.0,-2.3236,-2.3655,-2.4149,-2.4149,-2.4359,-2.4592,-2.2103,-2.1308,-2.161,0.0,0.0,0.0,0.0,0.0,0.0,0.0,0.0,0.0,0.0,0.0,0.0,0.0,0.0,0.0,0.0,0.0,0.0,0.0,0.0,0.0,0.0,0.0,0.0,0.0,-2.1509,-2.1393,0.0,0.0,0.0,0.0,0.0,0.0,0.0,0.0,0.0,0.0,0.0,0.0,-1.9901,-2.2638,-2.4825,-2.5948,-2.6094,-2.6094,-2.6094,-2.5257,-2.4245,-2.3126,-2.1284,-1.9471,0.0,0.0,0.0,0.0,0.0,0.0,0.0,0.0,0.0,0.0,0.0,0.0,0.0,0.0,0.0,0.0,0.0,0.0,0.0,0.0,0.0,0.0,0.0,0.0,0.0,0.0,0.0,0.0,0.0,0.0,0.0,0.0,-1.3946,-1.4703,0.0,0.0,0.0,0.0,0.0,0.0,0.0,0.0,0.0,0.0,0.0,0.0,0.0,0.0,-2.1609,-2.3918,-2.5077,-2.5171,-2.6576,-2.7088,-2.6791,-2.6791,-2.6823,-2.6856,-2.6473,0.0,-2.3192,-2.2894,0.0,0.0,0.0,0.0,0.0,0.0,0.0,0.0,0.0,0.0,0.0,0.0,0.0,0.0,0.0,0.0,0.0,0.0,0.0,0.0,0.0,0.0,-2.4664,-2.4192,-2.4125,-2.4035,0.0,-2.0983,-1.8229,-1.7076,0.0,0.0,0.0,0.0,0.0,0.0,0.0,0.0,-2.068,-2.2015,-2.3086,-2.4279,-2.4409,-2.4409,-2.4409,-2.4492,-2.4053,-2.2903,-2.2293,-2.0981,-1.8799,-1.7678,0.0,0.0,0.0,0.0,0.0,0.0,0.0,0.0,0.0,0.0,0.0,0.0,0.0,0.0,0.0,0.0,0.0,0.0,0.0,0.0,0.0,0.0,0.0,0.0,0.0,0.0,0.0,0.0,0.0,-1.3428,-1.5342,-1.5568,-1.5902,-1.5772,0.0,0.0,0.0,0.0,0.0,0.0,0.0,0.0,0.0,-2.1534,-2.3121,-2.415,-2.4568,-2.5948,-2.6896,-2.7404,-2.8132,-2.8637,-2.8943,-2.8943,-2.8943,-2.8943,-2.8943,-2.8006,-2.6389,-2.5061,-2.3271,-2.1363,0.0,0.0,0.0,0.0,-2.0729,-2.0937,-2.2455,-2.2968,0.0,0.0,0.0,0.0,0.0,0.0,0.0,0.0,0.0,0.0,0.0,0.0,0.0,-2.5287,-2.5352,-2.53,-2.534,-2.3661,-2.1718,0.0,-1.9574,-1.8232,-1.5322,0.0,0.0,0.0,0.0,0.0,-2.204,-2.3423,-2.4479,-2.538,-2.5464,-2.5464,-2.5464,-2.4853,-2.4328,-2.3956,-2.2794,-2.1738,-2.0855,-1.9152,-1.7259,0.0,0.0,0.0,0.0,0.0,0.0,0.0,0.0,0.0,0.0,0.0,0.0,0.0,0.0,0.0,0.0,0.0,0.0,0.0,0.0,0.0,0.0,0.0,0.0,0.0,0.0,0.0,0.0,-1.5309,-1.6706,-1.6641,-1.7739,-1.7918,0.0,0.0,0.0,0.0,0.0,0.0,-2.1165,-2.2339,-2.3345,-2.4071,-2.5598,-2.6644,-2.7162,-2.7763,-2.8418,-2.9175,-2.9175,-2.951,-3.0209,-3.0209,-3.0209,-3.0209,-3.0209,-2.9794,-2.9022,-2.6976,-2.5229,-2.3864,-2.3143,-2.2357,-2.1732,-2.2942,-2.3389,-2.3596,-2.5185,-2.5721,-2.5546,-2.4454,0.0,-2.2608,-2.1155,0.0,0.0,0.0,0.0,-2.263,-2.394,-2.4574,-2.5022,-2.5732,-2.5895,-2.5895,-2.5895,-2.5435,-2.4556,0.0,-2.2534,-2.1355,-1.8059,0.0,0.0,0.0,0.0,-2.1675,-2.3382,-2.4682,-2.5546,-2.5739,-2.5842,-2.5978,-2.6176,-2.5142,-2.4572,-2.4793,-2.3208,-2.2243,-2.2258,-2.049,-1.8787,-1.724,0.0,0.0,0.0,0.0,0.0,0.0,0.0,0.0,0.0,0.0,0.0,0.0,0.0,0.0,0.0,0.0,0.0,0.0,0.0,0.0,0.0,0.0,0.0,0.0,0.0,0.0,0.0,0.0,0.0,-1.8921,-2.0648,0.0,0.0,0.0,0.0,-2.0675,-2.1581,-2.2761,-2.4192,-2.5164,-2.6114,-2.7064,-2.8103,-2.865,-2.8694,-2.9598,-3.0089,-3.0144,-3.0144,-3.0166,-3.0209,-3.0209,-3.0209,-3.0209,-3.0209,-3.0188,-3.0057,-2.9055,-2.773,-2.6399,-2.6365,-2.6037,-2.5677,-2.617,-2.6366,-2.6442,-2.702,-2.7206,-2.7195,-2.7119,-2.5863,-2.4355,-2.4268,-2.3274,0.0,0.0,-2.3951,-2.4574,-2.5535,-2.5808,-2.5841,-2.5884,-2.5895,-2.5895,-2.5895,-2.5717,-2.5267,0.0,-2.3274,-2.2204,-2.0748,0.0,-2.0693,-2.226,-2.2397,-2.2889,-2.4528,-2.4897,-2.472,-2.3939,-2.4076,-2.4528,-2.5312,-2.4819,-2.4572,-2.4793,-2.3639,-2.2706,-2.212,-2.1506,-2.0182,-1.8083,-1.6724,0.0,0.0,0.0,0.0,0.0,0.0,0.0,0.0,0.0,0.0,0.0,0.0,0.0,0.0,0.0,0.0,0.0,0.0,0.0,0.0,0.0,0.0,0.0,0.0,0.0,0.0,0.0,0.0,-2.0873,-2.197,0.0,0.0,-2.195,-2.2746,-2.3607,-2.4541,-2.5548,-2.6671,-2.7392,-2.8081,-2.8691,-2.9347,-2.9696,-2.9696,-3.0035,-3.0362,-3.0646,-3.0646,-3.0821,-3.1116,-3.1116,-3.1116,-3.1116,-3.1116,-3.0941,-3.0624,-3.0275,-2.9478,-2.8462,-2.8462,-2.7971,-2.7249,-2.7424,-2.7489,-2.7467,-2.737,-2.7523,-2.7685,-2.7413,-2.6856,-2.6299,-2.6299,-2.5939,-2.5505,-2.5548,-2.569,-2.5874,-2.5895,-2.5895,-2.5895,-2.5895,-2.5822,-2.5696,-2.5696,-2.5422,-2.502,-2.4691,-2.42,-2.3342,-2.1705,-2.1937,-2.2392,-2.2473,-2.3147,-2.4012,-2.5097,-2.5295,-2.5093,-2.4461,-2.495,-2.512,-2.4587,-2.4494,-2.4213,-2.3559,-2.2797,-2.1986,-2.1186,-2.0529,-1.972,-1.8705,-1.7144,-1.5274,0.0,0.0,0.0,0.0,0.0,0.0,0.0,0.0,0.0,0.0,0.0,0.0,0.0,0.0,0.0,0.0,0.0,0.0,0.0,0.0,0.0,0.0,0.0,0.0,0.0,0.0,-2.1526,-2.2258,-2.3453,-2.3973,-2.334,-2.429,-2.5273,-2.6081,-2.6889,-2.7687,-2.8438,-2.8986,-2.939,-2.9718,-3.0188,-3.045,-3.045,-3.0603,-3.0843,-3.1138,-3.1138,-3.1313,-3.1618,-3.1618,-3.1618,-3.1618,-3.1618,-3.1433,-3.1138,-3.1138,-3.0766,-3.0177,-2.986,-2.9336,-2.8721,-2.8721,-2.8721,-2.8656,-2.8222,-2.8145,-2.8233,-2.7905,-2.7687,-2.7555,-2.7555,-2.7446,-2.725,-2.69,-2.6824,-2.6747,-2.6278,-2.6147,-2.6103,-2.5939,-2.5728,-2.5601,-2.5601,-2.5211,-2.4903,-2.4903,-2.4756,-2.4219,-2.2924,-2.3398,-2.3845,-2.3536,-2.4503,-2.5349,-2.5559,-2.6197,-2.6185,-2.4995,-2.5321,-2.5402,-2.4783,-2.3979,-2.347,-2.347,-2.2197,-2.1264,-2.0873,-1.9907,-1.9079,-1.8479,-1.6792,-1.5416,-1.4372,0.0,0.0,0.0,0.0,0.0,0.0,0.0,0.0,0.0,0.0,0.0,0.0,0.0,0.0,0.0,0.0,0.0,0.0,0.0,0.0,0.0,0.0,0.0,-2.0477,-2.1971,-2.3078,-2.3132,-2.5218,-2.6289,-2.5412,-2.654,-2.7566,-2.8023,-2.8538,-2.9066,-2.95,-2.9969,-3.0242,-3.0253,-3.069,-3.093,-3.0941,-3.1411,-3.1651,-3.1673,-3.1673,-3.1673,-3.1673,-3.1673,-3.1673,-3.1673,-3.1673,-3.1662,-3.164,-3.164,-3.164,-3.1531,-3.0614,-3.0242,-3.0231,-3.0231,-3.022,-3.0144,-2.9652,-2.9219,-2.8825,-2.8803,-2.844,-2.8012,-2.8012,-2.773,-2.7348,-2.7337,-2.7337,-2.7228,-2.6726,-2.6606,-2.6486,-2.6037,-2.5749,-2.5581,-2.557,-2.5211,-2.4903,-2.4903,-2.4903,-2.4775,-2.454,-2.47,-2.5105,-2.5663,-2.6483,0.0,-2.5902,-2.7589,-2.7873,-2.5271,-2.502,-2.5271,-2.585,-2.3215,-2.2446,-2.4556,-2.1929,-2.0647,-2.1367,-1.9795,-1.8447,-1.7456,-1.5898,-1.5171,-1.5333,0.0,0.0,0.0,0.0,0.0,0.0,0.0,0.0,0.0,0.0,0.0,0.0,0.0,0.0,0.0,0.0,0.0,0.0,0.0,0.0,0.0,0.0,-2.2739,-2.2765,-2.3837,-2.4956,-2.6005,-2.6715,-2.7293,-2.7764,-2.8169,-2.8702,-2.9543,-2.974,-3.0013,-3.0482,-3.0635,-3.0865,-3.1225,-3.1356,-3.1597,-3.1968,-3.211,-3.2339,-3.2667,-3.2667,-3.2667,-3.2667,-3.2667,-3.2667,-3.2667,-3.2667,-3.2481,-3.2175,-3.2175,-3.1957,-3.1545,-3.1334,-3.1018,-3.0712,-3.0712,-3.0493,-3.0144,-2.9652,-2.9401,-2.9274,-2.8913,-2.8716,-2.856,-2.856,-2.8508,-2.8333,-2.7938,-2.7794,-2.7685,-2.725,-2.713,-2.6966,-2.6325,-2.5991,-2.5669,-2.52,-2.4828,-2.4625,-2.4625,-2.4625,-2.4583,-2.4497,-2.4583,-2.4658,-2.4818,-2.5589,0.0,-2.5819,-2.6862,-2.6955,-2.5315,-2.5639,-2.5266,-2.3612,-2.305,-2.2719,0.0,-2.1242,-2.0742,-2.1385,-2.0059,-1.8944,-1.8142,-1.7599,-1.6927,0.0,0.0,0.0,0.0,0.0,0.0,0.0,0.0,0.0,0.0,0.0,0.0,0.0,0.0,0.0,0.0,0.0,0.0,0.0,0.0,0.0,0.0,-2.3143,-2.4847,-2.5406,-2.5841,-2.6452,-2.7445,-2.7796,-2.8222,-2.9033,-2.9296,-2.9674,-3.0439,-3.0493,-3.0701,-3.1171,-3.14,-3.1651,-3.1935,-3.2132,-3.2372,-3.2667,-3.2667,-3.2851,-3.3124,-3.3124,-3.3124,-3.3124,-3.3124,-3.3124,0.0,-3.3124,-3.2971,-3.2656,-3.2459,-3.2208,0.0,0.0,0.0,0.0,0.0,-3.0908,-3.0461,-3.0177,-2.9947,-2.9707,-2.9263,-2.911,-2.9066,-2.8858,-2.8803,-2.8749,-2.8418,-2.8342,-2.8233,-2.7741,-2.7576,-2.7456,-2.6856,-2.6324,-2.5784,-2.5379,-2.4879,-2.4497,-2.4497,0.0,0.0,-2.4497,-2.4497,-2.4615,-2.4978,-2.5463,-2.5777,-2.5777,-2.6565,-2.6669,-2.5571,-2.601,-2.5769,-2.4226,-2.3556,0.0,0.0,0.0,-2.1187,-2.1468,-1.9916,0.0,0.0,0.0,0.0,0.0,0.0,0.0,0.0,-1.6471,-1.672,0.0,0.0,0.0,0.0,0.0,0.0,0.0,0.0,0.0,0.0,0.0,0.0,0.0,0.0,0.0,0.0,-2.512,-2.6583,-2.7816,-2.7763,-2.7719,-2.8111,-2.8582,-2.9088,-2.9587,-3.0035,-3.0482,-3.0941,-3.1029,-3.1247,-3.1684,0.0,0.0,0.0,0.0,-3.3146,-3.3201,-3.3201,-3.3234,-3.3288,-3.3288,-3.3288,-3.3288,-3.3288,-3.3288,-3.3288,-3.3288,-3.3256,-3.3168,-3.2711,-3.2481,-3.2339,-3.1826,-3.1618,-3.1618,-3.1618,-3.1356,-3.0963,-3.0919,0.0,0.0,-2.9718,-2.9532,-2.9401,-2.9011,-2.8847,-2.8803,-2.8803,-2.8803,-2.8705,-2.8233,-2.8078,-2.7902,-2.7423,-2.6592,-2.5933,-2.5836,-2.512,-2.4497,-2.4497,-2.4497,-2.4497,-2.4497,-2.4497,-2.4786,-2.5537,-2.5746,-2.5777,-2.5777,-2.6565,-2.6771,-2.5902,0.0,0.0,-2.6206,-2.437,-2.3461,-2.3986,-2.272,-2.1855,-2.1572,-1.9818,-1.962,-2.1259,-2.004,-2.0054,-2.1461,-2.0948,-2.085,-2.1207,-1.8541,-1.8219,0.0,0.0,0.0,0.0,0.0,0.0,0.0,0.0,0.0,0.0,0.0,0.0,0.0,0.0,0.0,-2.4203,-2.619,-2.7685,-2.7958,-2.8626,-2.9095,-2.9194,-2.9281,-2.9685,-3.0537,-3.0701,-3.0963,-3.1444,-3.187,-3.2143,-3.223,-3.2678,0.0,-3.2929,-3.307,-3.3257,-3.365,-3.365,-3.3857,-3.424,0.0,0.0,-3.424,-3.424,-3.424,-3.424,-3.424,-3.4021,-3.365,-3.3562,-3.3071,-3.2339,-3.1826,-3.1618,-3.1618,-3.1618,-3.1564,-3.1422,-3.1029,-3.0843,-3.069,-3.022,-2.9805,-2.9467,-2.9368,-2.911,0.0,-2.8803,-2.8803,-2.8781,-2.8683,-2.8487,-2.8136,-2.7447,-2.6761,-2.607,-2.5482,-2.4904,-2.4497,-2.4497,-2.4497,-2.4497,-2.4497,-2.4497,-2.454,-2.4743,-2.5348,-2.5777,-2.5777,-2.6565,-2.6771,-2.5902,-2.5867,-2.5782,-2.5437,-2.4706,-2.4209,-2.4093,-2.343,-2.2502,-2.1406,-2.147,-2.1403,-2.1142,-2.1054,-2.1069,-2.1162,-2.1971,-2.2285,-2.2201,-2.0881,-2.0881,0.0,0.0,0.0,0.0,0.0,0.0,0.0,0.0,0.0,0.0,0.0,-2.1343,0.0,0.0,-2.5207,-2.6462,-2.7621,-2.8571,-2.9016,-2.9543,-2.9751,-2.951,-2.9904,-3.0373,-3.0843,-3.1116,-3.1465,-3.1968,-3.2241,-3.2481,-3.2763,-3.318,-3.3431,-3.3431,-3.3672,-3.3912,-3.4163,-3.4163,-3.4283,-3.4524,-3.4524,-3.4524,-3.4524,-3.4524,-3.4524,-3.4524,-3.4524,-3.4382,-3.4141,-3.3901,-3.3235,-3.2361,-3.2099,-3.1848,-3.1618,-3.1618,-3.1618,-3.1586,-3.1345,-3.1258,-3.1181,-3.0712,-3.0384,-3.01,-2.962,-2.9361,-2.911,-2.8869,-2.8803,-2.8757,-2.8617,-2.8488,-2.8283,-2.7746,-2.7158,-2.6487,-2.5892,-2.53,-2.4776,-2.4549,-2.4497,-2.4497,-2.4497,-2.4497,-2.4658,-2.5105,-2.5137,-2.5306,-2.5735,-2.5799,-2.5799,-2.5777,-2.5777,-2.5732,-2.5532,-2.4689,-2.4187,-2.4207,-2.36,-2.3295,-2.3386,-2.2994,-2.2743,-2.2683,-2.2482,-2.2265,-2.2149,-2.2727,-2.3085,-2.3174,-2.2718,-2.2749,0.0,0.0,0.0,0.0,0.0,0.0,0.0,0.0,-2.0566,-2.2338,-2.3012,-2.3755,-2.5306,-2.6059,-2.6966,-2.8552,-2.8957,-2.9361,-3.01,-3.0209,-3.0067,-2.9674,-3.0373,-3.093,-3.1029,-3.1389,-3.1837,-3.2339,-3.2459,-3.2721,-3.318,-3.3672,-3.3934,-3.3934,-3.4316,-3.4524,-3.4524,-3.4524,-3.4524,-3.4524,-3.4524,-3.4524,-3.4524,-3.4524,-3.4524,-3.4524,-3.4524,-3.4524,-3.448,-3.3988,-3.3344,-3.2634,-3.2459,-3.2132,-3.176,-3.1662,-3.1618,-3.1618,-3.1618,-3.1618,-3.1564,-3.1171,-3.0974,-3.0734,-2.9882,-2.9554,-2.9379,-2.8935,-2.8803,-2.8757,-2.8488,-2.8348,-2.8243,-2.7998,-2.7425,-2.6787,-2.6316,-2.5677,-2.5055,-2.459,-2.4497,-2.4497,-2.4497,-2.4497,-2.4743,-2.5421,-2.4935,-2.4733,-2.5463,-2.4946,-2.4775,-2.5463,-2.5537,-2.5621,-2.5788,-2.493,-2.442,-2.4473,-2.3839,-2.3916,-2.4988,-2.3836,-2.3486,-2.4072,-2.3486,-2.3225,-2.3318,-2.3318,-2.3557,-2.4002,-2.4002,-2.4012,-1.7487,-1.8323,-1.9482,-2.0807,-2.0884,-2.1509,0.0,0.0,-2.4417,-2.6278,-2.6715,-2.6824,-2.7031,-2.7818,-2.8552,-2.8771,-2.9489,-3.0089,-3.0199,-3.0209,-3.0188,-3.0144,-3.0581,-3.1061,-3.1498,-3.1586,-3.1837,-3.2339,-3.2818,-3.3202,-3.3693,-3.4185,-3.4447,-3.4447,-3.4491,-3.4524,-3.4524,-3.4524,-3.4524,-3.4524,-3.4524,-3.4524,-3.4524,-3.4524,-3.4524,-3.4524,-3.4524,-3.4524,-3.448,-3.3988,-3.3737,-3.3551,-3.2711,-3.235,-3.2241,-3.1793,-3.1618,-3.1618,-3.1618,-3.1618,-3.1567,-3.1564,-3.1247,-3.0799,-3.0286,-2.9827,-2.9379,-2.8935,-2.8803,-2.8757,-2.8488,-2.8243,-2.7998,-2.7726,-2.7134,-2.6536,-2.6024,-2.5533,-2.5055,-2.459,-2.4497,-2.4497,-2.4497,-2.4497,-2.454,-2.4615,-2.4583,-2.454,-2.4615,-2.4583,-2.454,-2.4625,-2.4658,-2.4946,-2.5746,-2.6046,-2.5875,-2.5165,-2.4639,-2.4093,-2.3496,-2.3305,-2.3224,-2.3335,-2.3224,-2.3391,-2.3805,-2.3805,-2.4033,-2.4425,-2.4425,-2.4339,-2.0718,0.0,0.0,0.0,-2.3951,-2.4563,-2.5906,-2.5961,-2.6114,-2.7413,-2.7696,-2.7818,-2.8102,-2.876,-2.9318,0.0,-3.0166,-3.0712,-3.0996,-3.0788,-3.0614,-3.0614,-3.0537,-3.0679,-3.1149,-3.1203,-3.164,-3.2752,-3.3015,-3.3399,-3.4185,-3.4414,-3.4524,-3.4524,-3.4524,-3.4524,-3.4524,-3.4524,-3.4524,-3.4524,-3.4524,-3.4524,-3.4524,-3.4524,-3.4524,-3.4524,-3.4524,-3.4524,-3.4457,-3.4305,-3.4054,-3.3726,-3.3049,-3.2612,-3.2328,-3.1815,-3.1618,-3.1618,-3.1618,-3.1618,-3.1618,-3.1618,-3.1487,-3.1181,-3.0439,-3.0067,-2.9751,-2.9022,-2.871,-2.8524,-2.8243,-2.7951,-2.7726,-2.7499,-2.7201,-2.6812,-2.6086,-2.574,-2.5399,-2.4631,-2.4497,-2.4497,-2.4497,-2.4497,-2.4497,-2.4497,-2.4497,-2.4497,-2.4497,-2.4497,-2.4497,-2.4497,-2.4497,-2.4658,-2.502,-2.5218,-2.5184,-2.4819,-2.4597,-2.4325,-2.3971,-2.3981,-2.3981,-2.3981,-2.3981,-2.4064,-2.426,-2.426,-2.4321,-2.4497,-2.4497,-2.4368,-2.2542,0.0,0.0,-2.5076,-2.6299,-2.7086,-2.6605,-2.6977,-2.7577,-2.8123,-2.8089,-2.81,-2.8495,-2.9,0.0,-2.9936,-3.0504,-3.1061,-3.1553,-3.1094,-3.0701,-3.0701,-3.0177,-3.0046,-3.0646,-3.0821,-3.1498,-3.3015,-3.3124,-3.3486,-3.4469,-3.4524,-3.4524,-3.4524,-3.4524,-3.4524,-3.4524,-3.4524,-3.4524,-3.4524,-3.4524,-3.4524,-3.4524,-3.4524,-3.4524,-3.4524,-3.4524,-3.4524,-3.4524,-3.4524,-3.4316,-3.3934,-3.3311,-3.2917,-3.2492,-3.1859,-3.1618,-3.1618,-3.1618,-3.1618,-3.1618,-3.1618,-3.1618,-3.1393,-3.0504,-3.0209,-3.0002,-2.9077,-2.8664,-2.843,-2.8092,-2.7857,-2.7631,-2.7357,-2.7309,-2.7092,-2.6293,-2.6013,-2.5647,-2.4838,-2.459,-2.4497,-2.4497,-2.4497,-2.4497,-2.4497,-2.4497,-2.4497,-2.4497,-2.4497,-2.4497,-2.4497,-2.4497,-2.4497,-2.4497,-2.4743,-2.4786,-2.4497,-2.4743,-2.4743,-2.4497,-2.4497,-2.4497,-2.4497,-2.4497,-2.4497,-2.4497,-2.4497,-2.4497,-2.4497,-2.4497,-2.4411,0.0,0.0,-2.527,-2.5742,-2.7337,-2.8606,-2.8045,-2.8713,-2.927,-2.8869,-2.8364,-2.8002,-2.8012,-2.8451,-2.8978,-2.9423,-3.0286,-3.1061,-3.1553,-3.0821,-3.0231,-3.0231,-2.9438,-2.923,0.0,-3.0635,-3.1498,-3.3015,-3.3124,-3.3486,-3.4469,-3.4524,-3.4524,-3.4524,-3.4524,-3.4524,-3.4524,-3.4524,-3.4524,-3.4524,-3.4524,-3.4524,-3.4524,-3.4524,-3.4524,-3.4524,-3.4524,-3.4524,-3.4524,-3.4524,-3.4513,-3.4403,-3.3442,-3.3113,-3.2982,-3.1979,-3.1618,-3.1618,-3.1618,-3.1618,-3.1618,-3.1618,-3.1618,-3.1393,-3.0504,-3.0209,-3.0002,-2.9077,-2.8803,-2.8653,-2.8139,-2.7987,-2.7857,-2.7394,-2.7309,-2.7175,-2.6698,-2.6241,-2.5751,-2.5251,-2.4807,-2.4497,-2.4497,-2.4497,-2.4497,-2.4497,-2.4497,-2.4497,-2.4497,-2.4497,-2.4497,-2.4497,-2.4497,-2.4497,-2.4497,-2.5253,-2.5379,-2.454,-2.5306,-2.5379,-2.454,-2.4497,-2.4497,-2.4497,-2.4497,-2.4497,-2.4497,-2.4497,-2.4497,-2.4497,-2.4497,-2.4497,0.0,0.0,-2.6791,-2.7633,-2.8757,-2.9598,-2.9106,-2.9248,-2.9259,-2.8451,-2.8111,-2.7893,-2.7576,-2.7949,-2.8538,-2.9358,-3.0024,-3.0723,-3.1509,-3.1072,-3.0559,-3.0253,-2.9925,0.0,0.0,0.0,0.0,-3.2481,-3.2612,-3.3027,-3.3988,-3.4349,-3.4524,-3.4524,-3.4524,-3.4524,-3.4524,-3.4524,-3.4524,-3.4524,-3.4524,-3.4524,-3.4524,-3.4524,-3.4524,-3.4524,-3.4524,-3.4524,-3.4524,-3.4524,-3.4524,-3.4425,-3.3453,-3.3124,-3.3004,-3.1979,-3.1618,-3.1618,-3.1618,-3.1618,-3.1618,-3.1618,-3.1618,-3.1393,-3.0504,-3.0209,-2.9964,-2.8853,-2.843,-2.8186,-2.782,-2.7631,-2.7489,-2.7357,-2.7309,-2.7185,-2.6718,-2.6501,-2.6113,-2.5334,-2.5065,-2.4859,-2.4549,-2.4497,-2.4497,-2.4497,-2.4497,-2.4497,-2.4497,-2.4497,-2.4497,-2.4497,-2.4497,-2.4497,-2.4497,-2.4775,-2.4818,-2.4497,-2.4786,-2.4818,-2.4497,-2.4497,-2.4497,-2.4497,-2.4497,-2.4497,-2.4497,-2.4497,-2.4497,-2.4497,-2.4497,-2.4497,0.0,-2.6846,-2.7621,-2.8943,-2.9751,-3.0089,-2.9598,-2.9347,-2.8953,-2.7981,-2.7326,-2.6922,-2.6605,-2.6671,-2.7195,-2.8495,-2.9259,-3.0089,-3.1203,-3.1094,-3.0854,-3.0734,-3.0559,0.0,0.0,0.0,0.0,-3.2503,-3.2787,-3.3235,-3.401,-3.4349,-3.4524,-3.4524,-3.4524,-3.4524,-3.4524,-3.4524,-3.4524,-3.4524,-3.4524,-3.4524,-3.4524,-3.4524,-3.4524,-3.4524,-3.4524,-3.4524,-3.4524,-3.4524,-3.4524,-3.4425,-3.3453,-3.3124,-3.3004,-3.1979,-3.1618,-3.1618,-3.1618,-3.1618,-3.1618,-3.1618,-3.1618,-3.1393,-3.0504,-3.0209,-2.9964,-2.8758,-2.829,-2.8055,-2.7678,-2.7489,-2.7404,-2.7309,-2.7309,-2.7226,-2.6926,-2.6739,-2.6351,-2.5606,-2.5292,-2.5044,-2.458,-2.4497,-2.4497,-2.4497,-2.4497,-2.4497,-2.4497,-2.4497,-2.4497,-2.4497,-2.4497,-2.4497,-2.4497,-2.4497,-2.4497,-2.4497,-2.4497,-2.4497,-2.4497,-2.4497,-2.4497,-2.4497,-2.4497,-2.4497,-2.4497,-2.4497,-2.4497,-2.4497,-2.4497,-2.4497,-2.6966,-2.7424,-2.7938,-2.9762,-3.0231,-3.0111,-2.9565,-2.9121,-2.8464,-2.7381,-2.607,-2.5106,0.0,0.0,-2.5054,-2.69,-2.8125,-2.9307,-3.0723,-3.0952,-3.1138,0.0,0.0,0.0,0.0,0.0,0.0,-3.3038,0.0,-3.3977,-3.4458,-3.4513,-3.4524,-3.4524,-3.4524,-3.4524,-3.4524,-3.4524,-3.4524,-3.4524,-3.4524,-3.4524,-3.4524,-3.4524,-3.4524,-3.4524,-3.4524,-3.4524,-3.4524,-3.4524,-3.4524,-3.4436,-3.3475,-3.3135,-3.3004,-3.2012,-3.164,-3.1618,-3.1618,-3.1618,-3.1618,-3.1618,-3.1618,-3.1393,-3.0504,-3.0209,-2.9905,-2.8711,-2.8348,-2.8254,-2.7736,-2.7584,-2.7536,-2.7357,-2.7309,-2.7309,-2.7309,-2.6957,-2.6511,-2.6055,-2.5544,-2.5044,-2.458,-2.4497,-2.4497,-2.4497,-2.4497,-2.4497,-2.4497,-2.4497,-2.4497,-2.4497,-2.4497,-2.4497,-2.4497,-2.4497,-2.4497,-2.4497,-2.4497,-2.4497,-2.4497,-2.4497,-2.4497,-2.4497,-2.4497,-2.4497,-2.4497,-2.4497,-2.4497,-2.4497,-2.4497,-2.4497,-2.7522,-2.8899,-3.0024,-3.0177,-3.0472,-3.0406,-2.9263,-2.8571,-2.7654,-2.5622,-2.4618,-2.3656,-2.2262,0.0,0.0,-2.5524,-2.7469,0.0,-3.1181,-3.176,0.0,0.0,0.0,-3.2481,-3.2394,-3.2907,0.0,0.0,-3.3388,-3.3464,-3.3956,-3.4327,-3.4524,-3.4524,-3.4524,-3.4524,-3.4524,-3.4524,-3.4524,-3.4524,-3.4524,-3.4524,-3.4524,-3.4524,-3.4524,-3.4524,-3.4524,-3.4524,-3.4524,-3.4524,-3.4524,-3.4458,-3.3846,-3.3388,-3.3048,-3.2405,-3.1946,-3.1618,-3.1618,-3.1618,-3.1618,-3.1618,-3.1618,-3.1393,-3.0504,-3.0052,-2.964,-2.8453,-2.7961,-2.7736,-2.7452,-2.7404,-2.7357,-2.7309,-2.7309,-2.7309,-2.7309,-2.7216,-2.6988,-2.6532,-2.5761,-2.5044,-2.458,-2.4497,-2.4497,-2.4497,-2.4497,-2.4497,-2.4497,-2.4497,-2.4497,-2.4497,-2.4497,-2.4497,-2.4497,-2.4497,-2.4497,-2.4497,-2.4497,-2.4497,-2.4497,-2.4497,-2.4497,-2.4497,-2.4497,-2.4497,-2.4497,-2.4497,-2.4497,-2.4497,-2.4497,-2.4497,-2.8975,-3.0078,-3.0832,-3.057,-3.0395,-2.9849,-2.82,-2.713,-2.5797,-2.3394,-2.2335,0.0,0.0,0.0,0.0,0.0,0.0,0.0,-3.0472,-3.1662,-3.2459,0.0,-3.3104,0.0,-3.3333,-3.3803,-3.4119,0.0,-3.3857,-3.3825,-3.4098,-3.4382,-3.4524,-3.4524,-3.4524,-3.4524,-3.4524,-3.4524,-3.4524,-3.4524,-3.4524,-3.4524,-3.4524,-3.4524,-3.4524,-3.4524,0.0,-3.4524,-3.4524,-3.4524,-3.4524,-3.4447,-3.3748,-3.33,-3.3037,-3.2295,-3.187,-3.1567,-3.1476,-3.1424,-3.1424,-3.1578,-3.1618,-3.1436,-3.0595,-3.0067,-2.9585,-2.8471,-2.7883,-2.7536,-2.7357,-2.7309,-2.7309,-2.7309,-2.7309,-2.7309,-2.7309,-2.7309,-2.7112,-2.6438,-2.5709,-2.5044,-2.458,-2.4497,-2.4497,-2.4497,-2.4497,-2.4497,-2.4497,-2.4497,-2.4497,-2.4497,-2.4497,-2.4497,-2.4497,-2.4497,-2.4497,-2.4497,-2.4497,-2.4497,-2.4497,-2.4497,-2.4497,-2.4497,-2.4497,-2.4497,-2.4497,-2.4497,-2.4497,-2.4497,-2.4497,-2.4497,-3.045,-3.0898,-3.0963,-3.0832,-3.0144,-2.8953,-2.69,-2.5327,-2.3591,-2.1124,0.0,0.0,-1.8403,0.0,-2.1168,-2.2575,0.0,-2.8143,-2.9412,-3.1138,-3.2503,-3.3146,-3.3595,-3.4054,-3.448,-3.4524,-3.4524,-3.4524,-3.4524,-3.4524,-3.4524,-3.4524,-3.4524,-3.4524,-3.4524,-3.4524,-3.4524,-3.4524,-3.4524,-3.4524,-3.4524,-3.4524,-3.4524,-3.4524,-3.4524,-3.4524,0.0,0.0,-3.4524,-3.4524,-3.4524,-3.4436,-3.3519,-3.3126,-3.2962,-3.1951,-3.1581,-3.1527,-3.123,-3.1127,-3.1178,-3.1476,-3.1527,-3.1378,-3.0622,-3.007,-2.9481,-2.8484,-2.7898,-2.7536,-2.7357,-2.7309,-2.7309,-2.7309,-2.7309,-2.7309,-2.7309,-2.7309,-2.7029,-2.6061,-2.5575,-2.5106,-2.459,-2.4497,-2.4497,-2.4497,-2.4497,-2.4497,-2.4497,-2.4497,-2.4497,-2.4497,-2.4497,-2.4497,-2.4497,-2.4497,-2.4497,-2.4497,-2.4497,-2.4497,-2.4497,-2.4497,-2.4497,-2.4497,-2.4497,-2.4497,-2.4497,-2.4497,-2.4497,-2.4497,-2.4497,-2.4497,-3.0155,-3.0898,-3.1313,-3.0526,-2.9904,-2.8768,-2.6048,-2.4301,0.0,0.0,0.0,-1.7376,-1.6465,-1.8123,0.0,-2.1603,0.0,0.0,0.0,0.0,-3.223,0.0,0.0,0.0,0.0,0.0,0.0,0.0,0.0,0.0,-3.4524,-3.4524,-3.4524,-3.4524,-3.4524,-3.4524,-3.4524,-3.4524,-3.4524,-3.4524,-3.4524,-3.4524,-3.4524,-3.4524,-3.4524,-3.4524,0.0,0.0,-3.4524,-3.4524,-3.4524,-3.4413,-3.3626,-3.3269,-3.2941,-3.19,-3.1397,-3.123,-3.0983,-3.0879,-3.0931,-3.1178,-3.1127,-3.0811,-3.0134,-2.9554,-2.8915,-2.7988,-2.7552,-2.7357,-2.7309,-2.7309,-2.7309,-2.7309,-2.7309,-2.7309,-2.7309,-2.7309,-2.7029,-2.6061,-2.5813,-2.5513,-2.4642,-2.4497,-2.4497,-2.4497,-2.4497,-2.4497,-2.4497,-2.4497,-2.4497,-2.4497,-2.4497,-2.4497,-2.4497,-2.4497,-2.4497,-2.4497,-2.4497,-2.4497,-2.4497,-2.4497,-2.4497,-2.4497,-2.4497,-2.4497,-2.4497,-2.4497,-2.4497,-2.4497,-2.4497,-2.4497,-3.0297,-3.0723,-3.0712,-3.0013,-2.9085,-2.7468,-2.4082,0.0,0.0,0.0,0.0,-1.5924,-1.5214,0.0,0.0,0.0,0.0,0.0,0.0,0.0,0.0,0.0,0.0,0.0,0.0,0.0,0.0,0.0,0.0,0.0,-3.4468,-3.4367,-3.4311,-3.4311,-3.4311,-3.4311,-3.4311,-3.4412,-3.4524,-3.4524,-3.4524,-3.4524,-3.4524,-3.4524,-3.4524,-3.4524,-3.4524,0.0,-3.4468,-3.4356,-3.4159,-3.3832,-3.3071,-3.2588,-3.2158,-3.1432,-3.106,-3.0931,-3.0661,-3.0609,-3.0609,-3.0754,-3.0765,-3.0648,-2.9976,-2.9384,-2.8848,-2.7983,-2.7533,-2.7309,-2.7309,-2.7309,-2.7309,-2.7309,-2.7309,-2.7309,-2.7309,-2.7309,-2.7102,-2.6418,-2.6086,-2.5668,-2.4972,-2.4652,-2.4497,-2.4497,-2.4497,-2.4497,-2.4497,-2.4497,-2.4497,-2.4497,-2.4497,-2.4497,-2.4497,-2.4497,-2.4497,-2.4497,-2.4497,-2.4497,-2.4497,-2.4497,-2.4497,-2.4497,-2.4497,-2.4497,-2.4497,-2.4497,-2.4497,-2.4497,-2.4497,-2.4497,-3.0133,-3.033,-3.0067,-2.9478,-2.8309,-2.631,-2.2466,-2.0729,0.0,0.0,0.0,-1.4864,-1.4604,0.0,0.0,0.0,0.0,0.0,0.0,0.0,0.0,0.0,0.0,0.0,0.0,0.0,0.0,0.0,0.0,0.0,0.0,-3.4086,-3.3974,-3.3974,-3.4086,-3.4086,-3.4086,-3.4367,-3.4524,-3.4524,-3.4468,-3.4468,-3.4524,-3.4468,-3.4468,-3.4524,-3.4524,0.0,0.0,-3.409,-3.3709,-3.32,-3.2285,-3.1774,-3.1444,-3.0841,-3.0672,-3.0672,-3.0401,-3.0287,-3.0276,-3.0172,-3.0306,-3.0387,-2.9739,-2.9166,-2.8655,-2.7952,-2.7531,-2.7309,-2.7309,-2.7309,-2.7309,-2.7309,-2.7309,-2.7309,-2.7309,-2.7309,-2.7164,-2.6708,-2.6241,-2.574,-2.5261,-2.4807,-2.4497,-2.4497,-2.4497,-2.4497,-2.4497,-2.4497,-2.4497,-2.4497,-2.4497,-2.4497,-2.4497,-2.4497,-2.4497,-2.4497,-2.4497,-2.4497,-2.4497,-2.4497,-2.4497,-2.4497,-2.4497,-2.4497,-2.4497,-2.4497,-2.4497,-2.4497,-2.4497,-2.4497,-2.8967,-2.9565,-2.9991,-2.9099,-2.8058,-2.631,-2.2466,0.0,0.0,0.0,-1.4755,-1.4593,-1.4963,-1.556,0.0,0.0,0.0,0.0,0.0,0.0,0.0,0.0,0.0,0.0,0.0,0.0,0.0,0.0,0.0,0.0,0.0,-3.3681,-3.3625,-3.3625,-3.3918,-3.4086,-3.4086,-3.4367,-3.4524,-3.4524,-3.4255,-3.4255,-3.4468,-3.4255,-3.4255,-3.4524,0.0,0.0,0.0,-3.3678,-3.3242,-3.2827,-3.1665,-3.1328,-3.1391,-3.0423,-3.0245,-3.0391,-3.0141,-3.0047,-2.9974,-2.9549,-2.9424,-2.9382,-2.9155,-2.8585,-2.7893,-2.7496,-2.734,-2.7309,-2.7309,-2.7309,-2.7309,-2.7309,-2.7309,-2.7309,-2.7309,-2.7309,-2.7164,-2.6708,-2.6241,-2.574,-2.5261,-2.4807,-2.4497,-2.4497,-2.4497,-2.4497,-2.4497,-2.4497,-2.4497,-2.4497,-2.4497,-2.4497,-2.4497,-2.4497,-2.4497,-2.4497,-2.4497,-2.4497,-2.4497,-2.4497,-2.4497,-2.4497,-2.4497,-2.4497,-2.4497,-2.4497,-2.4497,-2.4497,-2.4497,-2.4497,-2.841,-2.8822,-2.8811,-2.8418,-2.7392,-2.5459,-2.1568,0.0,0.0,-1.5258,-1.4538,-1.4462,-1.4624,-1.5061,-1.5876,0.0,-1.825,-1.9986,0.0,0.0,0.0,0.0,0.0,0.0,0.0,0.0,0.0,0.0,0.0,0.0,0.0,-3.3353,-3.3353,-3.3353,-3.3466,-3.3636,-3.3805,-3.3907,-3.4076,-3.4255,-3.3974,-3.3974,-3.4255,-3.4142,-3.4255,-3.4468,0.0,0.0,0.0,-3.3063,-3.2429,-3.177,-3.108,-3.0767,-3.0548,-3.0161,-3.0047,-3.0141,-3.0047,-2.9994,-2.9922,-2.9456,-2.9114,-2.8804,-2.8437,-2.8108,-2.7831,-2.7434,-2.7309,-2.7309,-2.7309,-2.7309,-2.7309,-2.7309,-2.7309,-2.7309,-2.7309,-2.7309,-2.7164,-2.6708,-2.6241,-2.574,-2.5261,-2.4807,-2.4497,-2.4497,-2.4497,-2.4497,-2.4497,-2.4497,-2.4497,-2.4497,-2.4497,-2.4497,-2.4497,-2.4497,-2.4497,-2.4497,-2.4497,-2.4497,-2.4497,-2.4497,-2.4497,-2.4497,-2.4497,-2.4497,-2.4497,-2.4497,-2.4497,-2.4497,-2.4497,-2.4497,-2.7206,-2.7752,-2.7751,-2.7609,-2.6551,-2.4552,0.0,0.0,-1.7704,-1.4965,-1.4396,-1.4396,-1.4396,-1.4681,-1.5247,-1.6312,-1.7071,-1.8665,-2.2051,0.0,0.0,0.0,0.0,0.0,0.0,0.0,0.0,0.0,0.0,0.0,0.0,-3.3136,-3.3079,-3.3079,-3.3136,-3.3306,-3.3466,-3.3568,-3.3749,-3.3974,-3.3636,-3.3636,-3.3974,-3.3974,-3.4086,-3.4233,0.0,0.0,0.0,-3.2361,-3.1638,-3.0924,-3.0639,-3.0284,-2.9994,-2.9994,-2.9994,-2.9994,-2.9994,-2.9994,-2.9891,-2.9301,-2.8876,-2.8504,-2.7903,-2.7728,-2.7665,-2.7392,-2.7309,-2.7309,-2.7309,-2.7309,-2.7309,-2.7309,-2.7309,-2.7309,-2.7309,-2.7309,-2.7164,-2.6708,-2.6241,-2.574,-2.5261,-2.4807,-2.4497,-2.4497,-2.4497,-2.4497,-2.4497,-2.4497,-2.4497,-2.4497,-2.4497,-2.4497,-2.4497,-2.4497,-2.4497,-2.4497,-2.4497,-2.4497,-2.4497,-2.4497,-2.4497,-2.4497,-2.4497,-2.4497,-2.4497,-2.4497,-2.4497,-2.4497,-2.4497,-2.4497,-2.4945,-2.6245,-2.7206,-2.6715,-2.5568,-2.3733,0.0,-1.9006,-1.7322,-1.491,-1.4396,-1.4396,-1.4396,-1.4407,-1.4878,-1.6258,-1.7355,-1.9168,-2.2521,0.0,0.0,0.0,0.0,0.0,0.0,0.0,0.0,0.0,0.0,0.0,0.0,0.0,-3.2737,-3.2737,-3.3022,-3.3193,-3.3193,-3.3466,-3.3625,-3.3625,-3.3353,-3.3353,-3.3636,-3.3636,-3.3636,0.0,0.0,0.0,0.0,-3.1493,-3.0945,-3.0636,-3.018,-3.0005,-2.9994,-2.9994,-2.9994,-2.9994,-2.9994,-2.9994,-2.9849,-2.8918,-2.8618,-2.8452,-2.7589,-2.732,-2.732,-2.7309,-2.7309,-2.7309,-2.7309,-2.7309,-2.7309,-2.7309,-2.7309,-2.7309,-2.7309,-2.7309,-2.7164,-2.6708,-2.6241,-2.574,-2.5261,-2.4807,-2.4497,-2.4497,-2.4497,-2.4497,-2.4497,-2.4497,-2.4497,-2.4497,-2.4497,-2.4497,-2.4497,-2.4497,-2.4497,-2.4497,-2.4497,-2.4497,-2.4497,-2.4497,-2.4497,-2.4497,-2.4497,-2.4497,-2.4497,-2.4497,-2.4497,-2.4497,-2.4497,-2.4497,-2.1999,-2.2841,-2.3285,-2.2805,-2.2382,-2.1376,-1.8774,-1.7835,-1.6934,-1.4834,-1.4396,-1.4396,-1.4396,-1.4396,-1.5096,-1.7191,-1.7802,0.0,0.0,0.0,0.0,0.0,0.0,0.0,0.0,0.0,0.0,0.0,0.0,0.0,0.0,0.0,-3.2669,-3.2669,-3.2794,-3.2965,-3.3193,-3.3069,-3.3126,-3.3306,-3.3022,-3.3012,-3.3306,-3.3306,0.0,0.0,0.0,0.0,0.0,-3.1006,-3.0608,-3.0201,-3.0056,-2.9994,-2.9994,-2.9994,-2.9994,-2.9994,-2.9994,-2.9787,-2.9425,-2.8814,-2.84,-2.8028,-2.7486,-2.7309,-2.7309,-2.7309,-2.7309,-2.7309,-2.7309,-2.7309,-2.7309,-2.7309,-2.7309,-2.7309,-2.7309,-2.7309,-2.7081,-2.6248,-2.5978,-2.5637,-2.4848,-2.459,-2.4497,-2.4497,-2.4497,-2.4497,-2.4497,-2.4497,-2.4497,-2.4497,-2.4497,-2.4497,-2.4497,-2.4497,-2.4497,-2.4497,-2.4497,-2.4497,-2.4497,-2.4497,-2.4497,-2.4497,-2.4497,-2.4497,-2.4497,-2.4497,-2.4497,-2.4497,-2.4497,-2.4497,0.0,-2.0533,-2.097,-2.0664,-2.0347,-1.9581,-1.7733,-1.6994,-1.6284,-1.4724,-1.4396,-1.4396,-1.4396,-1.4396,-1.502,-1.6885,-1.7649,0.0,0.0,0.0,0.0,0.0,0.0,0.0,0.0,0.0,0.0,0.0,0.0,0.0,0.0,0.0,-3.2669,-3.2669,-3.2669,-3.2794,-3.3022,-3.2794,-3.2794,-3.3022,-3.2794,-3.2701,-3.2761,-3.2874,0.0,0.0,0.0,0.0,0.0,-3.0597,-3.0253,-2.9994,-2.9994,-2.9994,-2.9994,-2.9994,-2.9994,-2.9973,-2.9798,-2.9539,-2.9197,-2.8566,-2.8048,-2.7624,-2.7392,-2.7309,-2.7309,-2.7309,-2.7309,-2.7309,-2.7309,-2.7309,-2.7309,-2.7309,-2.7309,-2.7309,-2.7309,-2.7309,-2.7029,-2.6061,-2.5875,-2.5595,-2.4652,-2.4497,-2.4497,-2.4497,-2.4497,-2.4497,-2.4497,-2.4497,-2.4497,-2.4497,-2.4497,-2.4497,-2.4497,-2.4497,-2.4497,-2.4497,-2.4497,-2.4497,-2.4497,-2.4497,-2.4497,-2.4497,-2.4497,-2.4497,-2.4497,-2.4497,-2.4497,-2.4497,-2.4497,-2.4497,0.0,-1.9038,-1.9747,-1.9715,-1.9049,-1.8196,-1.7306,-1.6404,0.0,-1.4593,-1.4396,-1.444,-1.4582,-1.4517,-1.4832,-1.6018,0.0,0.0,0.0,0.0,0.0,0.0,0.0,0.0,0.0,0.0,0.0,0.0,0.0,0.0,0.0,0.0,0.0,-3.2633,-3.2633,-3.2664,-3.2669,-3.2638,-3.2628,-3.2628,-3.2597,-3.2406,-3.1992,-3.2281,0.0,0.0,0.0,0.0,0.0,-3.017,-2.9994,-2.9994,-2.9994,-2.9994,-2.9994,-2.9994,-2.9973,-2.988,-2.9456,-2.9259,-2.9063,-2.8162,-2.7593,-2.7309,-2.7309,-2.7309,-2.7309,-2.7309,-2.7309,-2.7309,-2.7309,-2.7309,-2.7309,-2.7309,-2.7309,-2.7309,-2.7309,-2.7309,-2.7029,-2.6061,-2.5875,-2.5595,-2.4652,-2.4497,-2.4497,-2.4497,-2.4497,-2.4497,-2.4497,-2.4497,-2.4497,-2.4497,-2.4497,-2.4497,-2.4497,-2.4497,-2.4497,-2.4497,-2.4497,-2.4497,-2.4497,-2.4497,-2.4497,-2.4497,-2.4497,-2.4497,-2.4497,-2.4497,-2.4497,-2.4497,-2.4497,-2.4497,-1.526,0.0,-1.6208,-1.5826,-1.5836,-1.5793,0.0,-1.517,-1.5105,-1.4527,0.0,-1.4856,-1.6343,-1.5684,-1.6099,0.0,0.0,0.0,0.0,0.0,0.0,0.0,0.0,0.0,0.0,0.0,0.0,0.0,0.0,0.0,0.0,0.0,-3.1702,-3.1702,-3.1702,-3.2033,-3.2669,-3.2318,-3.2142,-3.2142,-3.1857,-3.164,-3.1536,-3.1646,0.0,0.0,0.0,0.0,-3.0149,-3.0046,-2.9994,-2.9994,-2.9994,-2.9994,-2.9994,-2.9994,-2.9766,-2.9446,-2.9342,-2.8835,-2.8152,-2.7593,-2.7392,-2.7309,-2.7309,-2.7309,-2.7309,-2.7309,-2.7309,-2.7309,-2.7309,-2.7309,-2.7309,-2.7309,-2.7309,-2.7309,-2.7309,-2.7309,-2.7029,-2.6061,-2.5875,-2.5595,-2.4652,-2.4497,-2.4497,-2.4497,-2.4497,-2.4497,-2.4497,-2.4497,-2.4497,-2.4497,-2.4497,-2.4497,-2.4497,-2.4497,-2.4497,-2.4497,-2.4497,-2.4497,-2.4497,-2.4497,-2.4497,-2.4497,-2.4497,-2.4497,-2.4497,-2.4497,-2.4497,-2.4497,-2.4497,-2.4497,-1.409,-1.4897,-1.5694,-1.5432,-1.5553,-1.5684,-1.5421,0.0,0.0,0.0,0.0,-1.4856,-1.6339,0.0,0.0,0.0,0.0,0.0,0.0,0.0,0.0,0.0,0.0,0.0,0.0,0.0,0.0,0.0,0.0,0.0,0.0,0.0,-3.1381,-3.1381,-3.1381,-3.1609,-3.2106,-3.1857,-3.1733,-3.1733,-3.1495,-3.1267,-3.106,-3.106,0.0,0.0,0.0,0.0,-2.9994,-2.9994,-2.9994,-2.9994,-2.9994,-2.9994,-2.9973,-2.9756,-2.9518,-2.9239,-2.8825,-2.8214,-2.7583,-2.7382,-2.7309,-2.7309,-2.7309,-2.7309,-2.7309,-2.7309,-2.7309,-2.7309,-2.7309,-2.7309,-2.7309,-2.7309,-2.7309,-2.7309,-2.7309,-2.7309,-2.7029,-2.6061,-2.5875,-2.5595,-2.4652,-2.4497,-2.4497,-2.4497,-2.4497,-2.4497,-2.4497,-2.4497,-2.4497,-2.4497,-2.4497,-2.4497,-2.4497,-2.4497,-2.4497,-2.4497,-2.4497,-2.4497,-2.4497,-2.4497,-2.4497,-2.4497,-2.4497,-2.4497,-2.4497,-2.4497,-2.4497,-2.4497,-2.4497,-2.4497,-1.3849,-1.529,-1.665,-1.6345,-1.6378,-1.6476,-1.64,0.0,0.0,0.0,0.0,0.0,0.0,0.0,0.0,0.0,0.0,0.0,0.0,0.0,0.0,0.0,0.0,0.0,0.0,0.0,0.0,0.0,0.0,0.0,0.0,0.0,0.0,-3.1164,-3.1164,-3.1164,-3.1164,-3.1236,-3.1267,-3.1267,-3.1205,-3.0967,-3.0584,-3.0584,-3.0367,0.0,0.0,0.0,-2.9994,-2.9994,-2.9994,-2.9984,-2.9922,-2.9891,-2.9829,-2.9373,-2.9156,-2.897,-2.8121,-2.7572,-2.7309,-2.7309,-2.7309,-2.7309,-2.7309,-2.7309,-2.7309,-2.7309,-2.7309,-2.7309,-2.7309,-2.7309,-2.7309,-2.7309,-2.7309,-2.7309,-2.7309,-2.7309,-2.7029,-2.6061,-2.5875,-2.5595,-2.4652,-2.4497,-2.4497,-2.4497,-2.4497,-2.4497,-2.4497,-2.4497,-2.4497,-2.4497,-2.4497,-2.4497,-2.4497,-2.4497,-2.4497,-2.4497,-2.4497,-2.4497,-2.4497,-2.4497,-2.4497,-2.4497,-2.4497,-2.4497,-2.4497,-2.4497,-2.4497,-2.4497,-2.4497,-2.4497,-1.4559,-1.6306,-1.7387,-1.5738,-1.5898,-1.6389,-1.5996,0.0,0.0,0.0,0.0,0.0,0.0,0.0,0.0,0.0,0.0,0.0,0.0,0.0,0.0,0.0,0.0,0.0,0.0,0.0,0.0,0.0,0.0,0.0,0.0,0.0,0.0,-3.0212,-3.0212,-3.0212,-3.0212,-3.0594,-3.0791,-3.0791,-3.0398,-3.017,-3.0098,-3.0098,-3.0067,0.0,0.0,-2.9994,-2.9994,-2.9994,-2.9994,-2.9953,-2.9559,-2.9415,-2.9352,-2.8887,-2.8473,-2.8059,-2.7541,-2.7361,-2.7309,-2.7309,-2.7309,-2.7309,-2.7309,-2.7309,-2.7309,-2.7309,-2.7309,-2.7309,-2.7309,-2.7309,-2.7309,-2.7309,-2.7309,-2.7309,-2.7309,-2.7309,-2.7029,-2.6061,-2.5875,-2.5595,-2.4652,-2.4497,-2.4497,-2.4497,-2.4497,-2.4497,-2.4497,-2.4497,-2.4497,-2.4497,-2.4497,-2.4497,-2.4497,-2.4497,-2.4497,-2.4497,-2.4497,-2.4497,-2.4497,-2.4497,-2.4497,-2.4497,-2.4497,-2.4497,-2.4497,-2.4497,-2.4497,-2.4497,-2.4497,-2.4497,-1.3652,-1.5159,-1.6415,-1.6306,-1.7584,-1.8807,-1.86,0.0,0.0,0.0,0.0,0.0,0.0,0.0,0.0,0.0,0.0,0.0,0.0,0.0,0.0,0.0,0.0,0.0,0.0,0.0,0.0,0.0,0.0,0.0,0.0,0.0,0.0,0.0,-2.9994,-2.9994,-2.9994,-3.0212,-3.0315,-3.0315,-3.0098,-2.9994,-2.9994,-2.9994,-2.9994,-2.9994,0.0,-2.9994,-2.9973,-2.9725,-2.9622,-2.958,-2.9114,-2.8928,-2.8876,-2.8411,-2.7955,-2.7541,-2.7382,-2.7309,-2.7309,-2.7309,-2.7309,-2.7309,-2.7309,-2.7309,-2.7309,-2.7309,-2.7309,-2.7309,-2.7309,-2.7309,-2.7309,-2.7309,-2.7309,-2.7309,-2.7309,-2.7112,-2.6739,-2.6009,-2.5689,-2.5316,-2.4611,-2.4497,-2.4497,-2.4497,-2.4497,-2.4497,-2.4497,-2.4497,-2.4497,-2.4497,-2.4497,-2.4497,-2.4497,-2.4497,-2.4497,-2.4497,-2.4497,-2.4497,-2.4497,-2.4497,-2.4497,-2.4497,-2.4497,-2.4497,-2.4497,-2.4497,-2.4497,-2.4497,-2.4497,-2.4497,-1.3161,-1.4207,-1.5404,-1.6918,0.0,-2.0019,-2.0663,0.0,0.0,0.0,0.0,0.0,0.0,0.0,0.0,0.0,0.0,0.0,0.0,0.0,0.0,0.0,0.0,0.0,0.0,0.0,0.0,0.0,0.0,0.0,0.0,0.0,0.0,0.0,-2.9994,-2.9994,-2.9994,-2.9994,-2.9994,-2.9994,-2.9994,-2.9994,-2.9994,-2.9994,-2.9942,-2.9829,-2.9829,-2.9766,-2.9642,-2.929,-2.9145,-2.9094,-2.8628,-2.839,-2.8255,-2.7893,-2.7552,-2.7309,-2.7309,-2.7309,-2.7309,-2.7309,-2.7309,-2.7309,-2.7309,-2.7309,-2.7309,-2.7309,-2.7309,-2.7309,-2.7309,-2.7309,-2.7309,-2.7309,-2.7309,-2.7278,-2.7164,-2.6864,-2.6449,-2.5834,-2.5461,-2.5044,-2.458,-2.4497,-2.4497,-2.4497,-2.4497,-2.4497,-2.4497,-2.4497,-2.4497,-2.4497,-2.4497,-2.4497,-2.4497,-2.4497,-2.4497,-2.4497,-2.4497,-2.4497,-2.4497,-2.4497,-2.4497,-2.4497,-2.4497,-2.4497,-2.4497,-2.4497,-2.4497,-2.4497,-2.4497,-2.4497,-1.4306,-1.492,-1.5293,-1.6907,-1.7049,0.0,-1.9954,-1.9458,0.0,0.0,0.0,0.0,0.0,0.0,0.0,0.0,0.0,0.0,0.0,0.0,0.0,0.0,0.0,0.0,0.0,0.0,0.0,0.0,0.0,0.0,0.0,0.0,0.0,0.0,0.0,-2.9994,-2.9994,-2.9994,-2.9994,-2.9994,-2.9994,-2.9994,-2.9994,-2.9994,-2.9766,-2.9352,-2.9352,-2.9104,-2.8711,-2.868,-2.8659,-2.8618,-2.8152,-2.7717,-2.7403,-2.7372,-2.734,-2.7309,-2.7309,-2.7309,-2.7309,-2.7309,-2.7309,-2.7309,-2.7309,-2.7309,-2.7309,-2.7309,-2.7309,-2.7309,-2.7309,-2.7309,-2.7309,-2.7309,-2.7309,-2.7185,-2.676,-2.6635,-2.631,-2.5451,-2.521,-2.5044,-2.458,-2.4497,-2.4497,-2.4497,-2.4497,-2.4497,-2.4497,-2.4497,-2.4497,-2.4497,-2.4497,-2.4497,-2.4497,-2.4497,-2.4497,-2.4497,-2.4497,-2.4497,-2.4497,-2.4497,-2.4497,-2.4497,-2.4497,-2.4497,-2.4497,-2.4497,-2.4497,-2.4497,-2.4497,-2.4497,-1.3151,-1.4326,-1.5529,-1.7051,-1.7688,0.0,0.0,0.0,0.0,0.0,0.0,0.0,0.0,0.0,0.0,0.0,0.0,0.0,0.0,0.0,0.0,0.0,0.0,0.0,0.0,0.0,0.0,0.0,0.0,0.0,0.0,0.0,0.0,0.0,0.0,-2.9135,-2.9135,-2.9135,-2.9135,-2.9135,-2.9435,-2.957,-2.9559,-2.927,-2.9042,-2.8876,-2.8876,-2.8773,-2.8587,-2.8307,-2.8183,-2.8142,-2.7686,-2.7407,-2.7309,-2.7309,-2.7309,-2.7309,-2.7309,-2.7309,-2.7309,-2.7309,-2.7309,-2.7309,-2.7309,-2.7309,-2.7309,-2.7309,-2.7309,-2.7309,-2.7309,-2.7309,-2.7309,-2.7309,-2.7309,-2.7185,-2.6718,-2.6387,-2.5958,-2.5347,-2.4952,-2.4704,-2.4528,-2.4497,-2.4497,-2.4497,-2.4497,-2.4497,-2.4497,-2.4497,-2.4497,-2.4497,-2.4497,-2.4497,-2.4497,-2.4497,-2.4497,-2.4497,-2.4497,-2.4497,-2.4497,-2.4497,-2.4497,-2.4497,-2.4497,-2.4497,-2.4497,-2.4497,-2.4497,-2.4497,-2.4497,-2.4497,-1.2818,-1.387,-1.5174,0.0,0.0,0.0,0.0,0.0,0.0,0.0,0.0,0.0,0.0,0.0,0.0,0.0,0.0,0.0,0.0,0.0,0.0,0.0,0.0,0.0,0.0,0.0,0.0,0.0,0.0,0.0,0.0,0.0,0.0,0.0,0.0,0.0,-2.8618,-2.8618,-2.8618,-2.8618,-2.8794,-2.8949,-2.9073,-2.8763,-2.8535,-2.839,-2.839,-2.8317,-2.8162,-2.7841,-2.7717,-2.7686,-2.7423,-2.7309,-2.7309,-2.7309,-2.7309,-2.7309,-2.7309,-2.7309,-2.7309,-2.7309,-2.7309,-2.7309,-2.7309,-2.7309,-2.7309,-2.7309,-2.7309,-2.7309,-2.7309,-2.7309,-2.7309,-2.7309,-2.7195,-2.6957,-2.6501,-2.5999,-2.5544,-2.5055,-2.4714,-2.4497,-2.4497,-2.4497,-2.4497,-2.4497,-2.4497,-2.4497,-2.4497,-2.4497,-2.4497,-2.4497,-2.4497,-2.4497,-2.4497,-2.4497,-2.4497,-2.4497,-2.4497,-2.4497,-2.4497,-2.4497,-2.4497,-2.4497,-2.4497,-2.4497,-2.4497,-2.4497,-2.4497,-2.4497,-2.4497,-2.4497,-1.3731,-1.3756,-1.4158,0.0,0.0,0.0,0.0,0.0,0.0,0.0,0.0,0.0,0.0,0.0,0.0,0.0,0.0,0.0,0.0,0.0,0.0,0.0,0.0,0.0,0.0,0.0,0.0,0.0,0.0,0.0,0.0,0.0,0.0,0.0,0.0,0.0,-2.8597,-2.8597,-2.8597,-2.8597,-2.8142,-2.8162,-2.8607,-2.8597,-2.8349,-2.7865,-2.7865,-2.7665,-2.7309,-2.7309,-2.7309,-2.7309,-2.7309,-2.7309,-2.7309,-2.7309,-2.7309,-2.7309,-2.7309,-2.7309,-2.7309,-2.7309,-2.7309,-2.7309,-2.7309,-2.7309,-2.7309,-2.7299,-2.7299,-2.7299,-2.7299,-2.7299,-2.7299,-2.7299,-2.6946,-2.649,-2.6024,-2.5533,-2.5055,-2.459,-2.4497,-2.4497,-2.4497,-2.4497,-2.4497,-2.4497,-2.4497,-2.4497,-2.4497,-2.4497,-2.4497,-2.4497,-2.4497,-2.4497,-2.4497,-2.4497,-2.4497,-2.4497,-2.4497,-2.4497,-2.4497,-2.4497,-2.4497,-2.4497,-2.4497,-2.4497,-2.4497,-2.4497,-2.4497,-2.4497,-2.4497,-2.4497,-1.2723,-1.4069,0.0,0.0,0.0,0.0,0.0,0.0,0.0,0.0,0.0,0.0,0.0,0.0,0.0,0.0,0.0,0.0,0.0,0.0,0.0,0.0,0.0,0.0,0.0,0.0,0.0,0.0,0.0,0.0,0.0,0.0,0.0,0.0,0.0,0.0,-2.7714,-2.7714,-2.7714,-2.7655,-2.7521,-2.7686,-2.8121,-2.78,-2.7631,-2.7458,-2.7458,-2.7423,-2.7309,-2.7309,-2.7309,-2.7309,-2.7309,-2.7309,-2.7309,-2.7309,-2.7309,-2.7309,-2.7309,-2.7309,-2.7309,-2.7309,-2.7309,-2.7309,-2.7309,-2.7309,-2.7237,-2.6915,-2.6822,-2.675,-2.6418,-2.6335,-2.6418,-2.6739,-2.6718,-2.6361,-2.5595,-2.5282,-2.5055,-2.459,-2.4497,-2.4497,-2.4497,-2.4497,-2.4497,-2.4497,-2.4497,-2.4497,-2.4497,-2.4497,-2.4497,-2.4497,-2.4497,-2.4497,-2.4497,-2.4497,-2.4497,-2.4497,-2.4497,-2.4497,-2.4497,-2.4497,-2.4497,-2.4497,-2.4497,-2.4497,-2.4497,-2.4497,-2.4497,-2.4497,-2.4497,-2.4497,-1.3449,0.0,0.0,0.0,0.0,0.0,0.0,0.0,0.0,0.0,0.0,0.0,0.0,0.0,0.0,0.0,0.0,0.0,0.0,0.0,0.0,0.0,0.0,0.0,0.0,0.0,0.0,0.0,0.0,0.0,0.0,0.0,0.0,0.0,0.0,0.0,-2.7309,-2.7309,-2.7309,-2.7309,-2.7309,-2.7444,-2.7655,-2.7423,-2.7309,-2.7309,-2.7309,-2.7309,-2.7309,-2.7309,-2.7309,-2.7309,-2.7309,-2.7309,-2.7309,-2.7309,-2.7309,-2.7309,-2.7309,-2.7309,-2.7309,-2.7309,-2.7309,-2.7278,-2.7092,-2.7029,-2.6936,-2.647,-2.6335,-2.6273,-2.5947,-2.5875,-2.5993,-2.6227,-2.6165,-2.5885,-2.5303,-2.5044,-2.4828,-2.4549,-2.4497,-2.4497,-2.4497,-2.4497,-2.4497,-2.4497,-2.4497,-2.4497,-2.4497,-2.4497,-2.4497,-2.4497,-2.4497,-2.4497,-2.4497,-2.4497,-2.4497,-2.4497,-2.4497,-2.4497,-2.4497,-2.4497,-2.4497,-2.4497,-2.4497,-2.4497,-2.4497,-2.4497,-2.4497,-2.4497,-2.4497,-2.4497,0.0,0.0,0.0,0.0,0.0,0.0,0.0,0.0,0.0,0.0,0.0,0.0,0.0,0.0,0.0,0.0,0.0,0.0,0.0,0.0,0.0,0.0,0.0,0.0,0.0,0.0,0.0,0.0,0.0,0.0,0.0,0.0,0.0,0.0,0.0,0.0,-2.7309,-2.7309,-2.7309,0.0,-2.7309,-2.7309,-2.7309,-2.7309,-2.7309,-2.7309,-2.7309,-2.7309,-2.7309,-2.7309,-2.7309,-2.7309,-2.7309,-2.7309,-2.7309,-2.7309,-2.7309,-2.7309,-2.7309,-2.7309,-2.7299,-2.7258,-2.7247,-2.7154,-2.6687,-2.6553,-2.6459,-2.5993,-2.5823,-2.5813,-2.5771,-2.5761,-2.5761,-2.5761,-2.5482,-2.5179,-2.5137,-2.4797,-2.4497,-2.4497,-2.4497,-2.4497,-2.4497,-2.4497,-2.4497,-2.4497,-2.4497,-2.4497,-2.4497,-2.4497,-2.4497,-2.4497,-2.4497,-2.4497,-2.4497,-2.4497,-2.4497,-2.4497,-2.4497,-2.4497,-2.4497,-2.4497,-2.4497,-2.4497,-2.4497,-2.4497,-2.4497,-2.4497,-2.4497,-2.4497,-2.4497,-2.4497,0.0,0.0,0.0,0.0,0.0,0.0,0.0,0.0,0.0,0.0,0.0,0.0,0.0,0.0,0.0,0.0,0.0,0.0,0.0,0.0,0.0,0.0,0.0,0.0,0.0,0.0,0.0,0.0,0.0,0.0,0.0,0.0,0.0,0.0,0.0,-2.7309,-2.7309,-2.7309,-2.7309,0.0,-2.7309,-2.7309,-2.7309,-2.7309,-2.7309,-2.7309,-2.7309,-2.7309,-2.7309,-2.7309,-2.7309,-2.7309,-2.7309,-2.7309,-2.7309,-2.7309,-2.7309,-2.7309,-2.7309,-2.7309,-2.7247,-2.6884,-2.677,-2.6677,-2.621,-2.603,-2.5937,-2.5492,-2.5334,-2.5285,-2.4879,-2.4786,-2.4786,-2.4786,-2.4993,-2.5086,-2.4724,-2.4569,-2.4497,-2.4497,-2.4497,-2.4497,-2.4497,-2.4497,-2.4497,-2.4497,-2.4497,-2.4497,-2.4497,-2.4497,-2.4497,-2.4497,-2.4497,-2.4497,-2.4497,-2.4497,-2.4497,-2.4497,-2.4497,-2.4497,-2.4497,-2.4497,-2.4497,-2.4497,-2.4497,-2.4497,-2.4497,-2.4497,-2.4497,-2.4497,-2.4497,-2.4497,0.0,0.0,0.0,0.0,0.0,0.0,0.0,0.0,0.0,0.0,0.0,0.0,0.0,0.0,0.0,0.0,0.0,0.0,0.0,0.0,0.0,0.0,0.0,0.0,0.0,0.0,0.0,0.0,0.0,0.0,0.0,0.0,0.0,0.0,-2.6646,-2.6646,-2.6646,-2.6646,-2.6646,-2.6646,-2.6646,-2.6646,-2.6656,-2.7102,-2.7309,-2.7309,-2.7309,-2.7309,-2.7309,-2.7309,-2.7309,-2.7309,-2.7309,-2.7164,-2.6978,-2.6978,-2.6832,-2.6646,-2.6646,-2.6646,-2.6604,-2.6366,-2.6283,-2.62,-2.5709,-2.5564,-2.5471,-2.4983,-2.4859,-2.4797,-2.4559,-2.4497,-2.4497,-2.4497,-2.4683,-2.4797,-2.4549,-2.4497,-2.4497,-2.4497,-2.4497,-2.4497,-2.4497,-2.4497,-2.4497,-2.4497,-2.4497,-2.4497,-2.4497,-2.4497,-2.4497,-2.4497,-2.4497,-2.4497,-2.4497,-2.4497,-2.4497,-2.4497,-2.4497,-2.4497,-2.4497,-2.4497,-2.4497,-2.4497,-2.4497,-2.4497,-2.4497,-2.4497,-2.4497,-2.4497,-2.4497,-2.4497,0.0,0.0,0.0,0.0,0.0,0.0,0.0,0.0,0.0,0.0,0.0,0.0,0.0,0.0,0.0,0.0,0.0,0.0,0.0,0.0,0.0,0.0,0.0,0.0,0.0,0.0,0.0,0.0,0.0,0.0,0.0,0.0,-2.5875,-2.5875,-2.5875,-2.5875,-2.5875,-2.5875,-2.5875,-2.5875,-2.5875,-2.5875,-2.5951,-2.6718,-2.7071,-2.7071,-2.7071,-2.7071,-2.7071,-2.7071,-2.7071,-2.7071,-2.7071,-2.6832,-2.6501,-2.6501,-2.6252,-2.5875,-2.5875,-2.5875,-2.591,-2.5792,-2.5771,-2.5689,-2.5199,-2.5065,-2.4993,-2.4611,-2.4497,-2.4497,-2.4497,-2.4497,-2.4497,-2.4497,-2.4497,-2.4497,-2.4497,-2.4497,-2.4497,-2.4497,-2.4497,-2.4497,-2.4497,-2.4497,-2.4497,-2.4497,-2.4497,-2.4497,-2.4497,-2.4497,-2.4497,-2.4497,-2.4497,-2.4497,-2.4497,-2.4497,-2.4497,-2.4497,-2.4497,-2.4497,-2.4497,-2.4497,-2.4497,-2.4497,-2.4497,-2.4497,-2.4497,-2.4497,-2.4497,-2.4497,-2.4497,-2.4497,0.0,0.0,0.0,0.0,0.0,0.0,0.0,0.0,0.0,0.0,0.0,0.0,0.0,0.0,0.0,0.0,0.0,0.0,0.0,0.0,0.0,0.0,0.0,0.0,0.0,0.0,0.0,0.0,0.0,0.0,0.0,-2.5875,-2.5875,-2.5875,-2.5875,-2.5875,-2.5875,-2.5875,-2.5875,-2.5875,-2.5875,-2.5875,-2.5885,-2.6055,-2.6107,-2.6107,-2.6107,-2.6107,-2.6107,-2.6107,-2.6107,-2.6107,-2.6107,-2.6065,-2.5968,-2.5968,-2.5927,-2.5875,-2.5875,-2.5875,-2.5813,-2.544,-2.5272,-2.5189,-2.4735,-2.459,-2.458,-2.4518,-2.4497,-2.4497,-2.4497,-2.4497,-2.4497,-2.4497,-2.4497,-2.4497,-2.4497,-2.4497,-2.4497,-2.4497,-2.4497,-2.4497,-2.4497,-2.4497,-2.4497,-2.4497,-2.4497,-2.4497,-2.4497,-2.4497,-2.4497,-2.4497,-2.4497,-2.4497,-2.4497,-2.4497,-2.4497,-2.4497,-2.4497,-2.4497,-2.4497,-2.4497,-2.4497,-2.4497,-2.4497,-2.4497,-2.4497,-2.4497,-2.4497,-2.4497,-2.4497,-2.4497,0.0,0.0,0.0,0.0,0.0,0.0,0.0,0.0,0.0,0.0,0.0,0.0,0.0,0.0,0.0,0.0,0.0,0.0,0.0,0.0,0.0,0.0,0.0,0.0,0.0,0.0,0.0,0.0,0.0,0.0,-2.513,-2.513,-2.513,-2.513,-2.513,-2.513,-2.513,-2.513,-2.513,-2.513,-2.513,-2.513,-2.513,-2.513,-2.5399,-2.5875,-2.5875,-2.5875,-2.5875,-2.5875,-2.5875,-2.5875,-2.5875,-2.573,-2.5513,-2.5513,-2.5357,-2.513,-2.513,-2.513,-2.5099,-2.4859,-2.4797,-2.4766,-2.4559,-2.4497,-2.4497,-2.4497,-2.4497,-2.4497,-2.4497,-2.4497,-2.4497,-2.4497,-2.4497,-2.4497,-2.4497,-2.4497,-2.4497,-2.4497,-2.4497,-2.4497,-2.4497,-2.4497,-2.4497,-2.4497,-2.4497,-2.4497,-2.4497,-2.4497,-2.4497,-2.4497,-2.4497,-2.4497,-2.4497,-2.4497,-2.4497,-2.4497,-2.4497,-2.4497,-2.4497,-2.4497,-2.4497,-2.4497,-2.4497,-2.4497,-2.4497,-2.4497,-2.4497,-2.4497,-2.4497,-2.4497,0.0,0.0,0.0,0.0,0.0,0.0,0.0,0.0,0.0,0.0,0.0,0.0,0.0,0.0,0.0,0.0,0.0,0.0,0.0,0.0,0.0,0.0,0.0,0.0,0.0,0.0,0.0,0.0,0.0,0.0,-2.4497,-2.4497,-2.4497,-2.4497,-2.4497,-2.4497,-2.4497,-2.4497,-2.4497,-2.4497,-2.4497,-2.4497,-2.4497,-2.4497,-2.4859,-2.5544,-2.5544,-2.5544,-2.5544,-2.5544,-2.5544,-2.5544,-2.5544,-2.5337,-2.5013,-2.5013,-2.4797,-2.4497,-2.4497,-2.4497,-2.4497,-2.4497,-2.4497,-2.4497,-2.4497,-2.4497,-2.4497,-2.4497,-2.4497,-2.4497,-2.4497,-2.4497,-2.4497,-2.4497,-2.4497,-2.4497,-2.4497,-2.4497,-2.4497,-2.4497,-2.4497,-2.4497,-2.4497,-2.4497,-2.4497,-2.4497,-2.4497,-2.4497,-2.4497,-2.4497,-2.4497,-2.4497,-2.4497,-2.4497,-2.4497,-2.4497,-2.4497,-2.4497,-2.4497,-2.4497,-2.4497,-2.4497,-2.4497,-2.4497,-2.4497,-2.4497,-2.4497,-2.4497,-2.4497,-2.4497,-2.4497,-2.4497,0.0,0.0,0.0,0.0,0.0,0.0,0.0,0.0,0.0,0.0,0.0,0.0,0.0,0.0,0.0,0.0,0.0,0.0,0.0,0.0,0.0,0.0,0.0,0.0,0.0,0.0,0.0,0.0,0.0,0.0,-2.4497,-2.4497,-2.4497,-2.4497,-2.4497,-2.4497,-2.4497,-2.4497,-2.4497,-2.4497,-2.4497,-2.4497,-2.4497,-2.4497,-2.4528,-2.4569,-2.4569,-2.4569,-2.4569,-2.4569,-2.4569,-2.4569,-2.4569,-2.4559,-2.4538,-2.4538,-2.4518,-2.4497,-2.4497,-2.4497,-2.4497,-2.4497,-2.4497,-2.4497,-2.4497,-2.4497,-2.4497,-2.4497,-2.4497,-2.4497,-2.4497,-2.4497,-2.4497,-2.4497,-2.4497,-2.4497,-2.4497,-2.4497,-2.4497,-2.4497,-2.4497,-2.4497,-2.4497,-2.4497,-2.4497,-2.4497,-2.4497,-2.4497,-2.4497,-2.4497,-2.4497,-2.4497,-2.4497,-2.4497,-2.4497,-2.4497,-2.4497,-2.4497,-2.4497,-2.4497,-2.4497,-2.4497,-2.4497,-2.4497,-2.4497,-2.4497,-2.4497,-2.4497,-2.4497,-2.4497,-2.4497,-2.4497,0.0,0.0,0.0,0.0,0.0,0.0,0.0,0.0,0.0,0.0,0.0,0.0,0.0,0.0,0.0,0.0,0.0,0.0,0.0,0.0,0.0,0.0,0.0,0.0,0.0,0.0,0.0,0.0,0.0,0.0,-2.4497,-2.4497,-2.4497,-2.4497,-2.4497,-2.4497,-2.4497,-2.4497,-2.4497,-2.4497,-2.4497,-2.4497,-2.4497,-2.4497,-2.4497,-2.4497,-2.4497,-2.4497,-2.4497,-2.4497,-2.4497,-2.4497,-2.4497,-2.4497,-2.4497,-2.4497,-2.4497,-2.4497,-2.4497,-2.4497,-2.4497,-2.4497,-2.4497,-2.4497,-2.4497,-2.4497,-2.4497,-2.4497,-2.4497,-2.4497,-2.4497,-2.4497,-2.4497,-2.4497,-2.4497,-2.4497,-2.4497,-2.4497,-2.4497,-2.4497,-2.4497,-2.4497,-2.4497,-2.4497,-2.4497,-2.4497,-2.4497,-2.4497,-2.4497,-2.4497,-2.4497,-2.4497,-2.4497,-2.4497,-2.4497,-2.4497,-2.4497,-2.4497,-2.4497,-2.4497,-2.4497,-2.4497,-2.4497,-2.4497,-2.4497,-2.4497,-2.4497,-2.4497,-2.4497,-2.4497,-2.4497,-2.4497,0.0,0.0,0.0,0.0,0.0,0.0,0.0,0.0,0.0,0.0,0.0,0.0,0.0,0.0,0.0,0.0,0.0,0.0,0.0,0.0,0.0,0.0,0.0,0.0,0.0,0.0,0.0,0.0,0.0,0.0,-2.4497,-2.4497,-2.4497,-2.4497,-2.4497,-2.4497,-2.4497,-2.4497,-2.4497,-2.4497,-2.4497,-2.4497,-2.4497,-2.4497,-2.4497,-2.4497,-2.4497,-2.4497,-2.4497,-2.4497,-2.4497,-2.4497,-2.4497,-2.4497,-2.4497,-2.4497,-2.4497,-2.4497,-2.4497,-2.4497,-2.4497,-2.4497,-2.4497,-2.4497,-2.4497,-2.4497,-2.4497,-2.4497,-2.4497,-2.4497,-2.4497,-2.4497,-2.4497,-2.4497,-2.4497,-2.4497,-2.4497,-2.4497,-2.4497,-2.4497,-2.4497,-2.4497,-2.4497,-2.4497,-2.4497,-2.4497,-2.4497,-2.4497,-2.4497,-2.4497,-2.4497,-2.4497,-2.4497,-2.4497,-2.4497,-2.4497,-2.4497,-2.4497,-2.4497,-2.4497,-2.4497,-2.4497,-2.4497,-2.4497,-2.4497,-2.4497,-2.4497,-2.4497,-2.4497,-2.4497,-2.4497,-2.4497,0.0,0.0,0.0,0.0,0.0,0.0,0.0,0.0,0.0,0.0,0.0,0.0,0.0,0.0,0.0,0.0,0.0,0.0,0.0,0.0,0.0,0.0,0.0,0.0,0.0,0.0,0.0,0.0,0.0,-2.4497,-2.4497,-2.4497,-2.4497,-2.4497,-2.4497,-2.4497,-2.4497,-2.4497,-2.4497,-2.4497,-2.4497,-2.4497,-2.4497,-2.4497,-2.4497,-2.4497,-2.4497,-2.4497,-2.4497,-2.4497,-2.4497,-2.4497,-2.4497,-2.4497,-2.4497,-2.4497,-2.4497,-2.4497,-2.4497,-2.4497,-2.4497,-2.4497,-2.4497,-2.4497,-2.4497,-2.4497,-2.4497,-2.4497,-2.4497,-2.4497,-2.4497,-2.4497,-2.4497,-2.4497,-2.4497,-2.4497,-2.4497,-2.4497,-2.4497,-2.4497,-2.4497,-2.4497,-2.4497,-2.4497,-2.4497,-2.4497,-2.4497,-2.4497,-2.4497,-2.4497,-2.4497,-2.4497,-2.4497,-2.4497,-2.4497,-2.4497,-2.4497,-2.4497,-2.4497,-2.4497,-2.4497,-2.4497,-2.4497,-2.4497,-2.4497,-2.4487,-2.4476,-2.4487,-2.4497,-2.4497,-2.4497,-2.4497,-0.7309,0.0,0.0,0.0,0.0,0.0,0.0,0.0,0.0,0.0,0.0,0.0,0.0,0.0,0.0,0.0,0.0,0.0,0.0,0.0,0.0,0.0,0.0,0.0,0.0,0.0,0.0,0.0,-2.4497,-2.4497,-2.4497,-2.4497,-2.4497,-2.4497,-2.4497,-2.4497,-2.4497,-2.4497,-2.4497,-2.4497,-2.4497,-2.4497,-2.4497,-2.4497,-2.4497,-2.4497,-2.4497,-2.4497,-2.4497,-2.4497,-2.4497,-2.4497,-2.4497,-2.4497,-2.4497,-2.4497,-2.4497,-2.4497,-2.4497,-2.4497,-2.4497,-2.4497,-2.4497,-2.4497,-2.4497,-2.4497,-2.4497,-2.4497,-2.4497,-2.4497,-2.4497,-2.4497,-2.4497,-2.4497,-2.4497,-2.4497,-2.4497,-2.4497,-2.4497,-2.4497,-2.4497,-2.4497,-2.4497,-2.4497,-2.4497,-2.4497,-2.4497,-2.4497,-2.4497,-2.4497,-2.4497,-2.4497,-2.4497,-2.4497,-2.4497,-2.4497,-2.4497,-2.4497,-2.4497,-2.4497,-2.4497,-2.4497,-2.4497,-2.4497,-2.4497,-2.4342,-2.4064,-2.4342,-2.4497,-2.4497,-2.4497,-2.4497,0.0,0.0,0.0,0.0,0.0,0.0,0.0,0.0,0.0,0.0,0.0,0.0,0.0,0.0,0.0,0.0,0.0,0.0,0.0,0.0,0.0,0.0,0.0,0.0,0.0,0.0,0.0,0.0,-2.3981,-2.4022,-2.425,-2.426,-2.4353,-2.4487,-2.4497,-2.4497,-2.4497,-2.4497,-2.4497,-2.4497,-2.4497,-2.4497,-2.4497,-2.4497,-2.4497,-2.4497,-2.4497,-2.4497,-2.4497,-2.4497,-2.4497,-2.4497,-2.4497,-2.4497,-2.4497,-2.4497,-2.4497,-2.4497,-2.4497,-2.4497,-2.4497,-2.4497,-2.4497,-2.4497,-2.4497,-2.4497,-2.4497,-2.4497,-2.4497,-2.4497,-2.4497,-2.4497,-2.4497,-2.4497,-2.4497,-2.4497,-2.4497,-2.4497,-2.4497,-2.4497,-2.4497,-2.4497,-2.4497,-2.4497,-2.4497,-2.4497,-2.4497,-2.4497,-2.4497,-2.4497,-2.4497,-2.4497,-2.4497,-2.4497,-2.4497,-2.4497,-2.4497,-2.4497,-2.4497,-2.4497,-2.4497,-2.4497,-2.4414,-2.4271,-2.426,-2.4043,-2.3588,-2.4043,-2.4167,-2.3981,-2.4178,-2.4115,-0.8816,-0.8919,0.0,0.0,0.0,0.0,0.0,-1.1319,0.0,0.0,0.0,0.0,0.0,0.0,0.0,0.0,0.0,0.0,0.0,0.0,0.0,0.0,0.0,0.0,0.0,0.0,-2.308,-2.3184,-2.3184,-2.337,-2.3815,-2.3805,-2.3981,-2.4332,-2.4404,-2.4425,-2.4425,-2.4476,-2.4497,-2.4497,-2.4497,-2.4497,-2.4497,-2.4497,-2.4497,-2.4497,-2.4497,-2.4497,-2.4497,-2.4497,-2.4497,-2.4497,-2.4497,-2.4497,-2.4497,-2.4497,-2.4497,-2.4497,-2.4497,-2.4497,-2.4497,-2.4497,-2.4497,-2.4497,-2.4497,-2.4497,-2.4497,-2.4497,-2.4497,-2.4497,-2.4497,-2.4497,-2.4497,-2.4497,-2.4497,-2.4497,-2.4497,-2.4497,-2.4497,-2.4497,-2.4497,-2.4497,-2.4497,-2.4497,-2.4497,-2.4497,-2.4497,-2.4497,-2.4497,-2.4497,-2.4497,-2.4497,-2.4497,-2.4497,-2.4497,-2.4497,-2.4497,-2.4497,-2.4497,-2.4476,-2.4425,-2.4425,-2.426,-2.3805,-2.3753,-2.3525,-2.3111,-2.3577,-2.3588,-2.3194,-2.3649,-2.3588,-1.0273,-1.0536,-1.0812,0.0,0.0,0.0,0.0,-1.0044,0.0,0.0,0.0,0.0,0.0,0.0,0.0,0.0,0.0,0.0,0.0,0.0,0.0,0.0,0.0,0.0,0.0,0.0,-2.2387,-2.3132,-2.3184,-2.3225,-2.3318,-2.3318,-2.336,-2.3443,-2.3815,-2.4002,-2.4002,-2.4321,-2.4497,-2.4497,-2.4497,-2.4497,-2.4497,-2.4497,-2.4497,-2.4497,-2.4497,-2.4497,-2.4497,-2.4497,-2.4497,-2.4497,-2.4497,-2.4497,-2.4497,-2.4497,-2.4497,-2.4497,-2.4497,-2.4497,-2.4497,-2.4497,-2.4497,-2.4497,-2.4497,-2.4497,-2.4497,-2.4497,-2.4497,-2.4497,-2.4497,-2.4497,-2.4497,-2.4497,-2.4497,-2.4497,-2.4497,-2.4497,-2.4497,-2.4497,-2.4497,-2.4497,-2.4497,-2.4497,-2.4497,-2.4497,-2.4497,-2.4497,-2.4497,-2.4497,-2.4497,-2.4497,-2.4497,-2.4497,-2.4497,-2.4497,-2.4497,-2.4497,-2.4497,-2.4332,-2.4022,-2.4002,-2.3795,-2.3329,-2.2956,-2.2718,-2.2635,-2.3091,-2.3277,-2.3184,-2.3277,-2.3277,0.0,-1.1225,-1.14,-1.1031,0.0,0.0,0.0,0.0,0.0,0.0,0.0,0.0,0.0,0.0,0.0,0.0,0.0,0.0,0.0,0.0,0.0,0.0,0.0,0.0,0.0,0.0,-2.1311,-2.1776,-2.2025,-2.2252,-2.248,-2.2718,-2.2946,-2.3184,-2.3412,-2.3536,-2.3536,-2.3753,-2.3981,-2.4209,-2.4209,-2.4322,-2.4497,-2.4497,-2.4497,-2.4497,-2.4497,-2.4497,-2.4497,-2.4497,-2.4497,-2.4497,-2.4497,-2.4497,-2.4497,-2.4497,-2.4497,-2.4497,-2.4497,-2.4497,-2.4497,-2.4497,-2.4497,-2.4497,-2.4497,-2.4497,-2.4497,-2.4497,-2.4497,-2.4497,-2.4497,-2.4497,-2.4497,-2.4497,-2.4497,-2.4497,-2.4497,-2.4497,-2.4497,-2.4497,-2.4497,-2.4497,-2.4497,-2.4497,-2.4497,-2.4497,-2.4497,-2.4497,-2.4497,-2.4497,-2.4497,-2.4497,-2.4497,-2.4497,-2.4497,-2.4497,-2.4404,-2.4219,-2.4209,-2.4012,-2.3557,-2.3536,-2.3318,-2.2853,-2.2387,-2.2149,-2.2149,-2.2387,-2.2501,-2.2501,-2.2739,-2.2718,0.0,0.0,0.0,0.0,0.0,-1.1226,0.0,0.0,0.0,-1.2271,0.0,0.0,0.0,0.0,0.0,0.0,0.0,0.0,0.0,0.0,0.0,0.0,0.0,0.0,0.0,0.0,-1.9982,-2.0276,-2.0483,-2.0907,-2.1631,-2.2025,-2.2439,-2.2904,-2.3008,-2.306,-2.306,-2.3143,-2.3381,-2.3784,-2.3784,-2.3939,-2.4239,-2.4332,-2.4373,-2.4373,-2.4466,-2.4497,-2.4497,-2.4497,-2.4497,-2.4497,-2.4497,-2.4497,-2.4497,-2.4497,-2.4497,-2.4497,-2.4497,-2.4497,-2.4497,-2.4497,-2.4497,-2.4497,-2.4497,-2.4497,-2.4497,-2.4497,-2.4497,-2.4497,-2.4497,-2.4497,-2.4497,-2.4497,-2.4497,-2.4497,-2.4497,-2.4497,-2.4497,-2.4497,-2.4497,-2.4497,-2.4497,-2.4497,-2.4497,-2.4497,-2.4497,-2.4497,-2.4497,-2.4497,-2.4497,-2.4497,-2.4497,-2.4466,-2.4373,-2.4373,-2.4219,-2.3774,-2.3784,-2.3536,-2.307,-2.2967,-2.2749,-2.2366,-2.1994,-2.1807,-2.1807,-2.1807,-2.1807,-2.1818,-2.219,-2.2159,0.0,0.0,0.0,0.0,-1.2631,0.0,0.0,0.0,-1.0845,-1.0439,0.0,0.0,0.0,0.0,0.0,0.0,0.0,0.0,0.0,0.0,0.0,0.0,0.0,0.0,0.0,0.0,0.0,-1.9782,-1.916,-1.9427,-2.1104,-2.1238,-2.1487,-2.1952,-2.2356,-2.2573,-2.2573,-2.2977,-2.3215,-2.3267,-2.3267,-2.3287,-2.335,-2.3764,-2.395,-2.3971,-2.4332,-2.4497,-2.4497,-2.4497,-2.4497,-2.4497,-2.4497,-2.4497,-2.4497,-2.4497,-2.4497,-2.4497,-2.4497,-2.4497,-2.4497,-2.4497,-2.4497,-2.4497,-2.4497,-2.4497,-2.4497,-2.4497,-2.4497,-2.4497,-2.4497,-2.4497,-2.4497,-2.4497,-2.4497,-2.4497,-2.4497,-2.4497,-2.4497,-2.4497,-2.4497,-2.4497,-2.4497,-2.4497,-2.4497,-2.4497,-2.4497,-2.4497,-2.4497,-2.4497,-2.4497,-2.4497,-2.4497,-2.4342,-2.3991,-2.395,-2.3753,-2.3298,-2.3267,-2.306,-2.2594,-2.218,-2.1932,-2.189,-2.1828,-2.1807,-2.1807,-2.1807,-2.1807,-2.1807,-2.1859,-2.1859,0.0,0.0,0.0,0.0,0.0,0.0,0.0,0.0,-1.0729,0.0,0.0,0.0,0.0,0.0,0.0,0.0,0.0,0.0,0.0,0.0,0.0,0.0,0.0,0.0,0.0,0.0,0.0,0.0,0.0,-1.8164,-1.9458,-2.0276,-2.0928,-2.1393,-2.1859,-2.2097,-2.2097,-2.2294,-2.2522,-2.278,-2.278,-2.2925,-2.3194,-2.3391,-2.3474,-2.3484,-2.367,-2.3753,-2.3753,-2.3753,-2.3753,-2.3753,-2.3753,-2.4032,-2.4497,-2.4497,-2.4497,-2.4497,-2.4497,-2.4497,-2.4497,-2.4497,-2.4497,-2.4497,-2.4497,-2.4497,-2.4497,-2.4497,-2.4497,-2.4497,-2.4497,-2.4497,-2.4497,-2.4497,-2.4497,-2.4497,-2.4497,-2.4497,-2.4497,-2.4497,-2.4497,-2.4497,-2.4497,-2.4497,-2.4497,-2.4497,-2.4497,-2.4497,-2.4497,-2.4497,-2.4497,-2.4497,-2.427,-2.4084,-2.3898,-2.3629,-2.3277,-2.2811,-2.2532,-2.2294,-2.2097,-2.1901,-2.1807,-2.1807,-2.1807,-2.1807,-2.1807,-2.1807,-2.1807,-2.1807,-2.1807,-2.1807,-1.2973,0.0,0.0,0.0,0.0,0.0,0.0,0.0,0.0,0.0,0.0,0.0,0.0,0.0,0.0,0.0,0.0,0.0,0.0,0.0,0.0,0.0,0.0,0.0,0.0,0.0,0.0,0.0,0.0,0.0,-1.8133,-1.9251,-2.0193,-2.0907,-2.1373,-2.1683,-2.1807,-2.1807,-2.1973,-2.2304,-2.2304,-2.248,-2.2811,-2.2946,-2.2998,-2.3008,-2.3132,-2.3184,-2.3184,-2.3184,-2.3184,-2.3184,-2.3184,-2.3588,-2.4125,-2.4125,-2.428,-2.4476,-2.4363,-2.4394,-2.4497,-2.4497,-2.4497,-2.4497,-2.4497,-2.4497,-2.4497,-2.4497,-2.4497,-2.4497,-2.4497,-2.4497,-2.4497,-2.4497,-2.4497,-2.4497,-2.4497,-2.4497,-2.4497,-2.4497,-2.4497,-2.4497,-2.4497,-2.4497,-2.4497,-2.4497,-2.4497,-2.4497,-2.4497,-2.4497,-2.4456,-2.4332,-2.4074,-2.3815,-2.3525,-2.3194,-2.2801,-2.2335,-2.1994,-2.1807,-2.1807,-2.1807,-2.1807,-2.1807,-2.1807,-2.1807,-2.1807,-2.1807,-2.1807,-2.1807,-2.1807,-2.1807,0.0,0.0,0.0,-1.2289,0.0,0.0,0.0,0.0,-1.13,0.0,0.0,0.0,0.0,0.0,0.0,-1.1398,0.0,0.0,0.0,0.0,0.0,0.0,0.0,0.0,0.0,0.0,0.0,0.0,0.0,0.0,-1.7575,-1.8185,-1.9065,-2.0364,-2.0897,-2.1352,-2.1797,-2.1807,-2.1818,-2.1828,-2.1828,-2.1838,-2.1859,-2.2315,-2.2522,-2.2542,-2.2987,-2.3184,-2.3184,-2.3184,-2.3184,-2.3184,-2.3184,-2.3205,-2.3225,-2.3225,-2.3784,-2.4435,-2.4043,-2.4178,-2.4497,-2.4497,-2.4497,-2.4497,-2.4497,-2.4497,-2.4497,-2.4497,-2.4497,-2.4497,-2.4497,-2.4497,-2.4497,-2.4497,-2.4497,-2.4497,-2.4497,-2.4497,-2.4497,-2.4497,-2.4497,-2.4497,-2.4497,-2.4497,-2.4497,-2.4497,-2.4497,-2.4497,-2.4497,-2.4497,-2.4332,-2.395,-2.3929,-2.3515,-2.2615,-2.2532,-2.2325,-2.1859,-2.1818,-2.1807,-2.1807,-2.1807,-2.1807,-2.1807,-2.1807,-2.1807,-2.1807,-2.1807,-2.1807,-2.1807,-2.1807,-2.1807,0.0,0.0,-1.368,-1.2639,0.0,0.0,0.0,0.0,0.0,0.0,0.0,0.0,0.0,0.0,0.0,-1.1888,0.0,0.0,0.0,0.0,0.0,0.0,0.0,0.0,0.0,0.0,0.0,0.0,0.0,0.0,0.0,-1.7378,-1.8433,-1.9499,-2.0565,-2.1186,-2.1352,-2.1652,-2.1807,-2.1807,-2.1807,-2.1807,-2.1818,-2.1963,-2.2035,-2.2056,-2.2201,-2.2273,-2.2273,-2.2273,-2.2273,-2.2273,-2.2273,-2.2459,-2.277,-2.308,-2.3381,-2.3629,-2.3474,-2.3525,-2.3639,-2.3639,-2.3846,-2.4105,-2.4105,-2.4312,-2.4497,-2.4497,-2.4497,-2.4497,-2.4497,-2.4497,-2.4497,-2.4497,-2.4497,-2.4497,-2.4497,-2.4497,-2.4497,-2.4497,-2.4497,-2.4497,-2.4497,-2.4302,-2.4105,-2.4105,-2.4105,-2.3991,-2.3691,-2.3639,-2.3588,-2.3432,-2.3153,-2.2832,-2.2522,-2.2211,-2.1973,-2.1818,-2.1807,-2.1807,-2.1807,-2.1807,-2.1807,-2.1807,-2.1807,-2.1807,-2.1807,-2.1807,-2.1807,-2.1807,-2.1807,-2.1807,-1.3807,-1.3942,0.0,-1.3012,-1.2781,0.0,-1.1416,0.0,0.0,0.0,0.0,0.0,0.0,0.0,0.0,-1.1954,-1.1554,0.0,0.0,0.0,0.0,0.0,0.0,0.0,0.0,0.0,-1.2079,-1.2722,0.0,0.0,0.0,0.0,-1.7667,-1.8568,-1.9924,-2.0793,-2.1114,-2.1414,-2.1642,-2.1807,-2.1807,-2.1807,-2.1807,-2.1807,-2.1807,-2.1807,-2.1807,-2.1807,-2.1807,-2.1807,-2.1807,-2.1807,-2.1807,-2.1983,-2.2294,-2.2584,-2.2801,-2.2967,-2.3132,-2.3184,-2.3184,-2.3184,-2.3391,-2.3629,-2.3629,-2.3836,-2.4022,-2.4022,-2.4022,-2.4022,-2.4022,-2.4022,-2.4022,-2.4022,-2.4188,-2.4312,-2.4312,-2.4383,-2.4456,-2.429,-2.4312,-2.4208,-2.4084,-2.3815,-2.3691,-2.3857,-2.3743,-2.3525,-2.3225,-2.3184,-2.3122,-2.2956,-2.2677,-2.2428,-2.2263,-2.1973,-2.1807,-2.1807,-2.1807,-2.1807,-2.1807,-2.1807,-2.1807,-2.1807,-2.1807,-2.1807,-2.1807,-2.1807,-2.1807,-2.1807,-2.1807,-2.1807]},{"header":{"parameterUnit":"m.s-1","parameterCategory":1,"la1":30.6,"la2":29.2853,"lo1":-89.7004,"lo2":-87.6739,"dy":0.0162,"dx":0.0183,"nx":112,"ny":82,"refTime":"2024-07-31T06:00:00:Z","depth":0,"parameterNumber":3,"parameterNumberName":"V-component_of_WINDS"},"data":[0.0,0.0,0.0,0.0,0.0,0.0,0.0,0.0,0.0,0.0,0.0,0.0,0.0,0.0,0.0,0.0,0.0,0.0,0.0,0.0,0.0,0.0,0.0,0.0,0.0,0.0,0.0,0.0,0.0,0.0,0.0,0.0,0.0,0.0,0.0,0.0,0.0,0.0,0.0,0.0,0.0,0.0,0.0,0.0,0.0,0.0,0.0,0.0,0.0,0.0,0.0,0.0,0.0,0.0,0.0,0.0,0.0,0.0,0.0,0.0,0.0,0.0,0.0,0.0,0.0,0.0,0.0,0.0,0.0,0.0,0.0,0.0,0.0,0.0,0.0,0.0,0.0,0.0,0.0,0.0,0.0,0.0,0.0,0.0,0.0,0.0,0.0,0.0,0.0,0.0,0.0,-2.5303,-2.8637,-3.0641,-3.0743,-2.9958,-2.8116,-2.5013,0.0,0.0,0.0,0.0,0.0,0.0,0.0,0.0,0.0,0.0,0.0,0.0,0.0,0.0,0.0,0.0,0.0,0.0,0.0,0.0,0.0,0.0,0.0,0.0,0.0,0.0,0.0,0.0,0.0,0.0,0.0,0.0,0.0,0.0,0.0,0.0,0.0,0.0,0.0,0.0,0.0,0.0,0.0,0.0,0.0,0.0,0.0,0.0,0.0,0.0,0.0,0.0,0.0,0.0,0.0,0.0,0.0,0.0,0.0,0.0,0.0,0.0,0.0,0.0,0.0,0.0,0.0,0.0,0.0,0.0,0.0,0.0,0.0,0.0,0.0,0.0,0.0,0.0,0.0,0.0,0.0,0.0,0.0,0.0,0.0,0.0,0.0,0.0,0.0,0.0,0.0,0.0,0.0,0.0,0.0,0.0,0.0,0.0,0.0,0.0,0.0,0.0,0.0,0.0,-2.3136,-2.9101,-3.0249,-3.083,-3.1322,-2.9798,-2.7721,-2.5052,0.0,0.0,0.0,0.0,0.0,0.0,0.0,0.0,0.0,0.0,0.0,0.0,0.0,0.0,0.0,0.0,0.0,0.0,0.0,0.0,0.0,0.0,0.0,0.0,0.0,0.0,0.0,0.0,0.0,0.0,0.0,0.0,0.0,0.0,0.0,0.0,0.0,0.0,0.0,0.0,0.0,0.0,0.0,0.0,0.0,0.0,0.0,0.0,0.0,0.0,0.0,0.0,0.0,0.0,0.0,0.0,0.0,0.0,0.0,0.0,0.0,0.0,0.0,0.0,0.0,0.0,0.0,0.0,0.0,0.0,0.0,0.0,0.0,0.0,0.0,0.0,0.0,0.0,0.0,0.0,0.0,0.0,0.0,0.0,0.0,0.0,0.0,0.0,0.0,0.0,0.0,0.0,0.0,0.0,0.0,0.0,0.0,0.0,0.0,0.0,0.0,0.0,0.0,-2.196,-2.4853,-2.9566,-3.0364,-3.0714,-3.0988,-2.961,-2.7592,-2.5023,-2.1546,0.0,0.0,0.0,0.0,0.0,0.0,0.0,0.0,0.0,0.0,0.0,0.0,0.0,0.0,0.0,0.0,0.0,0.0,0.0,0.0,0.0,0.0,0.0,0.0,0.0,0.0,0.0,0.0,0.0,0.0,0.0,0.0,0.0,0.0,0.0,0.0,0.0,0.0,0.0,0.0,0.0,0.0,0.0,0.0,0.0,0.0,0.0,0.0,0.0,0.0,0.0,0.0,0.0,0.0,0.0,0.0,0.0,0.0,0.0,0.0,0.0,0.0,0.0,0.0,0.0,0.0,0.0,0.0,0.0,0.0,0.0,0.0,0.0,0.0,0.0,0.0,0.0,0.0,0.0,0.0,0.0,0.0,0.0,0.0,0.0,0.0,0.0,0.0,0.0,0.0,0.0,0.0,0.0,0.0,0.0,0.0,0.0,0.0,0.0,0.0,0.0,0.0,-2.4617,-2.6434,-2.9523,-3.0277,-3.0598,-3.0598,-2.9014,-2.7026,-2.4723,-2.0767,0.0,0.0,0.0,0.0,0.0,0.0,0.0,0.0,0.0,0.0,0.0,0.0,0.0,0.0,0.0,0.0,0.0,0.0,0.0,0.0,0.0,0.0,0.0,0.0,0.0,0.0,0.0,0.0,0.0,0.0,0.0,0.0,0.0,0.0,0.0,0.0,0.0,0.0,0.0,0.0,0.0,0.0,0.0,0.0,0.0,0.0,0.0,0.0,0.0,0.0,0.0,0.0,0.0,0.0,0.0,0.0,0.0,0.0,0.0,0.0,0.0,0.0,0.0,0.0,0.0,0.0,0.0,0.0,0.0,0.0,0.0,0.0,0.0,0.0,0.0,0.0,0.0,0.0,0.0,0.0,0.0,0.0,0.0,0.0,0.0,0.0,0.0,0.0,0.0,0.0,0.0,0.0,0.0,0.0,0.0,0.0,0.0,0.0,0.0,0.0,0.0,0.0,-2.5139,-2.7636,-3.0263,-3.0583,-3.0598,-3.0598,-2.7779,-2.5425,-2.4036,-1.9274,0.0,0.0,0.0,0.0,0.0,0.0,0.0,0.0,0.0,0.0,0.0,0.0,0.0,0.0,0.0,0.0,0.0,0.0,0.0,0.0,0.0,0.0,0.0,0.0,0.0,0.0,0.0,0.0,0.0,0.0,0.0,0.0,0.0,0.0,0.0,0.0,0.0,0.0,0.0,0.0,0.0,0.0,0.0,0.0,0.0,0.0,0.0,0.0,0.0,0.0,0.0,0.0,0.0,0.0,0.0,0.0,0.0,0.0,0.0,0.0,0.0,0.0,0.0,0.0,0.0,0.0,0.0,0.0,0.0,0.0,0.0,0.0,0.0,0.0,0.0,0.0,0.0,0.0,0.0,0.0,0.0,0.0,0.0,0.0,0.0,0.0,0.0,0.0,0.0,0.0,0.0,0.0,0.0,0.0,0.0,0.0,0.0,0.0,0.0,0.0,0.0,0.0,-2.45,-2.6907,0.0,-3.0598,-3.0438,-3.0016,-2.8144,-2.5963,-2.3547,0.0,0.0,0.0,0.0,0.0,0.0,0.0,0.0,0.0,0.0,0.0,0.0,0.0,0.0,0.0,0.0,0.0,0.0,0.0,0.0,0.0,0.0,0.0,0.0,0.0,0.0,0.0,0.0,0.0,0.0,0.0,0.0,0.0,0.0,0.0,0.0,0.0,0.0,0.0,0.0,0.0,0.0,0.0,0.0,0.0,0.0,0.0,0.0,0.0,0.0,0.0,0.0,0.0,0.0,0.0,0.0,0.0,0.0,0.0,0.0,0.0,0.0,0.0,0.0,0.0,0.0,0.0,0.0,0.0,0.0,0.0,0.0,0.0,0.0,0.0,0.0,0.0,0.0,0.0,0.0,0.0,0.0,0.0,0.0,0.0,0.0,0.0,0.0,0.0,0.0,0.0,0.0,0.0,0.0,0.0,0.0,0.0,0.0,0.0,0.0,0.0,0.0,-2.2323,-2.4592,-2.7012,0.0,-3.0642,-3.038,-2.9653,-2.7952,-2.5794,-2.3069,0.0,0.0,0.0,0.0,0.0,0.0,0.0,0.0,0.0,0.0,0.0,0.0,0.0,0.0,0.0,0.0,0.0,0.0,0.0,0.0,0.0,0.0,0.0,0.0,0.0,0.0,0.0,0.0,0.0,0.0,0.0,0.0,0.0,0.0,0.0,0.0,0.0,0.0,0.0,0.0,0.0,0.0,0.0,0.0,0.0,0.0,0.0,0.0,0.0,0.0,0.0,0.0,0.0,0.0,0.0,0.0,0.0,0.0,0.0,0.0,0.0,0.0,0.0,0.0,0.0,0.0,0.0,0.0,0.0,0.0,0.0,0.0,0.0,0.0,0.0,0.0,0.0,0.0,0.0,0.0,0.0,0.0,0.0,0.0,0.0,0.0,0.0,0.0,0.0,0.0,0.0,0.0,0.0,0.0,0.0,0.0,0.0,0.0,0.0,0.0,0.0,0.0,-2.2519,-2.5723,-2.8463,-3.0409,-3.0732,-3.0469,-2.9668,-2.6967,-2.4502,0.0,0.0,0.0,0.0,0.0,0.0,0.0,0.0,0.0,0.0,0.0,0.0,0.0,0.0,0.0,0.0,0.0,0.0,0.0,0.0,0.0,0.0,0.0,0.0,0.0,0.0,0.0,0.0,0.0,0.0,0.0,0.0,0.0,0.0,0.0,0.0,0.0,0.0,0.0,0.0,0.0,0.0,0.0,0.0,0.0,0.0,0.0,0.0,0.0,0.0,0.0,0.0,0.0,0.0,0.0,0.0,0.0,0.0,0.0,0.0,0.0,0.0,0.0,0.0,0.0,0.0,0.0,0.0,0.0,0.0,0.0,0.0,0.0,0.0,0.0,0.0,0.0,0.0,0.0,0.0,0.0,0.0,0.0,0.0,0.0,0.0,0.0,0.0,0.0,0.0,0.0,0.0,0.0,0.0,0.0,0.0,0.0,0.0,0.0,0.0,0.0,0.0,0.0,0.0,-2.6163,-2.87,-3.072,-3.0984,-3.0529,-2.9341,-2.763,-2.5248,-2.201,0.0,0.0,0.0,0.0,0.0,0.0,0.0,0.0,0.0,0.0,0.0,0.0,0.0,0.0,0.0,0.0,0.0,0.0,0.0,0.0,0.0,0.0,0.0,0.0,0.0,0.0,0.0,0.0,0.0,0.0,0.0,0.0,0.0,0.0,0.0,0.0,0.0,0.0,0.0,0.0,0.0,0.0,0.0,0.0,0.0,0.0,0.0,0.0,0.0,0.0,0.0,0.0,0.0,0.0,0.0,0.0,0.0,0.0,0.0,0.0,0.0,0.0,0.0,0.0,0.0,0.0,0.0,0.0,0.0,0.0,0.0,0.0,0.0,0.0,0.0,0.0,0.0,0.0,0.0,0.0,0.0,0.0,0.0,0.0,0.0,0.0,0.0,0.0,0.0,0.0,0.0,0.0,0.0,0.0,0.0,0.0,0.0,0.0,0.0,0.0,0.0,0.0,-2.3904,-2.6754,-2.9117,-3.0896,-3.1132,-3.0732,-2.9597,-2.8423,-2.6238,-2.2682,0.0,0.0,0.0,0.0,0.0,0.0,0.0,0.0,0.0,0.0,0.0,0.0,0.0,0.0,0.0,0.0,0.0,0.0,0.0,0.0,0.0,0.0,0.0,0.0,0.0,0.0,0.0,0.0,0.0,0.0,0.0,0.0,0.0,0.0,0.0,0.0,0.0,0.0,0.0,0.0,0.0,0.0,0.0,0.0,0.0,0.0,0.0,0.0,0.0,0.0,0.0,0.0,0.0,0.0,0.0,0.0,0.0,0.0,0.0,0.0,0.0,0.0,0.0,0.0,0.0,0.0,0.0,0.0,0.0,0.0,0.0,0.0,0.0,0.0,0.0,0.0,0.0,0.0,0.0,0.0,0.0,0.0,0.0,0.0,0.0,0.0,0.0,0.0,0.0,0.0,0.0,0.0,0.0,0.0,0.0,0.0,0.0,0.0,0.0,0.0,0.0,0.0,-2.4465,-2.7424,-2.9698,-3.0999,-3.1292,-3.1068,-3.0285,-2.9271,-2.7349,-2.4249,0.0,0.0,0.0,0.0,0.0,0.0,0.0,0.0,0.0,0.0,0.0,0.0,0.0,0.0,0.0,0.0,0.0,0.0,0.0,0.0,0.0,0.0,0.0,0.0,0.0,0.0,0.0,0.0,0.0,0.0,0.0,0.0,0.0,0.0,0.0,0.0,0.0,0.0,0.0,0.0,0.0,0.0,0.0,0.0,0.0,0.0,0.0,0.0,0.0,0.0,0.0,0.0,0.0,0.0,0.0,0.0,0.0,0.0,0.0,0.0,-2.3333,0.0,0.0,0.0,0.0,0.0,0.0,0.0,0.0,0.0,0.0,0.0,0.0,0.0,0.0,0.0,0.0,0.0,0.0,0.0,0.0,0.0,0.0,0.0,0.0,0.0,0.0,0.0,0.0,0.0,0.0,0.0,0.0,0.0,0.0,0.0,0.0,0.0,0.0,0.0,0.0,0.0,-2.5278,-2.8171,-3.0274,-3.1303,-3.1866,-3.1873,-3.1185,-2.9965,-2.8071,-2.5321,0.0,0.0,0.0,0.0,0.0,0.0,0.0,0.0,0.0,0.0,0.0,0.0,0.0,0.0,0.0,0.0,0.0,0.0,0.0,0.0,0.0,0.0,0.0,0.0,0.0,0.0,0.0,0.0,0.0,0.0,0.0,0.0,0.0,0.0,0.0,0.0,0.0,0.0,0.0,0.0,0.0,0.0,0.0,0.0,0.0,0.0,0.0,0.0,0.0,0.0,0.0,0.0,0.0,0.0,0.0,0.0,0.0,0.0,0.0,0.0,0.0,-2.5811,0.0,0.0,0.0,0.0,0.0,0.0,0.0,0.0,0.0,0.0,0.0,0.0,0.0,0.0,0.0,0.0,0.0,0.0,0.0,0.0,0.0,0.0,0.0,0.0,0.0,0.0,0.0,0.0,0.0,0.0,0.0,0.0,0.0,0.0,0.0,0.0,0.0,0.0,0.0,0.0,-2.5876,-2.8402,-3.0289,-3.139,-3.1783,-3.183,-3.148,-3.0232,-2.8642,-2.6649,-2.3396,0.0,0.0,0.0,0.0,0.0,0.0,0.0,0.0,0.0,0.0,0.0,0.0,0.0,0.0,0.0,0.0,0.0,0.0,0.0,0.0,0.0,0.0,0.0,0.0,0.0,0.0,0.0,0.0,0.0,0.0,0.0,0.0,0.0,0.0,0.0,0.0,0.0,0.0,0.0,0.0,0.0,0.0,0.0,0.0,0.0,0.0,0.0,0.0,0.0,0.0,0.0,0.0,0.0,-3.2727,-3.3626,-3.4973,-3.4973,-3.5278,-3.5616,-3.216,-3.0858,-3.0934,0.0,0.0,0.0,0.0,0.0,0.0,0.0,0.0,0.0,0.0,0.0,0.0,0.0,0.0,0.0,0.0,0.0,0.0,0.0,0.0,0.0,0.0,0.0,0.0,0.0,-3.1738,-3.1273,0.0,0.0,0.0,0.0,0.0,0.0,0.0,0.0,0.0,0.0,0.0,0.0,-2.6651,-2.891,-3.0588,-3.1688,-3.1796,-3.1796,-3.1796,-3.0639,-2.9346,-2.7991,-2.5535,-2.3359,0.0,0.0,0.0,0.0,0.0,0.0,0.0,0.0,0.0,0.0,0.0,0.0,0.0,0.0,0.0,0.0,0.0,0.0,0.0,0.0,0.0,0.0,0.0,0.0,0.0,0.0,0.0,0.0,0.0,0.0,0.0,0.0,-1.8053,-1.9734,0.0,0.0,0.0,0.0,0.0,0.0,0.0,0.0,0.0,0.0,0.0,0.0,0.0,0.0,-3.1149,-3.4158,-3.5897,-3.6284,-3.8043,-3.9138,-3.9625,-3.9625,-3.9674,-3.9722,-3.9156,0.0,-3.3354,-3.2848,0.0,0.0,0.0,0.0,0.0,0.0,0.0,0.0,0.0,0.0,0.0,0.0,0.0,0.0,0.0,0.0,0.0,0.0,0.0,0.0,0.0,0.0,-3.4419,-3.3916,-3.4775,-3.5217,0.0,-2.9966,-2.6836,-2.5021,0.0,0.0,0.0,0.0,0.0,0.0,0.0,0.0,-2.8334,-3.0935,-3.2666,-3.2961,-3.2986,-3.2986,-3.2986,-3.1847,-3.058,-2.9248,-2.7285,-2.591,-2.5232,-2.2325,0.0,0.0,0.0,0.0,0.0,0.0,0.0,0.0,0.0,0.0,0.0,0.0,0.0,0.0,0.0,0.0,0.0,0.0,0.0,0.0,0.0,0.0,0.0,0.0,0.0,0.0,0.0,0.0,0.0,-1.754,-2.0452,-2.1232,-2.1738,-2.1808,0.0,0.0,0.0,0.0,0.0,0.0,0.0,0.0,0.0,-3.1627,-3.3641,-3.5138,-3.6082,-3.7931,-3.9317,-4.0153,-4.1028,-4.196,-4.2909,-4.2909,-4.2909,-4.2909,-4.2909,-4.1326,-3.8576,-3.655,-3.4177,-3.1672,0.0,0.0,0.0,0.0,-3.0733,-3.104,-3.3291,-3.4052,0.0,0.0,0.0,0.0,0.0,0.0,0.0,0.0,0.0,0.0,0.0,0.0,0.0,-3.6536,-3.7061,-3.7332,-3.6784,-3.4833,-3.2351,0.0,-2.8613,-2.7093,-2.293,0.0,0.0,0.0,0.0,0.0,-2.8854,-3.0525,-3.1758,-3.2195,-3.2228,-3.2228,-3.2228,-3.174,-3.086,-2.9583,-2.8337,-2.7206,-2.6336,-2.4569,-2.2748,0.0,0.0,0.0,0.0,0.0,0.0,0.0,0.0,0.0,0.0,0.0,0.0,0.0,0.0,0.0,0.0,0.0,0.0,0.0,0.0,0.0,0.0,0.0,0.0,0.0,0.0,0.0,0.0,-2.0501,-2.2941,-2.3276,-2.4869,-2.5412,0.0,0.0,0.0,0.0,0.0,0.0,-3.1452,-3.2732,-3.4127,-3.5687,-3.7508,-3.904,-4.027,-4.116,-4.2132,-4.3153,-4.3153,-4.3751,-4.4787,-4.4787,-4.4787,-4.4787,-4.4787,-4.4172,-4.2926,-3.99,-3.7404,-3.538,-3.4311,-3.3145,-3.2295,-3.4093,-3.4758,-3.5065,-3.7339,-3.8132,-3.7873,-3.6254,0.0,-3.3518,-3.1364,0.0,0.0,0.0,0.0,-3.355,-3.5493,-3.6432,-3.7096,-3.8149,-3.8391,-3.8391,-3.8391,-3.8066,-3.675,0.0,-3.3096,-3.196,-2.7349,0.0,0.0,0.0,0.0,-2.9493,-3.0335,-3.1029,-3.1688,-3.2359,-3.2127,-3.1866,-3.1754,-3.1537,-3.0892,-2.9678,-2.8982,-2.8152,-2.7061,-2.6523,-2.5045,-2.2468,0.0,0.0,0.0,0.0,0.0,0.0,0.0,0.0,0.0,0.0,0.0,0.0,0.0,0.0,0.0,0.0,0.0,0.0,0.0,0.0,0.0,0.0,0.0,0.0,0.0,0.0,0.0,0.0,0.0,-2.7022,-2.9557,0.0,0.0,0.0,0.0,-3.0581,-3.1996,-3.3744,-3.5866,-3.7307,-3.8715,-4.0124,-4.1567,-4.2376,-4.2441,-4.3881,-4.4609,-4.469,-4.469,-4.4723,-4.4787,-4.4787,-4.4787,-4.4787,-4.4787,-4.4755,-4.4561,-4.2975,-4.1112,-3.923,-3.9088,-3.8602,-3.8068,-3.889,-3.9181,-3.9295,-4.0059,-4.0335,-4.0318,-4.0205,-3.8343,-3.6108,-3.5979,-3.4505,0.0,0.0,-3.5509,-3.6432,-3.7857,-3.8262,-3.8311,-3.8375,-3.8391,-3.8391,-3.8391,-3.8488,-3.8084,0.0,-3.5163,-3.3787,-3.2334,0.0,-3.0969,-3.0638,-3.1765,-3.2994,-3.3915,-3.4033,-3.4259,-3.4832,-3.3831,-3.2922,-3.2398,-3.1767,-3.0892,-2.9678,-2.9387,-2.8931,-2.8249,-2.7588,-2.6904,-2.6249,-2.3072,0.0,0.0,0.0,0.0,0.0,0.0,0.0,0.0,0.0,0.0,0.0,0.0,0.0,0.0,0.0,0.0,0.0,0.0,0.0,0.0,0.0,0.0,0.0,0.0,0.0,0.0,0.0,0.0,-3.0019,-3.1967,0.0,0.0,-3.2619,-3.3802,-3.4917,-3.6384,-3.7966,-3.9635,-4.061,-4.1535,-4.2537,-4.3508,-4.4026,-4.4026,-4.4528,-4.5014,-4.5435,-4.5435,-4.5694,-4.6131,-4.6131,-4.6131,-4.6131,-4.6131,-4.5872,-4.5403,-4.4885,-4.3702,-4.2197,-4.2197,-4.1468,-4.0494,-4.0753,-4.085,-4.0818,-4.0577,-4.0804,-4.1142,-4.0642,-3.9816,-3.8991,-3.8991,-3.8456,-3.7901,-3.7966,-3.8177,-3.8359,-3.8391,-3.8391,-3.8391,-3.8391,-3.8464,-3.8548,-3.8548,-3.8683,-3.8712,-3.8204,-3.7265,-3.6029,-3.4317,-3.4517,-3.4317,-3.2546,-3.3836,-3.5019,-3.5022,-3.4976,-3.4856,-3.4611,-3.3873,-3.3259,-3.2926,-3.1993,-3.0852,-2.9551,-2.8983,-2.8205,-2.6995,-2.7058,-2.6469,-2.5106,-2.4714,-2.2539,0.0,0.0,0.0,0.0,0.0,0.0,0.0,0.0,0.0,0.0,0.0,0.0,0.0,0.0,0.0,0.0,0.0,0.0,0.0,0.0,0.0,0.0,0.0,0.0,0.0,0.0,-3.1467,-3.2386,-3.4526,-3.5542,-3.4603,-3.6011,-3.7469,-3.8667,-3.9865,-4.1047,-4.226,-4.2974,-4.3573,-4.4059,-4.4755,-4.5144,-4.5144,-4.537,-4.5726,-4.6164,-4.6164,-4.6423,-4.6876,-4.6876,-4.6876,-4.6876,-4.6876,-4.6601,-4.6164,-4.6164,-4.5613,-4.4739,-4.4269,-4.3492,-4.2681,-4.2681,-4.2681,-4.2584,-4.184,-4.1727,-4.1857,-4.1371,-4.1047,-4.0853,-4.0853,-4.0691,-4.0399,-3.9975,-3.9862,-3.9654,-3.8958,-3.8764,-3.8699,-3.8456,-3.8504,-3.8588,-3.8588,-3.8821,-3.8996,-3.8996,-3.858,-3.7834,-3.6597,-3.7083,-3.6983,-3.5059,-3.5819,-3.6541,-3.6418,-3.5647,-3.5146,-3.5286,-3.4376,-3.3633,-3.3341,-3.2259,-3.1005,-2.9572,-2.8733,-2.7775,-2.6596,-2.6598,-2.602,-2.469,-2.519,-2.357,-1.9736,0.0,0.0,0.0,0.0,0.0,0.0,0.0,0.0,0.0,0.0,0.0,0.0,0.0,0.0,0.0,0.0,0.0,0.0,0.0,0.0,0.0,0.0,0.0,-2.9794,-3.2345,-3.4214,-3.4295,-3.7388,-3.8974,-3.7587,-3.9347,-4.0869,-4.1644,-4.231,-4.2991,-4.3735,-4.4431,-4.4836,-4.4852,-4.55,-4.5856,-4.5872,-4.6568,-4.6925,-4.6957,-4.6957,-4.6957,-4.6957,-4.6957,-4.6957,-4.6957,-4.6957,-4.6941,-4.6909,-4.6909,-4.6909,-4.6747,-4.5386,-4.4836,-4.482,-4.482,-4.4804,-4.469,-4.3962,-4.3217,-4.2635,-4.2602,-4.2164,-4.1628,-4.1628,-4.1112,-4.0545,-4.0529,-4.0529,-4.0367,-3.9716,-3.9538,-3.936,-3.8602,-3.8537,-3.8649,-3.8632,-3.8821,-3.8996,-3.8996,-3.8996,-3.9077,-3.9272,-3.9148,-3.8843,-3.8407,-3.7822,0.0,-3.8222,-3.6117,-3.5278,-3.7116,-3.5484,-3.4073,-3.3612,-3.2622,-3.1323,-2.9723,-2.8643,-2.7776,-2.7226,-2.6389,-2.5803,-2.5518,-2.4539,-2.3473,-2.2309,0.0,0.0,0.0,0.0,0.0,0.0,0.0,0.0,0.0,0.0,0.0,0.0,0.0,0.0,0.0,0.0,0.0,0.0,0.0,0.0,0.0,0.0,-3.3712,-3.3671,-3.5257,-3.6999,-3.8553,-3.9606,-4.0464,-4.1065,-4.1664,-4.2553,-4.38,-4.4091,-4.4496,-4.5192,-4.5419,-4.5759,-4.6293,-4.6488,-4.6844,-4.7394,-4.7605,-4.7945,-4.8431,-4.8431,-4.8431,-4.8431,-4.8431,-4.8431,-4.8431,-4.8431,-4.8155,-4.7702,-4.7702,-4.7378,-4.6878,-4.6455,-4.5986,-4.5532,-4.5532,-4.5208,-4.469,-4.3962,-4.3589,-4.3298,-4.2764,-4.2473,-4.2342,-4.2342,-4.2166,-4.1907,-4.1419,-4.1304,-4.1142,-4.0399,-4.0221,-4.0073,-3.9491,-3.9455,-3.9432,-3.8991,-3.9067,-3.9218,-3.9218,-3.9218,-3.9245,-3.9299,-3.9245,-3.9175,-3.905,-3.8479,0.0,-3.8278,-3.7313,-3.6762,-3.718,-3.6362,-3.5669,-3.5337,-3.3382,-3.1559,0.0,-2.8062,-2.697,-2.7187,-2.6923,-2.7244,-2.8273,-2.5847,-2.4745,0.0,0.0,0.0,0.0,0.0,0.0,0.0,0.0,0.0,0.0,0.0,0.0,0.0,0.0,0.0,0.0,0.0,0.0,0.0,0.0,0.0,0.0,-3.4311,-3.6837,-3.7755,-3.8311,-3.9217,-4.0785,-4.1209,-4.184,-4.2942,-4.3331,-4.3994,-4.5127,-4.5208,-4.5516,-4.6212,-4.6552,-4.6925,-4.7346,-4.7637,-4.7993,-4.8431,-4.8431,-4.8589,-4.8994,-4.8994,-4.8994,-4.8994,-4.8994,-4.8994,0.0,-4.8994,-4.8767,-4.8414,-4.8123,-4.7751,0.0,0.0,0.0,0.0,0.0,-4.5824,-4.516,-4.4739,-4.4399,-4.4043,-4.3282,-4.3055,-4.2991,-4.2683,-4.2602,-4.2522,-4.2132,-4.2019,-4.1857,-4.1128,-4.098,-4.0802,-4.0193,-3.996,-3.9799,-3.9456,-3.9335,-3.9299,-3.9299,0.0,0.0,-3.9299,-3.9299,-3.9202,-3.8925,-3.8562,-3.8306,-3.8306,-3.7764,-3.7475,-3.7644,-3.6889,-3.6294,-3.6172,-3.4195,0.0,0.0,0.0,-2.7736,-2.7171,-2.7729,0.0,0.0,0.0,0.0,0.0,0.0,0.0,0.0,-2.6488,-2.6954,0.0,0.0,0.0,0.0,0.0,0.0,0.0,0.0,0.0,0.0,0.0,0.0,0.0,0.0,0.0,0.0,-3.7242,-3.9412,-4.1336,-4.116,-4.1096,-4.1774,-4.2375,-4.3023,-4.3864,-4.4528,-4.5192,-4.5872,-4.6002,-4.6326,-4.6973,0.0,0.0,0.0,0.0,-4.9026,-4.9107,-4.9107,-4.9155,-4.9236,-4.9236,-4.9236,-4.9236,-4.9236,-4.9236,-4.9236,-4.9236,-4.9188,-4.9058,-4.8495,-4.8155,-4.7945,-4.7184,-4.6876,-4.6876,-4.6876,-4.6488,-4.5905,-4.584,0.0,0.0,-4.4059,-4.3783,-4.3589,-4.291,-4.2667,-4.2602,-4.2602,-4.2602,-4.2457,-4.1857,-4.1725,-4.1561,-4.0848,-4.0368,-4.0029,-3.9975,-3.9622,-3.9299,-3.9299,-3.9299,-3.9299,-3.9299,-3.9299,-3.9094,-3.849,-3.8351,-3.8306,-3.8306,-3.7764,-3.7618,-3.8222,0.0,0.0,-3.6486,-3.5129,-3.3976,-3.3319,-3.1487,-2.9603,-2.7735,-2.9038,-2.9712,-2.953,-3.0277,-3.1178,-3.2194,-3.2646,-3.3286,-3.3938,-2.9962,-2.9586,0.0,0.0,0.0,0.0,0.0,0.0,0.0,0.0,0.0,0.0,0.0,0.0,0.0,0.0,0.0,-3.5882,-3.8829,-4.1142,-4.1547,-4.2439,-4.3136,-4.3281,-4.3411,-4.401,-4.5273,-4.5516,-4.5905,-4.6617,-4.7249,-4.7653,-4.7783,-4.8447,0.0,-4.8819,-4.8913,-4.9305,-4.9888,-4.9888,-5.0196,-5.0762,0.0,0.0,-5.0762,-5.0762,-5.0762,-5.0762,-5.0762,-5.0438,-4.9888,-4.9758,-4.903,-4.7945,-4.7184,-4.6876,-4.6876,-4.6876,-4.6795,-4.6585,-4.6002,-4.5726,-4.55,-4.4804,-4.4188,-4.3686,-4.3541,-4.3055,0.0,-4.2602,-4.2602,-4.257,-4.2424,-4.2533,-4.2509,-4.1863,-4.1307,-4.0823,-4.0387,-3.9758,-3.9299,-3.9299,-3.9299,-3.9299,-3.9299,-3.9299,-3.9272,-3.9121,-3.8662,-3.8306,-3.8306,-3.7764,-3.7618,-3.8222,-3.808,-3.7689,-3.7097,-3.6201,-3.4978,-3.3314,-3.2323,-3.1619,-3.1146,-3.1906,-3.249,-3.2869,-3.2112,-3.2289,-3.3459,-3.3752,-3.448,-3.5528,-3.3497,-3.3497,0.0,0.0,0.0,0.0,0.0,0.0,0.0,0.0,0.0,0.0,0.0,-3.1568,0.0,0.0,-3.7371,-3.914,-4.095,-4.2359,-4.3119,-4.38,-4.4107,-4.3751,-4.4334,-4.503,-4.5726,-4.6131,-4.6649,-4.7394,-4.7799,-4.8155,-4.846,-4.9192,-4.9564,-4.9564,-4.992,-5.0276,-5.0649,-5.0649,-5.0827,-5.1183,-5.1183,-5.1183,-5.1183,-5.1183,-5.1183,-5.1183,-5.1183,-5.0973,-5.0617,-5.026,-4.9273,-4.7977,-4.7589,-4.7216,-4.6876,-4.6876,-4.6876,-4.6828,-4.6471,-4.6342,-4.6228,-4.5532,-4.5046,-4.4625,-4.3913,-4.3428,-4.3055,-4.2699,-4.2602,-4.2634,-4.2728,-4.2837,-4.2833,-4.2624,-4.2121,-4.1576,-4.0937,-4.0293,-3.9746,-3.9381,-3.9299,-3.9299,-3.9299,-3.9299,-3.9175,-3.8843,-3.8799,-3.8689,-3.8334,-3.8339,-3.8339,-3.8306,-3.8306,-3.8149,-3.7765,-3.7389,-3.6456,-3.4813,-3.4662,-3.4374,-3.379,-3.4576,-3.5021,-3.5013,-3.4702,-3.4864,-3.5446,-3.5589,-3.6148,-3.7085,-3.6357,-3.6406,0.0,0.0,0.0,0.0,0.0,0.0,0.0,0.0,-3.0064,-3.304,-3.4117,-3.5218,-3.7517,-3.8634,-3.9978,-4.223,-4.2829,-4.3428,-4.4625,-4.4787,-4.4577,-4.3994,-4.503,-4.5856,-4.6002,-4.6536,-4.72,-4.7945,-4.8123,-4.8512,-4.9192,-4.992,-5.0309,-5.0309,-5.0876,-5.1183,-5.1183,-5.1183,-5.1183,-5.1183,-5.1183,-5.1183,-5.1183,-5.1183,-5.1183,-5.1183,-5.1183,-5.1183,-5.1118,-5.039,-4.9434,-4.8382,-4.8123,-4.7637,-4.7087,-4.6941,-4.6876,-4.6876,-4.6876,-4.6876,-4.6795,-4.6212,-4.5921,-4.5565,-4.4302,-4.3816,-4.3557,-4.2797,-4.2602,-4.2634,-4.2837,-4.293,-4.2976,-4.3113,-4.2739,-4.2149,-4.1408,-4.0795,-4.0194,-3.9448,-3.9299,-3.9299,-3.9299,-3.9299,-3.9121,-3.859,-3.8952,-3.9104,-3.8562,-3.8969,-3.9077,-3.8562,-3.849,-3.8435,-3.8322,-3.8025,-3.7425,-3.6453,-3.6708,-3.6565,-3.5769,-3.6617,-3.6865,-3.6368,-3.6865,-3.7168,-3.7317,-3.7317,-3.7698,-3.8411,-3.8411,-3.8427,-2.5805,-2.7102,-2.8747,-3.0775,-3.0817,-3.1738,0.0,0.0,-3.6114,-3.8958,-3.9606,-3.9768,-4.0075,-4.1241,-4.223,-4.2554,-4.3719,-4.4609,-4.4771,-4.4787,-4.4755,-4.469,-4.5338,-4.605,-4.6698,-4.6828,-4.72,-4.7945,-4.8541,-4.9224,-4.9953,-5.0681,-5.107,-5.107,-5.1135,-5.1183,-5.1183,-5.1183,-5.1183,-5.1183,-5.1183,-5.1183,-5.1183,-5.1183,-5.1183,-5.1183,-5.1183,-5.1183,-5.1118,-5.039,-5.0017,-4.9742,-4.8495,-4.7961,-4.7799,-4.7135,-4.6876,-4.6876,-4.6876,-4.6876,-4.6911,-4.6795,-4.6326,-4.5662,-4.4901,-4.4221,-4.3557,-4.2797,-4.2602,-4.2634,-4.2837,-4.2976,-4.3113,-4.3312,-4.2901,-4.2262,-4.1546,-4.0862,-4.0194,-3.9448,-3.9299,-3.9299,-3.9299,-3.9299,-3.9272,-3.9202,-3.9245,-3.9272,-3.9202,-3.9245,-3.9272,-3.9218,-3.9175,-3.8969,-3.8351,-3.7198,-3.6697,-3.7046,-3.6529,-3.6401,-3.6882,-3.7026,-3.7077,-3.6984,-3.7077,-3.7433,-3.8096,-3.8096,-3.846,-3.9183,-3.9183,-3.9236,-3.0788,0.0,0.0,0.0,-3.5509,-3.6416,-3.8408,-3.8489,-3.8715,-4.0737,-4.1158,-4.1241,-4.1662,-4.2538,-4.3363,0.0,-4.4723,-4.5532,-4.5953,-4.5646,-4.5386,-4.5386,-4.5273,-4.5484,-4.618,-4.6261,-4.6909,-4.8443,-4.8832,-4.9515,-5.0681,-5.1021,-5.1183,-5.1183,-5.1183,-5.1183,-5.1183,-5.1183,-5.1183,-5.1183,-5.1183,-5.1183,-5.1183,-5.1183,-5.1183,-5.1183,-5.1183,-5.1183,-5.1205,-5.0859,-5.0487,-5.0001,-4.8997,-4.835,-4.7929,-4.7168,-4.6876,-4.6876,-4.6876,-4.6876,-4.6876,-4.6876,-4.6682,-4.6228,-4.5127,-4.4577,-4.4107,-4.2926,-4.2665,-4.279,-4.2976,-4.3143,-4.3312,-4.3479,-4.332,-4.2804,-4.1645,-4.1193,-4.0647,-3.9514,-3.9299,-3.9299,-3.9299,-3.9299,-3.9299,-3.9299,-3.9299,-3.9299,-3.9299,-3.9299,-3.9299,-3.9299,-3.9299,-3.9175,-3.8898,-3.8373,-3.8139,-3.84,-3.8148,-3.8091,-3.8361,-3.8377,-3.8377,-3.8377,-3.8377,-3.851,-3.8825,-3.8825,-3.9017,-3.9299,-3.9299,-3.9379,-3.342,0.0,0.0,-3.7177,-3.8991,-4.0156,-3.9444,-3.9994,-4.0885,-4.1695,-4.1742,-4.1758,-4.2245,-4.2894,0.0,-4.4383,-4.5225,-4.605,-4.6779,-4.6099,-4.5516,-4.5516,-4.4739,-4.4544,-4.5435,-4.5694,-4.6698,-4.8832,-4.8994,-4.9645,-5.1102,-5.1183,-5.1183,-5.1183,-5.1183,-5.1183,-5.1183,-5.1183,-5.1183,-5.1183,-5.1183,-5.1183,-5.1183,-5.1183,-5.1183,-5.1183,-5.1183,-5.1183,-5.1183,-5.1183,-5.0876,-5.0309,-4.9386,-4.8686,-4.8171,-4.7232,-4.6876,-4.6876,-4.6876,-4.6876,-4.6876,-4.6876,-4.6876,-4.6651,-4.5225,-4.4787,-4.448,-4.3007,-4.2696,-4.2852,-4.3052,-4.3204,-4.3372,-4.3568,-4.3598,-4.3251,-4.1976,-4.1529,-4.1044,-3.9846,-3.9448,-3.9299,-3.9299,-3.9299,-3.9299,-3.9299,-3.9299,-3.9299,-3.9299,-3.9299,-3.9299,-3.9299,-3.9299,-3.9299,-3.9299,-3.9121,-3.9094,-3.9299,-3.9121,-3.9121,-3.9299,-3.9299,-3.9299,-3.9299,-3.9299,-3.9299,-3.9299,-3.9299,-3.9299,-3.9299,-3.9299,-3.9352,0.0,0.0,-3.7376,-3.8165,-4.0434,-4.2311,-4.1677,-4.2569,-4.3395,-4.2699,-4.2051,-4.1612,-4.1628,-4.218,-4.2861,-4.3622,-4.4901,-4.605,-4.6779,-4.5694,-4.482,-4.482,-4.3541,-4.3233,0.0,-4.5419,-4.6698,-4.8832,-4.8994,-4.9645,-5.1102,-5.1183,-5.1183,-5.1183,-5.1183,-5.1183,-5.1183,-5.1183,-5.1183,-5.1183,-5.1183,-5.1183,-5.1183,-5.1183,-5.1183,-5.1183,-5.1183,-5.1183,-5.1183,-5.1183,-5.1167,-5.1005,-4.958,-4.8977,-4.8783,-4.741,-4.6876,-4.6876,-4.6876,-4.6876,-4.6876,-4.6876,-4.6876,-4.6651,-4.5225,-4.4787,-4.448,-4.3007,-4.2602,-4.268,-4.3021,-4.3096,-4.3204,-4.3522,-4.3598,-4.3383,-4.2622,-4.1893,-4.121,-4.0509,-3.9796,-3.9299,-3.9299,-3.9299,-3.9299,-3.9299,-3.9299,-3.9299,-3.9299,-3.9299,-3.9299,-3.9299,-3.9299,-3.9299,-3.9299,-3.8701,-3.8618,-3.9272,-3.8689,-3.8618,-3.9272,-3.9299,-3.9299,-3.9299,-3.9299,-3.9299,-3.9299,-3.9299,-3.9299,-3.9299,-3.9299,-3.9299,0.0,0.0,-3.9719,-4.0871,-4.2634,-4.3881,-4.3152,-4.3362,-4.3379,-4.218,-4.1774,-4.145,-4.098,-4.1436,-4.231,-4.3524,-4.4512,-4.5548,-4.6714,-4.6067,-4.5305,-4.4852,-4.4366,0.0,0.0,0.0,0.0,-4.8155,-4.835,-4.8965,-5.039,-5.0924,-5.1183,-5.1183,-5.1183,-5.1183,-5.1183,-5.1183,-5.1183,-5.1183,-5.1183,-5.1183,-5.1183,-5.1183,-5.1183,-5.1183,-5.1183,-5.1183,-5.1183,-5.1183,-5.1183,-5.1038,-4.9596,-4.8994,-4.8816,-4.741,-4.6876,-4.6876,-4.6876,-4.6876,-4.6876,-4.6876,-4.6876,-4.6651,-4.5225,-4.4787,-4.4529,-4.3181,-4.2852,-4.299,-4.3251,-4.3372,-4.3462,-4.3568,-4.3598,-4.34,-4.2655,-4.2307,-4.1789,-4.0641,-4.021,-3.9879,-3.9381,-3.9299,-3.9299,-3.9299,-3.9299,-3.9299,-3.9299,-3.9299,-3.9299,-3.9299,-3.9299,-3.9299,-3.9299,-3.9077,-3.905,-3.9299,-3.9094,-3.905,-3.9299,-3.9299,-3.9299,-3.9299,-3.9299,-3.9299,-3.9299,-3.9299,-3.9299,-3.9299,-3.9299,-3.9299,0.0,-3.98,-4.095,-4.2909,-4.4107,-4.4609,-4.3881,-4.3508,-4.2925,-4.1484,-4.0607,-3.9914,-3.9444,-3.9541,-4.0318,-4.2245,-4.3379,-4.4609,-4.6261,-4.6099,-4.5743,-4.5565,-4.5305,0.0,0.0,0.0,0.0,-4.8188,-4.8609,-4.9273,-5.0422,-5.0924,-5.1183,-5.1183,-5.1183,-5.1183,-5.1183,-5.1183,-5.1183,-5.1183,-5.1183,-5.1183,-5.1183,-5.1183,-5.1183,-5.1183,-5.1183,-5.1183,-5.1183,-5.1183,-5.1183,-5.1038,-4.9596,-4.8994,-4.8816,-4.741,-4.6876,-4.6876,-4.6876,-4.6876,-4.6876,-4.6876,-4.6876,-4.6651,-4.5225,-4.4787,-4.4529,-4.3244,-4.2945,-4.3099,-4.3342,-4.3462,-4.3539,-4.3598,-4.3598,-4.3466,-4.2986,-4.2688,-4.217,-4.0978,-4.0575,-4.0177,-3.9431,-3.9299,-3.9299,-3.9299,-3.9299,-3.9299,-3.9299,-3.9299,-3.9299,-3.9299,-3.9299,-3.9299,-3.9299,-3.9299,-3.9299,-3.9299,-3.9299,-3.9299,-3.9299,-3.9299,-3.9299,-3.9299,-3.9299,-3.9299,-3.9299,-3.9299,-3.9299,-3.9299,-3.9299,-3.9299,-3.9978,-4.0658,-4.1419,-4.4123,-4.482,-4.4642,-4.3832,-4.3072,-4.2101,-4.0594,-3.8651,-3.7134,0.0,0.0,-3.7145,-3.9881,-4.1599,-4.3347,-4.5548,-4.5888,-4.6164,0.0,0.0,0.0,0.0,0.0,0.0,-4.8981,0.0,-5.0374,-5.1086,-5.1167,-5.1183,-5.1183,-5.1183,-5.1183,-5.1183,-5.1183,-5.1183,-5.1183,-5.1183,-5.1183,-5.1183,-5.1183,-5.1183,-5.1183,-5.1183,-5.1183,-5.1183,-5.1183,-5.1183,-5.1054,-4.9629,-4.901,-4.8816,-4.7459,-4.6909,-4.6876,-4.6876,-4.6876,-4.6876,-4.6876,-4.6876,-4.6651,-4.5225,-4.4787,-4.4545,-4.3275,-4.293,-4.2992,-4.3328,-4.3402,-4.3432,-4.3568,-4.3598,-4.3598,-4.3598,-4.3035,-4.2324,-4.1595,-4.0878,-4.0177,-3.9431,-3.9299,-3.9299,-3.9299,-3.9299,-3.9299,-3.9299,-3.9299,-3.9299,-3.9299,-3.9299,-3.9299,-3.9299,-3.9299,-3.9299,-3.9299,-3.9299,-3.9299,-3.9299,-3.9299,-3.9299,-3.9299,-3.9299,-3.9299,-3.9299,-3.9299,-3.9299,-3.9299,-3.9299,-3.9299,-4.0899,-4.2844,-4.4512,-4.4739,-4.5176,-4.5079,-4.3282,-4.2359,-4.0998,-3.7987,-3.6497,-3.5072,-3.2927,0.0,0.0,-3.7841,-4.0628,0.0,-4.6228,-4.7087,0.0,0.0,0.0,-4.8155,-4.8026,-4.8787,0.0,0.0,-4.9499,-4.9613,-5.0341,-5.0892,-5.1183,-5.1183,-5.1183,-5.1183,-5.1183,-5.1183,-5.1183,-5.1183,-5.1183,-5.1183,-5.1183,-5.1183,-5.1183,-5.1183,-5.1183,-5.1183,-5.1183,-5.1183,-5.1183,-5.1086,-5.0179,-4.9499,-4.888,-4.8042,-4.7362,-4.6876,-4.6876,-4.6876,-4.6876,-4.6876,-4.6876,-4.6651,-4.5225,-4.487,-4.4675,-4.3399,-4.316,-4.3328,-4.3509,-4.3539,-4.3568,-4.3598,-4.3598,-4.3598,-4.3598,-4.3449,-4.3085,-4.2357,-4.1226,-4.0177,-3.9431,-3.9299,-3.9299,-3.9299,-3.9299,-3.9299,-3.9299,-3.9299,-3.9299,-3.9299,-3.9299,-3.9299,-3.9299,-3.9299,-3.9299,-3.9299,-3.9299,-3.9299,-3.9299,-3.9299,-3.9299,-3.9299,-3.9299,-3.9299,-3.9299,-3.9299,-3.9299,-3.9299,-3.9299,-3.9299,-4.2958,-4.4593,-4.571,-4.5322,-4.5063,-4.4253,-4.1808,-4.0221,-3.8246,-3.4683,-3.3113,0.0,0.0,0.0,0.0,0.0,0.0,0.0,-4.5176,-4.6941,-4.8123,0.0,-4.9078,0.0,-4.9418,-5.0115,-5.0584,0.0,-5.0196,-5.0147,-5.0552,-5.0973,-5.1183,-5.1183,-5.1183,-5.1183,-5.1183,-5.1183,-5.1183,-5.1183,-5.1183,-5.1183,-5.1183,-5.1183,-5.1183,-5.1183,0.0,-5.1183,-5.1183,-5.1183,-5.1183,-5.107,-5.0034,-4.937,-4.8864,-4.788,-4.7249,-4.6911,-4.6996,-4.703,-4.703,-4.6927,-4.6876,-4.6716,-4.5681,-4.5212,-4.4805,-4.3947,-4.3558,-4.3432,-4.3568,-4.3598,-4.3598,-4.3598,-4.3598,-4.3598,-4.3598,-4.3598,-4.3284,-4.2208,-4.1143,-4.0177,-3.9431,-3.9299,-3.9299,-3.9299,-3.9299,-3.9299,-3.9299,-3.9299,-3.9299,-3.9299,-3.9299,-3.9299,-3.9299,-3.9299,-3.9299,-3.9299,-3.9299,-3.9299,-3.9299,-3.9299,-3.9299,-3.9299,-3.9299,-3.9299,-3.9299,-3.9299,-3.9299,-3.9299,-3.9299,-3.9299,-4.5144,-4.5807,-4.5905,-4.571,-4.469,-4.2925,-3.9881,-3.7549,-3.4975,-3.1244,0.0,0.0,-2.7284,0.0,-3.1309,-3.3469,0.0,-4.1823,-4.3605,-4.6164,-4.8188,-4.9026,-4.9807,-5.0487,-5.1118,-5.1183,-5.1183,-5.1183,-5.1183,-5.1183,-5.1183,-5.1183,-5.1183,-5.1183,-5.1183,-5.1183,-5.1183,-5.1183,-5.1183,-5.1183,-5.1183,-5.1183,-5.1183,-5.1183,-5.1183,-5.1183,0.0,0.0,-5.1183,-5.1183,-5.1183,-5.1054,-4.9694,-4.9111,-4.8868,-4.7594,-4.7042,-4.6961,-4.7183,-4.7251,-4.7217,-4.6996,-4.6961,-4.685,-4.6156,-4.5538,-4.4967,-4.4496,-4.3897,-4.3432,-4.3568,-4.3598,-4.3598,-4.3598,-4.3598,-4.3598,-4.3598,-4.3598,-4.3151,-4.1707,-4.0928,-4.0276,-3.9448,-3.9299,-3.9299,-3.9299,-3.9299,-3.9299,-3.9299,-3.9299,-3.9299,-3.9299,-3.9299,-3.9299,-3.9299,-3.9299,-3.9299,-3.9299,-3.9299,-3.9299,-3.9299,-3.9299,-3.9299,-3.9299,-3.9299,-3.9299,-3.9299,-3.9299,-3.9299,-3.9299,-3.9299,-3.9299,-4.4706,-4.5807,-4.6423,-4.5257,-4.4334,-4.265,-3.8618,-3.6027,0.0,0.0,0.0,-2.5762,-2.4468,-2.6931,0.0,-3.2028,0.0,0.0,0.0,0.0,-4.7783,0.0,0.0,0.0,0.0,0.0,0.0,0.0,0.0,0.0,-5.1183,-5.1183,-5.1183,-5.1183,-5.1183,-5.1183,-5.1183,-5.1183,-5.1183,-5.1183,-5.1183,-5.1183,-5.1183,-5.1183,-5.1183,-5.1183,0.0,0.0,-5.1183,-5.1183,-5.1183,-5.114,-5.0444,-4.9673,-4.8952,-4.8425,-4.7774,-4.7183,-4.7369,-4.7436,-4.7403,-4.7217,-4.7251,-4.7107,-4.5636,-4.5293,-4.517,-4.3932,-4.3561,-4.3568,-4.3598,-4.3598,-4.3598,-4.3598,-4.3598,-4.3598,-4.3598,-4.3598,-4.3151,-4.1707,-4.1309,-4.0829,-3.9531,-3.9299,-3.9299,-3.9299,-3.9299,-3.9299,-3.9299,-3.9299,-3.9299,-3.9299,-3.9299,-3.9299,-3.9299,-3.9299,-3.9299,-3.9299,-3.9299,-3.9299,-3.9299,-3.9299,-3.9299,-3.9299,-3.9299,-3.9299,-3.9299,-3.9299,-3.9299,-3.9299,-3.9299,-3.9299,-4.4917,-4.5548,-4.5532,-4.4496,-4.312,-4.0723,-3.5704,0.0,0.0,0.0,0.0,-2.3608,-2.2556,0.0,0.0,0.0,0.0,0.0,0.0,0.0,0.0,0.0,0.0,0.0,0.0,0.0,0.0,0.0,0.0,0.0,-5.1221,-5.1312,-5.135,-5.135,-5.135,-5.135,-5.135,-5.1258,-5.1183,-5.1183,-5.1183,-5.1183,-5.1183,-5.1183,-5.1183,-5.1183,-5.1183,0.0,-5.1221,-5.1296,-5.1122,-5.0753,-5.0203,-4.9469,-4.87,-4.8171,-4.7715,-4.7403,-4.7554,-4.7588,-4.7588,-4.7471,-4.7487,-4.7307,-4.616,-4.5682,-4.5283,-4.4351,-4.385,-4.3598,-4.3598,-4.3598,-4.3598,-4.3598,-4.3598,-4.3598,-4.3598,-4.3598,-4.3267,-4.2175,-4.1645,-4.1077,-4.0061,-3.9547,-3.9299,-3.9299,-3.9299,-3.9299,-3.9299,-3.9299,-3.9299,-3.9299,-3.9299,-3.9299,-3.9299,-3.9299,-3.9299,-3.9299,-3.9299,-3.9299,-3.9299,-3.9299,-3.9299,-3.9299,-3.9299,-3.9299,-3.9299,-3.9299,-3.9299,-3.9299,-3.9299,-3.9299,-4.4674,-4.4965,-4.4577,-4.3702,-4.197,-3.9007,-3.3307,-3.0804,0.0,0.0,0.0,-2.2037,-2.1601,0.0,0.0,0.0,0.0,0.0,0.0,0.0,0.0,0.0,0.0,0.0,0.0,0.0,0.0,0.0,0.0,0.0,0.0,-5.1499,-5.1573,-5.1573,-5.1499,-5.1499,-5.1499,-5.1312,-5.1183,-5.1183,-5.1221,-5.1221,-5.1183,-5.1221,-5.1221,-5.1183,-5.1183,0.0,0.0,-5.1262,-5.0929,-5.0399,-4.9714,-4.9044,-4.842,-4.7833,-4.7571,-4.7571,-4.7721,-4.777,-4.7754,-4.7589,-4.7457,-4.7243,-4.6568,-4.5891,-4.5197,-4.4624,-4.4059,-4.3598,-4.3598,-4.3598,-4.3598,-4.3598,-4.3598,-4.3598,-4.3598,-4.3598,-4.3367,-4.2638,-4.1893,-4.1193,-4.0525,-3.9796,-3.9299,-3.9299,-3.9299,-3.9299,-3.9299,-3.9299,-3.9299,-3.9299,-3.9299,-3.9299,-3.9299,-3.9299,-3.9299,-3.9299,-3.9299,-3.9299,-3.9299,-3.9299,-3.9299,-3.9299,-3.9299,-3.9299,-3.9299,-3.9299,-3.9299,-3.9299,-3.9299,-3.9299,-4.2845,-4.3832,-4.4464,-4.3039,-4.1598,-3.9007,-3.3307,0.0,0.0,0.0,-2.1876,-2.1584,-2.2183,-2.3123,0.0,0.0,0.0,0.0,0.0,0.0,0.0,0.0,0.0,0.0,0.0,0.0,0.0,0.0,0.0,0.0,0.0,-5.1741,-5.1778,-5.1778,-5.161,-5.1499,-5.1499,-5.1312,-5.1183,-5.1183,-5.1387,-5.1387,-5.1221,-5.1387,-5.1387,-5.1183,0.0,0.0,0.0,-5.0762,-5.0582,-5.0549,-4.9347,-4.8705,-4.8454,-4.8101,-4.782,-4.7704,-4.7886,-4.7968,-4.7852,-4.7173,-4.6975,-4.6794,-4.5875,-4.5195,-4.4638,-4.3896,-4.3648,-4.3598,-4.3598,-4.3598,-4.3598,-4.3598,-4.3598,-4.3598,-4.3598,-4.3598,-4.3367,-4.2638,-4.1893,-4.1193,-4.0525,-3.9796,-3.9299,-3.9299,-3.9299,-3.9299,-3.9299,-3.9299,-3.9299,-3.9299,-3.9299,-3.9299,-3.9299,-3.9299,-3.9299,-3.9299,-3.9299,-3.9299,-3.9299,-3.9299,-3.9299,-3.9299,-3.9299,-3.9299,-3.9299,-3.9299,-3.9299,-3.9299,-3.9299,-3.9299,-4.202,-4.2731,-4.2715,-4.2132,-4.061,-3.7744,-3.2052,0.0,0.0,-2.262,-2.1503,-2.139,-2.1681,-2.2329,-2.3593,0.0,-2.7057,-2.9561,0.0,0.0,0.0,0.0,0.0,0.0,0.0,0.0,0.0,0.0,0.0,0.0,0.0,-5.1977,-5.1977,-5.1977,-5.1904,-5.1794,-5.1684,-5.1594,-5.1483,-5.1387,-5.1573,-5.1573,-5.1387,-5.1462,-5.1387,-5.1221,0.0,0.0,0.0,-5.0792,-5.0295,-4.9511,-4.914,-4.8645,-4.8183,-4.8034,-4.7968,-4.7886,-4.7968,-4.8001,-4.7885,-4.7139,-4.6593,-4.6096,-4.5289,-4.4873,-4.4539,-4.3797,-4.3598,-4.3598,-4.3598,-4.3598,-4.3598,-4.3598,-4.3598,-4.3598,-4.3598,-4.3598,-4.3367,-4.2638,-4.1893,-4.1193,-4.0525,-3.9796,-3.9299,-3.9299,-3.9299,-3.9299,-3.9299,-3.9299,-3.9299,-3.9299,-3.9299,-3.9299,-3.9299,-3.9299,-3.9299,-3.9299,-3.9299,-3.9299,-3.9299,-3.9299,-3.9299,-3.9299,-3.9299,-3.9299,-3.9299,-3.9299,-3.9299,-3.9299,-3.9299,-3.9299,-4.024,-4.1144,-4.1239,-4.1029,-3.9363,-3.64,0.0,0.0,-2.6247,-2.2134,-2.1293,-2.1293,-2.1293,-2.1714,-2.2604,-2.4241,-2.5308,-2.7672,-3.2692,0.0,0.0,0.0,0.0,0.0,0.0,0.0,0.0,0.0,0.0,0.0,0.0,-5.2139,-5.2175,-5.2175,-5.2139,-5.203,-5.1904,-5.1815,-5.1721,-5.1573,-5.1794,-5.1794,-5.1573,-5.1573,-5.1499,-5.1355,0.0,0.0,0.0,-5.0432,-4.9781,-4.8893,-4.8795,-4.8465,-4.8001,-4.8001,-4.8001,-4.8001,-4.8001,-4.8001,-4.7835,-4.6891,-4.6212,-4.5616,-4.4655,-4.4373,-4.4274,-4.3731,-4.3598,-4.3598,-4.3598,-4.3598,-4.3598,-4.3598,-4.3598,-4.3598,-4.3598,-4.3598,-4.3367,-4.2638,-4.1893,-4.1193,-4.0525,-3.9796,-3.9299,-3.9299,-3.9299,-3.9299,-3.9299,-3.9299,-3.9299,-3.9299,-3.9299,-3.9299,-3.9299,-3.9299,-3.9299,-3.9299,-3.9299,-3.9299,-3.9299,-3.9299,-3.9299,-3.9299,-3.9299,-3.9299,-3.9299,-3.9299,-3.9299,-3.9299,-3.9299,-3.9299,-3.6983,-3.891,-4.0335,-3.97,-3.7906,-3.5185,0.0,-2.8244,-2.5681,-2.2054,-2.1293,-2.1293,-2.1293,-2.1309,-2.2005,-2.416,-2.5729,-2.8417,-3.3388,0.0,0.0,0.0,0.0,0.0,0.0,0.0,0.0,0.0,0.0,0.0,0.0,0.0,-5.239,-5.239,-5.2211,-5.2102,-5.2102,-5.1904,-5.1778,-5.1778,-5.1977,-5.1977,-5.1794,-5.1794,-5.1794,0.0,0.0,0.0,0.0,-4.9434,-4.8926,-4.9028,-4.8299,-4.8017,-4.8001,-4.8001,-4.8001,-4.8001,-4.8001,-4.8001,-4.7769,-4.6278,-4.5798,-4.5533,-4.4045,-4.3615,-4.3615,-4.3598,-4.3598,-4.3598,-4.3598,-4.3598,-4.3598,-4.3598,-4.3598,-4.3598,-4.3598,-4.3598,-4.3367,-4.2638,-4.1893,-4.1193,-4.0525,-3.9796,-3.9299,-3.9299,-3.9299,-3.9299,-3.9299,-3.9299,-3.9299,-3.9299,-3.9299,-3.9299,-3.9299,-3.9299,-3.9299,-3.9299,-3.9299,-3.9299,-3.9299,-3.9299,-3.9299,-3.9299,-3.9299,-3.9299,-3.9299,-3.9299,-3.9299,-3.9299,-3.9299,-3.9299,-3.2538,-3.3784,-3.4522,-3.3809,-3.3105,-3.1616,-2.7834,-2.6442,-2.5047,-2.194,-2.1293,-2.1293,-2.1293,-2.1293,-2.2329,-2.5486,-2.6393,0.0,0.0,0.0,0.0,0.0,0.0,0.0,0.0,0.0,0.0,0.0,0.0,0.0,0.0,0.0,-5.2409,-5.2409,-5.2354,-5.2247,-5.2102,-5.2158,-5.2122,-5.203,-5.2211,-5.2194,-5.203,-5.203,0.0,0.0,0.0,0.0,0.0,-4.9141,-4.8746,-4.8332,-4.81,-4.8001,-4.8001,-4.8001,-4.8001,-4.8001,-4.8001,-4.7669,-4.709,-4.6113,-4.545,-4.4854,-4.388,-4.3598,-4.3598,-4.3598,-4.3598,-4.3598,-4.3598,-4.3598,-4.3598,-4.3598,-4.3598,-4.3598,-4.3598,-4.3598,-4.3234,-4.2005,-4.1574,-4.1028,-3.9862,-3.9448,-3.9299,-3.9299,-3.9299,-3.9299,-3.9299,-3.9299,-3.9299,-3.9299,-3.9299,-3.9299,-3.9299,-3.9299,-3.9299,-3.9299,-3.9299,-3.9299,-3.9299,-3.9299,-3.9299,-3.9299,-3.9299,-3.9299,-3.9299,-3.9299,-3.9299,-3.9299,-3.9299,-3.9299,0.0,-3.0441,-3.1089,-3.0635,-3.0095,-2.8963,-2.6228,-2.5195,-2.4142,-2.1779,-2.1293,-2.1293,-2.1293,-2.1293,-2.2215,-2.5033,-2.6166,0.0,0.0,0.0,0.0,0.0,0.0,0.0,0.0,0.0,0.0,0.0,0.0,0.0,0.0,0.0,-5.2409,-5.2409,-5.2409,-5.2354,-5.2211,-5.2354,-5.2354,-5.2211,-5.2354,-5.2205,-5.1798,-5.1726,0.0,0.0,0.0,0.0,0.0,-4.8729,-4.8415,-4.8001,-4.8001,-4.8001,-4.8001,-4.8001,-4.8001,-4.7968,-4.7686,-4.7272,-4.6725,-4.5715,-4.4887,-4.4208,-4.3731,-4.3598,-4.3598,-4.3598,-4.3598,-4.3598,-4.3598,-4.3598,-4.3598,-4.3598,-4.3598,-4.3598,-4.3598,-4.3598,-4.3151,-4.1707,-4.1409,-4.0961,-3.9547,-3.9299,-3.9299,-3.9299,-3.9299,-3.9299,-3.9299,-3.9299,-3.9299,-3.9299,-3.9299,-3.9299,-3.9299,-3.9299,-3.9299,-3.9299,-3.9299,-3.9299,-3.9299,-3.9299,-3.9299,-3.9299,-3.9299,-3.9299,-3.9299,-3.9299,-3.9299,-3.9299,-3.9299,-3.9299,0.0,-2.8292,-2.9345,-2.9297,-2.8308,-2.6976,-2.5597,-2.4321,0.0,-2.1584,-2.1293,-2.1358,-2.1568,-2.1471,-2.1989,-2.3804,0.0,0.0,0.0,0.0,0.0,0.0,0.0,0.0,0.0,0.0,0.0,0.0,0.0,0.0,0.0,0.0,0.0,-5.2224,-5.2224,-5.2274,-5.2409,-5.2359,-5.2343,-5.2343,-5.2293,-5.186,-5.1197,-5.1039,0.0,0.0,0.0,0.0,0.0,-4.8282,-4.8001,-4.8001,-4.8001,-4.8001,-4.8001,-4.8001,-4.7968,-4.7819,-4.7139,-4.6825,-4.651,-4.5069,-4.4158,-4.3598,-4.3598,-4.3598,-4.3598,-4.3598,-4.3598,-4.3598,-4.3598,-4.3598,-4.3598,-4.3598,-4.3598,-4.3598,-4.3598,-4.3598,-4.3151,-4.1707,-4.1409,-4.0961,-3.9547,-3.9299,-3.9299,-3.9299,-3.9299,-3.9299,-3.9299,-3.9299,-3.9299,-3.9299,-3.9299,-3.9299,-3.9299,-3.9299,-3.9299,-3.9299,-3.9299,-3.9299,-3.9299,-3.9299,-3.9299,-3.9299,-3.9299,-3.9299,-3.9299,-3.9299,-3.9299,-3.9299,-3.9299,-3.9299,-2.2571,0.0,-2.4029,-2.3462,-2.3479,-2.3414,0.0,-2.2491,-2.2394,-2.1487,0.0,-2.1973,-2.4173,-2.3252,-2.3867,0.0,0.0,0.0,0.0,0.0,0.0,0.0,0.0,0.0,0.0,0.0,0.0,0.0,0.0,0.0,0.0,0.0,-5.0734,-5.0734,-5.0734,-5.1264,-5.2409,-5.1846,-5.1564,-5.1564,-5.0982,-5.0634,-5.0469,-5.04,0.0,0.0,0.0,0.0,-4.8249,-4.8084,-4.8001,-4.8001,-4.8001,-4.8001,-4.8001,-4.8001,-4.7636,-4.7123,-4.6957,-4.6146,-4.5052,-4.4158,-4.3731,-4.3598,-4.3598,-4.3598,-4.3598,-4.3598,-4.3598,-4.3598,-4.3598,-4.3598,-4.3598,-4.3598,-4.3598,-4.3598,-4.3598,-4.3598,-4.3151,-4.1707,-4.1409,-4.0961,-3.9547,-3.9299,-3.9299,-3.9299,-3.9299,-3.9299,-3.9299,-3.9299,-3.9299,-3.9299,-3.9299,-3.9299,-3.9299,-3.9299,-3.9299,-3.9299,-3.9299,-3.9299,-3.9299,-3.9299,-3.9299,-3.9299,-3.9299,-3.9299,-3.9299,-3.9299,-3.9299,-3.9299,-3.9299,-3.9299,-2.084,-2.2086,-2.3268,-2.2879,-2.3058,-2.3252,-2.2863,0.0,0.0,0.0,0.0,-2.1973,-2.4223,0.0,0.0,0.0,0.0,0.0,0.0,0.0,0.0,0.0,0.0,0.0,0.0,0.0,0.0,0.0,0.0,0.0,0.0,0.0,-5.022,-5.022,-5.022,-5.0585,-5.138,-5.0982,-5.0783,-5.0783,-5.0402,-5.0038,-4.9707,-4.9707,0.0,0.0,0.0,0.0,-4.8001,-4.8001,-4.8001,-4.8001,-4.8001,-4.8001,-4.7968,-4.762,-4.7239,-4.6792,-4.6129,-4.5152,-4.4141,-4.3714,-4.3598,-4.3598,-4.3598,-4.3598,-4.3598,-4.3598,-4.3598,-4.3598,-4.3598,-4.3598,-4.3598,-4.3598,-4.3598,-4.3598,-4.3598,-4.3598,-4.3151,-4.1707,-4.1409,-4.0961,-3.9547,-3.9299,-3.9299,-3.9299,-3.9299,-3.9299,-3.9299,-3.9299,-3.9299,-3.9299,-3.9299,-3.9299,-3.9299,-3.9299,-3.9299,-3.9299,-3.9299,-3.9299,-3.9299,-3.9299,-3.9299,-3.9299,-3.9299,-3.9299,-3.9299,-3.9299,-3.9299,-3.9299,-3.9299,-3.9299,-2.0532,-2.2669,-2.4744,-2.429,-2.4338,-2.4484,-2.4371,0.0,0.0,0.0,0.0,0.0,0.0,0.0,0.0,0.0,0.0,0.0,0.0,0.0,0.0,0.0,0.0,0.0,0.0,0.0,0.0,0.0,0.0,0.0,0.0,0.0,0.0,-4.9872,-4.9872,-4.9872,-4.9872,-4.9988,-5.0038,-5.0038,-4.9939,-4.9558,-4.8945,-4.8945,-4.8597,0.0,0.0,0.0,-4.8001,-4.8001,-4.8001,-4.7984,-4.7885,-4.7835,-4.7736,-4.7007,-4.6659,-4.6361,-4.5003,-4.4125,-4.3598,-4.3598,-4.3598,-4.3598,-4.3598,-4.3598,-4.3598,-4.3598,-4.3598,-4.3598,-4.3598,-4.3598,-4.3598,-4.3598,-4.3598,-4.3598,-4.3598,-4.3598,-4.3151,-4.1707,-4.1409,-4.0961,-3.9547,-3.9299,-3.9299,-3.9299,-3.9299,-3.9299,-3.9299,-3.9299,-3.9299,-3.9299,-3.9299,-3.9299,-3.9299,-3.9299,-3.9299,-3.9299,-3.9299,-3.9299,-3.9299,-3.9299,-3.9299,-3.9299,-3.9299,-3.9299,-3.9299,-3.9299,-3.9299,-3.9299,-3.9299,-3.9299,-2.1584,-2.4175,-2.5778,-2.3333,-2.3625,-2.4355,-2.3771,0.0,0.0,0.0,0.0,0.0,0.0,0.0,0.0,0.0,0.0,0.0,0.0,0.0,0.0,0.0,0.0,0.0,0.0,0.0,0.0,0.0,0.0,0.0,0.0,0.0,0.0,-4.8349,-4.8349,-4.8349,-4.8349,-4.8961,-4.9276,-4.9276,-4.8647,-4.8282,-4.8166,-4.8166,-4.8117,0.0,0.0,-4.8001,-4.8001,-4.8001,-4.8001,-4.7934,-4.7305,-4.7073,-4.6974,-4.6228,-4.5566,-4.4903,-4.4075,-4.3681,-4.3598,-4.3598,-4.3598,-4.3598,-4.3598,-4.3598,-4.3598,-4.3598,-4.3598,-4.3598,-4.3598,-4.3598,-4.3598,-4.3598,-4.3598,-4.3598,-4.3598,-4.3598,-4.3151,-4.1707,-4.1409,-4.0961,-3.9547,-3.9299,-3.9299,-3.9299,-3.9299,-3.9299,-3.9299,-3.9299,-3.9299,-3.9299,-3.9299,-3.9299,-3.9299,-3.9299,-3.9299,-3.9299,-3.9299,-3.9299,-3.9299,-3.9299,-3.9299,-3.9299,-3.9299,-3.9299,-3.9299,-3.9299,-3.9299,-3.9299,-3.9299,-3.9299,-2.0287,-2.2475,-2.4337,-2.4175,-2.6069,-2.7883,-2.7575,0.0,0.0,0.0,0.0,0.0,0.0,0.0,0.0,0.0,0.0,0.0,0.0,0.0,0.0,0.0,0.0,0.0,0.0,0.0,0.0,0.0,0.0,0.0,0.0,0.0,0.0,0.0,-4.8001,-4.8001,-4.8001,-4.8349,-4.8514,-4.8514,-4.8166,-4.8001,-4.8001,-4.8001,-4.8001,-4.8001,0.0,-4.8001,-4.7968,-4.757,-4.7404,-4.7338,-4.6593,-4.6295,-4.6212,-4.5467,-4.4738,-4.4075,-4.3714,-4.3598,-4.3598,-4.3598,-4.3598,-4.3598,-4.3598,-4.3598,-4.3598,-4.3598,-4.3598,-4.3598,-4.3598,-4.3598,-4.3598,-4.3598,-4.3598,-4.3598,-4.3598,-4.3284,-4.2688,-4.1624,-4.111,-4.0514,-3.9481,-3.9299,-3.9299,-3.9299,-3.9299,-3.9299,-3.9299,-3.9299,-3.9299,-3.9299,-3.9299,-3.9299,-3.9299,-3.9299,-3.9299,-3.9299,-3.9299,-3.9299,-3.9299,-3.9299,-3.9299,-3.9299,-3.9299,-3.9299,-3.9299,-3.9299,-3.9299,-3.9299,-3.9299,-3.9299,-1.9558,-2.1162,-2.2945,-2.5082,0.0,-2.968,-3.0707,0.0,0.0,0.0,0.0,0.0,0.0,0.0,0.0,0.0,0.0,0.0,0.0,0.0,0.0,0.0,0.0,0.0,0.0,0.0,0.0,0.0,0.0,0.0,0.0,0.0,0.0,0.0,-4.8001,-4.8001,-4.8001,-4.8001,-4.8001,-4.8001,-4.8001,-4.8001,-4.8001,-4.8001,-4.7918,-4.7736,-4.7736,-4.7636,-4.7438,-4.6874,-4.6643,-4.656,-4.5814,-4.5433,-4.5218,-4.4638,-4.4092,-4.3598,-4.3598,-4.3598,-4.3598,-4.3598,-4.3598,-4.3598,-4.3598,-4.3598,-4.3598,-4.3598,-4.3598,-4.3598,-4.3598,-4.3598,-4.3598,-4.3598,-4.3598,-4.3549,-4.3367,-4.2886,-4.2224,-4.1342,-4.0746,-4.0177,-3.9431,-3.9299,-3.9299,-3.9299,-3.9299,-3.9299,-3.9299,-3.9299,-3.9299,-3.9299,-3.9299,-3.9299,-3.9299,-3.9299,-3.9299,-3.9299,-3.9299,-3.9299,-3.9299,-3.9299,-3.9299,-3.9299,-3.9299,-3.9299,-3.9299,-3.9299,-3.9299,-3.9299,-3.9299,-3.9299,-2.126,-2.2329,-2.2996,-2.5065,-2.5276,0.0,-3.0147,-2.9468,0.0,0.0,0.0,0.0,0.0,0.0,0.0,0.0,0.0,0.0,0.0,0.0,0.0,0.0,0.0,0.0,0.0,0.0,0.0,0.0,0.0,0.0,0.0,0.0,0.0,0.0,0.0,-4.8001,-4.8001,-4.8001,-4.8001,-4.8001,-4.8001,-4.8001,-4.8001,-4.8001,-4.7636,-4.6974,-4.6974,-4.6576,-4.5947,-4.5897,-4.5864,-4.5798,-4.5052,-4.4357,-4.3747,-4.3698,-4.3648,-4.3598,-4.3598,-4.3598,-4.3598,-4.3598,-4.3598,-4.3598,-4.3598,-4.3598,-4.3598,-4.3598,-4.3598,-4.3598,-4.3598,-4.3598,-4.3598,-4.3598,-4.3598,-4.34,-4.2721,-4.2522,-4.2104,-4.0729,-4.0442,-4.0177,-3.9431,-3.9299,-3.9299,-3.9299,-3.9299,-3.9299,-3.9299,-3.9299,-3.9299,-3.9299,-3.9299,-3.9299,-3.9299,-3.9299,-3.9299,-3.9299,-3.9299,-3.9299,-3.9299,-3.9299,-3.9299,-3.9299,-3.9299,-3.9299,-3.9299,-3.9299,-3.9299,-3.9299,-3.9299,-3.9299,-1.9917,-2.1903,-2.3799,-2.5884,-2.6915,0.0,0.0,0.0,0.0,0.0,0.0,0.0,0.0,0.0,0.0,0.0,0.0,0.0,0.0,0.0,0.0,0.0,0.0,0.0,0.0,0.0,0.0,0.0,0.0,0.0,0.0,0.0,0.0,0.0,0.0,-4.6626,-4.6626,-4.6626,-4.6626,-4.6626,-4.7106,-4.7322,-4.7305,-4.6841,-4.6477,-4.6212,-4.6212,-4.6046,-4.5748,-4.5301,-4.5102,-4.5036,-4.4307,-4.386,-4.3598,-4.3598,-4.3598,-4.3598,-4.3598,-4.3598,-4.3598,-4.3598,-4.3598,-4.3598,-4.3598,-4.3598,-4.3598,-4.3598,-4.3598,-4.3598,-4.3598,-4.3598,-4.3598,-4.3598,-4.3598,-4.34,-4.2655,-4.2125,-4.1541,-4.0564,-4.0028,-3.963,-3.9348,-3.9299,-3.9299,-3.9299,-3.9299,-3.9299,-3.9299,-3.9299,-3.9299,-3.9299,-3.9299,-3.9299,-3.9299,-3.9299,-3.9299,-3.9299,-3.9299,-3.9299,-3.9299,-3.9299,-3.9299,-3.9299,-3.9299,-3.9299,-3.9299,-3.9299,-3.9299,-3.9299,-3.9299,-3.9299,-1.9691,-2.1825,-2.4166,0.0,0.0,0.0,0.0,0.0,0.0,0.0,0.0,0.0,0.0,0.0,0.0,0.0,0.0,0.0,0.0,0.0,0.0,0.0,0.0,0.0,0.0,0.0,0.0,0.0,0.0,0.0,0.0,0.0,0.0,0.0,0.0,0.0,-4.5798,-4.5798,-4.5798,-4.5798,-4.6079,-4.6328,-4.6527,-4.603,-4.5665,-4.5433,-4.5433,-4.5317,-4.5069,-4.4556,-4.4357,-4.4307,-4.378,-4.3598,-4.3598,-4.3598,-4.3598,-4.3598,-4.3598,-4.3598,-4.3598,-4.3598,-4.3598,-4.3598,-4.3598,-4.3598,-4.3598,-4.3598,-4.3598,-4.3598,-4.3598,-4.3598,-4.3598,-4.3598,-4.3416,-4.3035,-4.2307,-4.1607,-4.0878,-4.0194,-3.9647,-3.9299,-3.9299,-3.9299,-3.9299,-3.9299,-3.9299,-3.9299,-3.9299,-3.9299,-3.9299,-3.9299,-3.9299,-3.9299,-3.9299,-3.9299,-3.9299,-3.9299,-3.9299,-3.9299,-3.9299,-3.9299,-3.9299,-3.9299,-3.9299,-3.9299,-3.9299,-3.9299,-3.9299,-3.9299,-3.9299,-3.9299,-2.1195,-2.2448,-2.3916,0.0,0.0,0.0,0.0,0.0,0.0,0.0,0.0,0.0,0.0,0.0,0.0,0.0,0.0,0.0,0.0,0.0,0.0,0.0,0.0,0.0,0.0,0.0,0.0,0.0,0.0,0.0,0.0,0.0,0.0,0.0,0.0,0.0,-4.5765,-4.5765,-4.5765,-4.5765,-4.5036,-4.5069,-4.5781,-4.5765,-4.5367,-4.4702,-4.4702,-4.4274,-4.3598,-4.3598,-4.3598,-4.3598,-4.3598,-4.3598,-4.3598,-4.3598,-4.3598,-4.3598,-4.3598,-4.3598,-4.3598,-4.3598,-4.3598,-4.3598,-4.3598,-4.3598,-4.3598,-4.3582,-4.3582,-4.3582,-4.3582,-4.3582,-4.3582,-4.3582,-4.3019,-4.2291,-4.1546,-4.0862,-4.0194,-3.9448,-3.9299,-3.9299,-3.9299,-3.9299,-3.9299,-3.9299,-3.9299,-3.9299,-3.9299,-3.9299,-3.9299,-3.9299,-3.9299,-3.9299,-3.9299,-3.9299,-3.9299,-3.9299,-3.9299,-3.9299,-3.9299,-3.9299,-3.9299,-3.9299,-3.9299,-3.9299,-3.9299,-3.9299,-3.9299,-3.9299,-3.9299,-3.9299,-2.0262,-2.3242,0.0,0.0,0.0,0.0,0.0,0.0,0.0,0.0,0.0,0.0,0.0,0.0,0.0,0.0,0.0,0.0,0.0,0.0,0.0,0.0,0.0,0.0,0.0,0.0,0.0,0.0,0.0,0.0,0.0,0.0,0.0,0.0,0.0,0.0,-4.4244,-4.4244,-4.4244,-4.4257,-4.4042,-4.4307,-4.5003,-4.4489,-4.4111,-4.3943,-4.3943,-4.378,-4.3598,-4.3598,-4.3598,-4.3598,-4.3598,-4.3598,-4.3598,-4.3598,-4.3598,-4.3598,-4.3598,-4.3598,-4.3598,-4.3598,-4.3598,-4.3598,-4.3598,-4.3598,-4.3482,-4.2969,-4.282,-4.2704,-4.2175,-4.2042,-4.2175,-4.2688,-4.2655,-4.2187,-4.0961,-4.0558,-4.0194,-3.9448,-3.9299,-3.9299,-3.9299,-3.9299,-3.9299,-3.9299,-3.9299,-3.9299,-3.9299,-3.9299,-3.9299,-3.9299,-3.9299,-3.9299,-3.9299,-3.9299,-3.9299,-3.9299,-3.9299,-3.9299,-3.9299,-3.9299,-3.9299,-3.9299,-3.9299,-3.9299,-3.9299,-3.9299,-3.9299,-3.9299,-3.9299,-3.9299,-2.1628,0.0,0.0,0.0,0.0,0.0,0.0,0.0,0.0,0.0,0.0,0.0,0.0,0.0,0.0,0.0,0.0,0.0,0.0,0.0,0.0,0.0,0.0,0.0,0.0,0.0,0.0,0.0,0.0,0.0,0.0,0.0,0.0,0.0,0.0,0.0,-4.3598,-4.3598,-4.3598,-4.3598,-4.3598,-4.3813,-4.4257,-4.378,-4.3598,-4.3598,-4.3598,-4.3598,-4.3598,-4.3598,-4.3598,-4.3598,-4.3598,-4.3598,-4.3598,-4.3598,-4.3598,-4.3598,-4.3598,-4.3598,-4.3598,-4.3598,-4.3598,-4.3549,-4.3251,-4.3151,-4.3002,-4.2258,-4.2042,-4.1943,-4.1524,-4.1409,-4.1496,-4.1972,-4.1872,-4.1425,-4.0591,-4.0177,-3.9829,-3.9381,-3.9299,-3.9299,-3.9299,-3.9299,-3.9299,-3.9299,-3.9299,-3.9299,-3.9299,-3.9299,-3.9299,-3.9299,-3.9299,-3.9299,-3.9299,-3.9299,-3.9299,-3.9299,-3.9299,-3.9299,-3.9299,-3.9299,-3.9299,-3.9299,-3.9299,-3.9299,-3.9299,-3.9299,-3.9299,-3.9299,-3.9299,-3.9299,0.0,0.0,0.0,0.0,0.0,0.0,0.0,0.0,0.0,0.0,0.0,0.0,0.0,0.0,0.0,0.0,0.0,0.0,0.0,0.0,0.0,0.0,0.0,0.0,0.0,0.0,0.0,0.0,0.0,0.0,0.0,0.0,0.0,0.0,0.0,0.0,-4.3598,-4.3598,-4.3598,0.0,-4.3598,-4.3598,-4.3598,-4.3598,-4.3598,-4.3598,-4.3598,-4.3598,-4.3598,-4.3598,-4.3598,-4.3598,-4.3598,-4.3598,-4.3598,-4.3598,-4.3598,-4.3598,-4.3598,-4.3598,-4.3582,-4.3515,-4.3499,-4.335,-4.2605,-4.239,-4.2241,-4.1496,-4.1326,-4.1309,-4.1243,-4.1226,-4.1226,-4.1226,-4.0779,-4.0393,-4.0326,-3.9779,-3.9299,-3.9299,-3.9299,-3.9299,-3.9299,-3.9299,-3.9299,-3.9299,-3.9299,-3.9299,-3.9299,-3.9299,-3.9299,-3.9299,-3.9299,-3.9299,-3.9299,-3.9299,-3.9299,-3.9299,-3.9299,-3.9299,-3.9299,-3.9299,-3.9299,-3.9299,-3.9299,-3.9299,-3.9299,-3.9299,-3.9299,-3.9299,-3.9299,-3.9299,0.0,0.0,0.0,0.0,0.0,0.0,0.0,0.0,0.0,0.0,0.0,0.0,0.0,0.0,0.0,0.0,0.0,0.0,0.0,0.0,0.0,0.0,0.0,0.0,0.0,0.0,0.0,0.0,0.0,0.0,0.0,0.0,0.0,0.0,0.0,-4.3598,-4.3598,-4.3598,-4.3598,0.0,-4.3598,-4.3598,-4.3598,-4.3598,-4.3598,-4.3598,-4.3598,-4.3598,-4.3598,-4.3598,-4.3598,-4.3598,-4.3598,-4.3598,-4.3598,-4.3598,-4.3598,-4.3598,-4.3598,-4.3598,-4.3499,-4.292,-4.2738,-4.2589,-4.1844,-4.1657,-4.1508,-4.0796,-4.0641,-4.0464,-3.9912,-3.9763,-3.9763,-3.9763,-4.0094,-4.0243,-3.9663,-3.9415,-3.9299,-3.9299,-3.9299,-3.9299,-3.9299,-3.9299,-3.9299,-3.9299,-3.9299,-3.9299,-3.9299,-3.9299,-3.9299,-3.9299,-3.9299,-3.9299,-3.9299,-3.9299,-3.9299,-3.9299,-3.9299,-3.9299,-3.9299,-3.9299,-3.9299,-3.9299,-3.9299,-3.9299,-3.9299,-3.9299,-3.9299,-3.9299,-3.9299,-3.9299,0.0,0.0,0.0,0.0,0.0,0.0,0.0,0.0,0.0,0.0,0.0,0.0,0.0,0.0,0.0,0.0,0.0,0.0,0.0,0.0,0.0,0.0,0.0,0.0,0.0,0.0,0.0,0.0,0.0,0.0,0.0,0.0,0.0,0.0,-4.2539,-4.2539,-4.2539,-4.2539,-4.2539,-4.2539,-4.2539,-4.2539,-4.2555,-4.3267,-4.3598,-4.3598,-4.3598,-4.3598,-4.3598,-4.3598,-4.3598,-4.3598,-4.3598,-4.3367,-4.3069,-4.3069,-4.2837,-4.2539,-4.2539,-4.2539,-4.2473,-4.2092,-4.196,-4.1827,-4.1143,-4.0912,-4.0763,-4.0078,-3.9879,-3.9779,-3.9398,-3.9299,-3.9299,-3.9299,-3.9597,-3.9779,-3.9381,-3.9299,-3.9299,-3.9299,-3.9299,-3.9299,-3.9299,-3.9299,-3.9299,-3.9299,-3.9299,-3.9299,-3.9299,-3.9299,-3.9299,-3.9299,-3.9299,-3.9299,-3.9299,-3.9299,-3.9299,-3.9299,-3.9299,-3.9299,-3.9299,-3.9299,-3.9299,-3.9299,-3.9299,-3.9299,-3.9299,-3.9299,-3.9299,-3.9299,-3.9299,-3.9299,0.0,0.0,0.0,0.0,0.0,0.0,0.0,0.0,0.0,0.0,0.0,0.0,0.0,0.0,0.0,0.0,0.0,0.0,0.0,0.0,0.0,0.0,0.0,0.0,0.0,0.0,0.0,0.0,0.0,0.0,0.0,0.0,-4.1409,-4.1409,-4.1409,-4.1409,-4.1409,-4.1409,-4.1409,-4.1409,-4.1409,-4.1409,-4.143,-4.2655,-4.3218,-4.3218,-4.3218,-4.3218,-4.3218,-4.3218,-4.3218,-4.3218,-4.3218,-4.2837,-4.2307,-4.2307,-4.191,-4.1409,-4.1409,-4.1409,-4.1364,-4.1276,-4.1243,-4.111,-4.0426,-4.021,-4.0094,-3.9481,-3.9299,-3.9299,-3.9299,-3.9299,-3.9299,-3.9299,-3.9299,-3.9299,-3.9299,-3.9299,-3.9299,-3.9299,-3.9299,-3.9299,-3.9299,-3.9299,-3.9299,-3.9299,-3.9299,-3.9299,-3.9299,-3.9299,-3.9299,-3.9299,-3.9299,-3.9299,-3.9299,-3.9299,-3.9299,-3.9299,-3.9299,-3.9299,-3.9299,-3.9299,-3.9299,-3.9299,-3.9299,-3.9299,-3.9299,-3.9299,-3.9299,-3.9299,-3.9299,-3.9299,0.0,0.0,0.0,0.0,0.0,0.0,0.0,0.0,0.0,0.0,0.0,0.0,0.0,0.0,0.0,0.0,0.0,0.0,0.0,0.0,0.0,0.0,0.0,0.0,0.0,0.0,0.0,0.0,0.0,0.0,0.0,-4.1409,-4.1409,-4.1409,-4.1409,-4.1409,-4.1409,-4.1409,-4.1409,-4.1409,-4.1409,-4.1409,-4.1425,-4.1595,-4.1678,-4.1678,-4.1678,-4.1678,-4.1678,-4.1678,-4.1678,-4.1678,-4.1678,-4.1612,-4.1558,-4.1558,-4.1491,-4.1409,-4.1409,-4.1409,-4.1309,-4.0713,-4.0542,-4.0409,-3.968,-3.9448,-3.9431,-3.9332,-3.9299,-3.9299,-3.9299,-3.9299,-3.9299,-3.9299,-3.9299,-3.9299,-3.9299,-3.9299,-3.9299,-3.9299,-3.9299,-3.9299,-3.9299,-3.9299,-3.9299,-3.9299,-3.9299,-3.9299,-3.9299,-3.9299,-3.9299,-3.9299,-3.9299,-3.9299,-3.9299,-3.9299,-3.9299,-3.9299,-3.9299,-3.9299,-3.9299,-3.9299,-3.9299,-3.9299,-3.9299,-3.9299,-3.9299,-3.9299,-3.9299,-3.9299,-3.9299,-3.9299,0.0,0.0,0.0,0.0,0.0,0.0,0.0,0.0,0.0,0.0,0.0,0.0,0.0,0.0,0.0,0.0,0.0,0.0,0.0,0.0,0.0,0.0,0.0,0.0,0.0,0.0,0.0,0.0,0.0,0.0,-4.0216,-4.0216,-4.0216,-4.0216,-4.0216,-4.0216,-4.0216,-4.0216,-4.0216,-4.0216,-4.0216,-4.0216,-4.0216,-4.0216,-4.0647,-4.1409,-4.1409,-4.1409,-4.1409,-4.1409,-4.1409,-4.1409,-4.1409,-4.1177,-4.0829,-4.0829,-4.058,-4.0216,-4.0216,-4.0216,-4.0166,-3.9879,-3.9779,-3.973,-3.9398,-3.9299,-3.9299,-3.9299,-3.9299,-3.9299,-3.9299,-3.9299,-3.9299,-3.9299,-3.9299,-3.9299,-3.9299,-3.9299,-3.9299,-3.9299,-3.9299,-3.9299,-3.9299,-3.9299,-3.9299,-3.9299,-3.9299,-3.9299,-3.9299,-3.9299,-3.9299,-3.9299,-3.9299,-3.9299,-3.9299,-3.9299,-3.9299,-3.9299,-3.9299,-3.9299,-3.9299,-3.9299,-3.9299,-3.9299,-3.9299,-3.9299,-3.9299,-3.9299,-3.9299,-3.9299,-3.9299,-3.9299,0.0,0.0,0.0,0.0,0.0,0.0,0.0,0.0,0.0,0.0,0.0,0.0,0.0,0.0,0.0,0.0,0.0,0.0,0.0,0.0,0.0,0.0,0.0,0.0,0.0,0.0,0.0,0.0,0.0,0.0,-3.9299,-3.9299,-3.9299,-3.9299,-3.9299,-3.9299,-3.9299,-3.9299,-3.9299,-3.9299,-3.9299,-3.9299,-3.9299,-3.9299,-3.9879,-4.0878,-4.0878,-4.0878,-4.0878,-4.0878,-4.0878,-4.0878,-4.0878,-4.0547,-4.0127,-4.0127,-3.9779,-3.9299,-3.9299,-3.9299,-3.9299,-3.9299,-3.9299,-3.9299,-3.9299,-3.9299,-3.9299,-3.9299,-3.9299,-3.9299,-3.9299,-3.9299,-3.9299,-3.9299,-3.9299,-3.9299,-3.9299,-3.9299,-3.9299,-3.9299,-3.9299,-3.9299,-3.9299,-3.9299,-3.9299,-3.9299,-3.9299,-3.9299,-3.9299,-3.9299,-3.9299,-3.9299,-3.9299,-3.9299,-3.9299,-3.9299,-3.9299,-3.9299,-3.9299,-3.9299,-3.9299,-3.9299,-3.9299,-3.9299,-3.9299,-3.9299,-3.9299,-3.9299,-3.9299,-3.9299,-3.9299,-3.9299,0.0,0.0,0.0,0.0,0.0,0.0,0.0,0.0,0.0,0.0,0.0,0.0,0.0,0.0,0.0,0.0,0.0,0.0,0.0,0.0,0.0,0.0,0.0,0.0,0.0,0.0,0.0,0.0,0.0,0.0,-3.9299,-3.9299,-3.9299,-3.9299,-3.9299,-3.9299,-3.9299,-3.9299,-3.9299,-3.9299,-3.9299,-3.9299,-3.9299,-3.9299,-3.9348,-3.9415,-3.9415,-3.9415,-3.9415,-3.9415,-3.9415,-3.9415,-3.9415,-3.9398,-3.9365,-3.9365,-3.9332,-3.9299,-3.9299,-3.9299,-3.9299,-3.9299,-3.9299,-3.9299,-3.9299,-3.9299,-3.9299,-3.9299,-3.9299,-3.9299,-3.9299,-3.9299,-3.9299,-3.9299,-3.9299,-3.9299,-3.9299,-3.9299,-3.9299,-3.9299,-3.9299,-3.9299,-3.9299,-3.9299,-3.9299,-3.9299,-3.9299,-3.9299,-3.9299,-3.9299,-3.9299,-3.9299,-3.9299,-3.9299,-3.9299,-3.9299,-3.9299,-3.9299,-3.9299,-3.9299,-3.9299,-3.9299,-3.9299,-3.9299,-3.9299,-3.9299,-3.9299,-3.9299,-3.9299,-3.9299,-3.9299,-3.9299,0.0,0.0,0.0,0.0,0.0,0.0,0.0,0.0,0.0,0.0,0.0,0.0,0.0,0.0,0.0,0.0,0.0,0.0,0.0,0.0,0.0,0.0,0.0,0.0,0.0,0.0,0.0,0.0,0.0,0.0,-3.9299,-3.9299,-3.9299,-3.9299,-3.9299,-3.9299,-3.9299,-3.9299,-3.9299,-3.9299,-3.9299,-3.9299,-3.9299,-3.9299,-3.9299,-3.9299,-3.9299,-3.9299,-3.9299,-3.9299,-3.9299,-3.9299,-3.9299,-3.9299,-3.9299,-3.9299,-3.9299,-3.9299,-3.9299,-3.9299,-3.9299,-3.9299,-3.9299,-3.9299,-3.9299,-3.9299,-3.9299,-3.9299,-3.9299,-3.9299,-3.9299,-3.9299,-3.9299,-3.9299,-3.9299,-3.9299,-3.9299,-3.9299,-3.9299,-3.9299,-3.9299,-3.9299,-3.9299,-3.9299,-3.9299,-3.9299,-3.9299,-3.9299,-3.9299,-3.9299,-3.9299,-3.9299,-3.9299,-3.9299,-3.9299,-3.9299,-3.9299,-3.9299,-3.9299,-3.9299,-3.9299,-3.9299,-3.9299,-3.9299,-3.9299,-3.9299,-3.9299,-3.9299,-3.9299,-3.9299,-3.9299,-3.9299,0.0,0.0,0.0,0.0,0.0,0.0,0.0,0.0,0.0,0.0,0.0,0.0,0.0,0.0,0.0,0.0,0.0,0.0,0.0,0.0,0.0,0.0,0.0,0.0,0.0,0.0,0.0,0.0,0.0,0.0,-3.9299,-3.9299,-3.9299,-3.9299,-3.9299,-3.9299,-3.9299,-3.9299,-3.9299,-3.9299,-3.9299,-3.9299,-3.9299,-3.9299,-3.9299,-3.9299,-3.9299,-3.9299,-3.9299,-3.9299,-3.9299,-3.9299,-3.9299,-3.9299,-3.9299,-3.9299,-3.9299,-3.9299,-3.9299,-3.9299,-3.9299,-3.9299,-3.9299,-3.9299,-3.9299,-3.9299,-3.9299,-3.9299,-3.9299,-3.9299,-3.9299,-3.9299,-3.9299,-3.9299,-3.9299,-3.9299,-3.9299,-3.9299,-3.9299,-3.9299,-3.9299,-3.9299,-3.9299,-3.9299,-3.9299,-3.9299,-3.9299,-3.9299,-3.9299,-3.9299,-3.9299,-3.9299,-3.9299,-3.9299,-3.9299,-3.9299,-3.9299,-3.9299,-3.9299,-3.9299,-3.9299,-3.9299,-3.9299,-3.9299,-3.9299,-3.9299,-3.9299,-3.9299,-3.9299,-3.9299,-3.9299,-3.9299,0.0,0.0,0.0,0.0,0.0,0.0,0.0,0.0,0.0,0.0,0.0,0.0,0.0,0.0,0.0,0.0,0.0,0.0,0.0,0.0,0.0,0.0,0.0,0.0,0.0,0.0,0.0,0.0,0.0,-3.9299,-3.9299,-3.9299,-3.9299,-3.9299,-3.9299,-3.9299,-3.9299,-3.9299,-3.9299,-3.9299,-3.9299,-3.9299,-3.9299,-3.9299,-3.9299,-3.9299,-3.9299,-3.9299,-3.9299,-3.9299,-3.9299,-3.9299,-3.9299,-3.9299,-3.9299,-3.9299,-3.9299,-3.9299,-3.9299,-3.9299,-3.9299,-3.9299,-3.9299,-3.9299,-3.9299,-3.9299,-3.9299,-3.9299,-3.9299,-3.9299,-3.9299,-3.9299,-3.9299,-3.9299,-3.9299,-3.9299,-3.9299,-3.9299,-3.9299,-3.9299,-3.9299,-3.9299,-3.9299,-3.9299,-3.9299,-3.9299,-3.9299,-3.9299,-3.9299,-3.9299,-3.9299,-3.9299,-3.9299,-3.9299,-3.9299,-3.9299,-3.9299,-3.9299,-3.9299,-3.9299,-3.9299,-3.9299,-3.9299,-3.9299,-3.9299,-3.9282,-3.9265,-3.9282,-3.9299,-3.9299,-3.9299,-3.9299,-1.6415,0.0,0.0,0.0,0.0,0.0,0.0,0.0,0.0,0.0,0.0,0.0,0.0,0.0,0.0,0.0,0.0,0.0,0.0,0.0,0.0,0.0,0.0,0.0,0.0,0.0,0.0,0.0,-3.9299,-3.9299,-3.9299,-3.9299,-3.9299,-3.9299,-3.9299,-3.9299,-3.9299,-3.9299,-3.9299,-3.9299,-3.9299,-3.9299,-3.9299,-3.9299,-3.9299,-3.9299,-3.9299,-3.9299,-3.9299,-3.9299,-3.9299,-3.9299,-3.9299,-3.9299,-3.9299,-3.9299,-3.9299,-3.9299,-3.9299,-3.9299,-3.9299,-3.9299,-3.9299,-3.9299,-3.9299,-3.9299,-3.9299,-3.9299,-3.9299,-3.9299,-3.9299,-3.9299,-3.9299,-3.9299,-3.9299,-3.9299,-3.9299,-3.9299,-3.9299,-3.9299,-3.9299,-3.9299,-3.9299,-3.9299,-3.9299,-3.9299,-3.9299,-3.9299,-3.9299,-3.9299,-3.9299,-3.9299,-3.9299,-3.9299,-3.9299,-3.9299,-3.9299,-3.9299,-3.9299,-3.9299,-3.9299,-3.9299,-3.9299,-3.9299,-3.9299,-3.905,-3.851,-3.905,-3.9299,-3.9299,-3.9299,-3.9299,0.0,0.0,0.0,0.0,0.0,0.0,0.0,0.0,0.0,0.0,0.0,0.0,0.0,0.0,0.0,0.0,0.0,0.0,0.0,0.0,0.0,0.0,0.0,0.0,0.0,0.0,0.0,0.0,-3.8377,-3.8536,-3.8808,-3.8825,-3.8974,-3.9282,-3.9299,-3.9299,-3.9299,-3.9299,-3.9299,-3.9299,-3.9299,-3.9299,-3.9299,-3.9299,-3.9299,-3.9299,-3.9299,-3.9299,-3.9299,-3.9299,-3.9299,-3.9299,-3.9299,-3.9299,-3.9299,-3.9299,-3.9299,-3.9299,-3.9299,-3.9299,-3.9299,-3.9299,-3.9299,-3.9299,-3.9299,-3.9299,-3.9299,-3.9299,-3.9299,-3.9299,-3.9299,-3.9299,-3.9299,-3.9299,-3.9299,-3.9299,-3.9299,-3.9299,-3.9299,-3.9299,-3.9299,-3.9299,-3.9299,-3.9299,-3.9299,-3.9299,-3.9299,-3.9299,-3.9299,-3.9299,-3.9299,-3.9299,-3.9299,-3.9299,-3.9299,-3.9299,-3.9299,-3.9299,-3.9299,-3.9299,-3.9299,-3.9299,-3.9166,-3.8841,-3.8825,-3.8477,-3.7748,-3.8477,-3.8676,-3.8377,-3.8692,-3.8685,-1.9742,-1.9974,0.0,0.0,0.0,0.0,0.0,-2.3467,0.0,0.0,0.0,0.0,0.0,0.0,0.0,0.0,0.0,0.0,0.0,0.0,0.0,0.0,0.0,0.0,0.0,0.0,-3.6936,-3.7102,-3.7102,-3.74,-3.802,-3.8096,-3.8377,-3.9033,-3.9149,-3.9183,-3.9183,-3.9265,-3.9299,-3.9299,-3.9299,-3.9299,-3.9299,-3.9299,-3.9299,-3.9299,-3.9299,-3.9299,-3.9299,-3.9299,-3.9299,-3.9299,-3.9299,-3.9299,-3.9299,-3.9299,-3.9299,-3.9299,-3.9299,-3.9299,-3.9299,-3.9299,-3.9299,-3.9299,-3.9299,-3.9299,-3.9299,-3.9299,-3.9299,-3.9299,-3.9299,-3.9299,-3.9299,-3.9299,-3.9299,-3.9299,-3.9299,-3.9299,-3.9299,-3.9299,-3.9299,-3.9299,-3.9299,-3.9299,-3.9299,-3.9299,-3.9299,-3.9299,-3.9299,-3.9299,-3.9299,-3.9299,-3.9299,-3.9299,-3.9299,-3.9299,-3.9299,-3.9299,-3.9299,-3.9265,-3.9183,-3.9183,-3.8825,-3.8096,-3.8013,-3.7649,-3.6986,-3.7731,-3.7748,-3.7119,-3.7755,-3.7748,-2.3006,-2.3594,-2.4284,0.0,0.0,0.0,0.0,-2.2102,0.0,0.0,0.0,0.0,0.0,0.0,0.0,0.0,0.0,0.0,0.0,0.0,0.0,0.0,0.0,0.0,0.0,0.0,-3.5827,-3.7019,-3.7102,-3.7168,-3.7317,-3.7317,-3.7384,-3.7516,-3.8112,-3.8411,-3.8411,-3.9017,-3.9299,-3.9299,-3.9299,-3.9299,-3.9299,-3.9299,-3.9299,-3.9299,-3.9299,-3.9299,-3.9299,-3.9299,-3.9299,-3.9299,-3.9299,-3.9299,-3.9299,-3.9299,-3.9299,-3.9299,-3.9299,-3.9299,-3.9299,-3.9299,-3.9299,-3.9299,-3.9299,-3.9299,-3.9299,-3.9299,-3.9299,-3.9299,-3.9299,-3.9299,-3.9299,-3.9299,-3.9299,-3.9299,-3.9299,-3.9299,-3.9299,-3.9299,-3.9299,-3.9299,-3.9299,-3.9299,-3.9299,-3.9299,-3.9299,-3.9299,-3.9299,-3.9299,-3.9299,-3.9299,-3.9299,-3.9299,-3.9299,-3.9299,-3.9299,-3.9299,-3.9299,-3.9033,-3.8444,-3.8411,-3.8079,-3.7334,-3.6738,-3.6357,-3.6224,-3.6953,-3.7251,-3.7102,-3.7251,-3.7251,0.0,-2.5212,-2.5604,-2.4849,0.0,0.0,0.0,0.0,0.0,0.0,0.0,0.0,0.0,0.0,0.0,0.0,0.0,0.0,0.0,0.0,0.0,0.0,0.0,0.0,0.0,0.0,-3.4104,-3.4849,-3.5247,-3.5611,-3.5976,-3.6357,-3.6721,-3.7102,-3.7466,-3.7665,-3.7665,-3.8013,-3.8377,-3.8742,-3.8742,-3.8924,-3.9299,-3.9299,-3.9299,-3.9299,-3.9299,-3.9299,-3.9299,-3.9299,-3.9299,-3.9299,-3.9299,-3.9299,-3.9299,-3.9299,-3.9299,-3.9299,-3.9299,-3.9299,-3.9299,-3.9299,-3.9299,-3.9299,-3.9299,-3.9299,-3.9299,-3.9299,-3.9299,-3.9299,-3.9299,-3.9299,-3.9299,-3.9299,-3.9299,-3.9299,-3.9299,-3.9299,-3.9299,-3.9299,-3.9299,-3.9299,-3.9299,-3.9299,-3.9299,-3.9299,-3.9299,-3.9299,-3.9299,-3.9299,-3.9299,-3.9299,-3.9299,-3.9299,-3.9299,-3.9299,-3.9149,-3.8758,-3.8742,-3.8427,-3.7698,-3.7665,-3.7317,-3.6572,-3.5827,-3.5446,-3.5446,-3.5827,-3.6009,-3.6009,-3.639,-3.6357,0.0,0.0,0.0,0.0,0.0,-2.4847,0.0,0.0,0.0,-2.3954,0.0,0.0,0.0,0.0,0.0,0.0,0.0,0.0,0.0,0.0,0.0,0.0,0.0,0.0,0.0,0.0,-3.2055,-3.2448,-3.2779,-3.3458,-3.4618,-3.5247,-3.5909,-3.6655,-3.682,-3.6903,-3.6903,-3.7036,-3.7417,-3.7971,-3.7971,-3.8311,-3.8884,-3.9033,-3.91,-3.91,-3.9249,-3.9299,-3.9299,-3.9299,-3.9299,-3.9299,-3.9299,-3.9299,-3.9299,-3.9299,-3.9299,-3.9299,-3.9299,-3.9299,-3.9299,-3.9299,-3.9299,-3.9299,-3.9299,-3.9299,-3.9299,-3.9299,-3.9299,-3.9299,-3.9299,-3.9299,-3.9299,-3.9299,-3.9299,-3.9299,-3.9299,-3.9299,-3.9299,-3.9299,-3.9299,-3.9299,-3.9299,-3.9299,-3.9299,-3.9299,-3.9299,-3.9299,-3.9299,-3.9299,-3.9299,-3.9299,-3.9299,-3.9249,-3.91,-3.91,-3.8758,-3.8046,-3.7971,-3.7665,-3.692,-3.6754,-3.6406,-3.5794,-3.5197,-3.4899,-3.4899,-3.4899,-3.4899,-3.4916,-3.5512,-3.5462,0.0,0.0,0.0,0.0,-2.837,0.0,0.0,0.0,-2.3798,-2.1702,0.0,0.0,0.0,0.0,0.0,0.0,0.0,0.0,0.0,0.0,0.0,0.0,0.0,0.0,0.0,0.0,0.0,-3.1581,-3.0588,-3.109,-3.3773,-3.3988,-3.4386,-3.5131,-3.5777,-3.6125,-3.6125,-3.6771,-3.7152,-3.7235,-3.7235,-3.7268,-3.7367,-3.803,-3.8328,-3.8361,-3.9033,-3.9299,-3.9299,-3.9299,-3.9299,-3.9299,-3.9299,-3.9299,-3.9299,-3.9299,-3.9299,-3.9299,-3.9299,-3.9299,-3.9299,-3.9299,-3.9299,-3.9299,-3.9299,-3.9299,-3.9299,-3.9299,-3.9299,-3.9299,-3.9299,-3.9299,-3.9299,-3.9299,-3.9299,-3.9299,-3.9299,-3.9299,-3.9299,-3.9299,-3.9299,-3.9299,-3.9299,-3.9299,-3.9299,-3.9299,-3.9299,-3.9299,-3.9299,-3.9299,-3.9299,-3.9299,-3.9299,-3.905,-3.8394,-3.8328,-3.8013,-3.7284,-3.7235,-3.6903,-3.6158,-3.5495,-3.5098,-3.5032,-3.4932,-3.4899,-3.4899,-3.4899,-3.4899,-3.4899,-3.4982,-3.4982,0.0,0.0,0.0,0.0,0.0,0.0,0.0,0.0,-2.3957,0.0,0.0,0.0,0.0,0.0,0.0,0.0,0.0,0.0,0.0,0.0,0.0,0.0,0.0,0.0,0.0,0.0,0.0,0.0,0.0,-2.9069,-3.1139,-3.2448,-3.3491,-3.4237,-3.4982,-3.5363,-3.5363,-3.5678,-3.6042,-3.6456,-3.6456,-3.6688,-3.7119,-3.7433,-3.7566,-3.7582,-3.788,-3.8013,-3.8013,-3.8013,-3.8013,-3.8013,-3.8013,-3.8553,-3.9299,-3.9299,-3.9299,-3.9299,-3.9299,-3.9299,-3.9299,-3.9299,-3.9299,-3.9299,-3.9299,-3.9299,-3.9299,-3.9299,-3.9299,-3.9299,-3.9299,-3.9299,-3.9299,-3.9299,-3.9299,-3.9299,-3.9299,-3.9299,-3.9299,-3.9299,-3.9299,-3.9299,-3.9299,-3.9299,-3.9299,-3.9299,-3.9299,-3.9299,-3.9299,-3.9299,-3.9299,-3.9299,-3.8934,-3.8543,-3.8245,-3.7814,-3.7251,-3.6506,-3.6059,-3.5678,-3.5363,-3.5048,-3.4899,-3.4899,-3.4899,-3.4899,-3.4899,-3.4899,-3.4899,-3.4899,-3.4899,-3.4899,-2.9052,0.0,0.0,0.0,0.0,0.0,0.0,0.0,0.0,0.0,0.0,0.0,0.0,0.0,0.0,0.0,0.0,0.0,0.0,0.0,0.0,0.0,0.0,0.0,0.0,0.0,0.0,0.0,0.0,0.0,-2.9019,-3.0808,-3.2315,-3.3458,-3.4203,-3.47,-3.4899,-3.4899,-3.5164,-3.5694,-3.5694,-3.5976,-3.6506,-3.6721,-3.6804,-3.682,-3.7019,-3.7102,-3.7102,-3.7102,-3.7102,-3.7102,-3.7102,-3.7748,-3.8702,-3.8702,-3.895,-3.9265,-3.9083,-3.9133,-3.9299,-3.9299,-3.9299,-3.9299,-3.9299,-3.9299,-3.9299,-3.9299,-3.9299,-3.9299,-3.9299,-3.9299,-3.9299,-3.9299,-3.9299,-3.9299,-3.9299,-3.9299,-3.9299,-3.9299,-3.9299,-3.9299,-3.9299,-3.9299,-3.9299,-3.9299,-3.9299,-3.9299,-3.9299,-3.9299,-3.9232,-3.9033,-3.8526,-3.802,-3.7649,-3.7119,-3.6489,-3.5744,-3.5197,-3.4899,-3.4899,-3.4899,-3.4899,-3.4899,-3.4899,-3.4899,-3.4899,-3.4899,-3.4899,-3.4899,-3.4899,-3.4899,0.0,0.0,0.0,-2.7603,0.0,0.0,0.0,0.0,-2.5306,0.0,0.0,0.0,0.0,0.0,0.0,-2.03,0.0,0.0,0.0,0.0,0.0,0.0,0.0,0.0,0.0,0.0,0.0,0.0,0.0,0.0,-2.8194,-2.9102,-3.051,-3.2669,-3.3442,-3.417,-3.4883,-3.4899,-3.4916,-3.4932,-3.4932,-3.4949,-3.4982,-3.5711,-3.6042,-3.6075,-3.6787,-3.7102,-3.7102,-3.7102,-3.7102,-3.7102,-3.7102,-3.7135,-3.7168,-3.7168,-3.8063,-3.9199,-3.8477,-3.8692,-3.9299,-3.9299,-3.9299,-3.9299,-3.9299,-3.9299,-3.9299,-3.9299,-3.9299,-3.9299,-3.9299,-3.9299,-3.9299,-3.9299,-3.9299,-3.9299,-3.9299,-3.9299,-3.9299,-3.9299,-3.9299,-3.9299,-3.9299,-3.9299,-3.9299,-3.9299,-3.9299,-3.9299,-3.9299,-3.9299,-3.9033,-3.8328,-3.8202,-3.7632,-3.6191,-3.6059,-3.5727,-3.4982,-3.4916,-3.4899,-3.4899,-3.4899,-3.4899,-3.4899,-3.4899,-3.4899,-3.4899,-3.4899,-3.4899,-3.4899,-3.4899,-3.4899,0.0,0.0,-3.0725,-2.8388,0.0,0.0,0.0,0.0,0.0,0.0,0.0,0.0,0.0,0.0,0.0,-2.0853,0.0,0.0,0.0,0.0,0.0,0.0,0.0,0.0,0.0,0.0,0.0,0.0,0.0,0.0,0.0,-2.781,-2.9499,-3.1205,-3.2911,-3.3905,-3.417,-3.4651,-3.4899,-3.4899,-3.4899,-3.4899,-3.4916,-3.5148,-3.5263,-3.5297,-3.5528,-3.5644,-3.5644,-3.5644,-3.5644,-3.5644,-3.5644,-3.5943,-3.6439,-3.6936,-3.7417,-3.7814,-3.7566,-3.7649,-3.7831,-3.7831,-3.8162,-3.8576,-3.8576,-3.8907,-3.9299,-3.9299,-3.9299,-3.9299,-3.9299,-3.9299,-3.9299,-3.9299,-3.9299,-3.9299,-3.9299,-3.9299,-3.9299,-3.9299,-3.9299,-3.9299,-3.9299,-3.8891,-3.8576,-3.8576,-3.8576,-3.8394,-3.7914,-3.7831,-3.7748,-3.75,-3.7052,-3.6539,-3.6042,-3.5545,-3.5164,-3.4916,-3.4899,-3.4899,-3.4899,-3.4899,-3.4899,-3.4899,-3.4899,-3.4899,-3.4899,-3.4899,-3.4899,-3.4899,-3.4899,-3.4899,-3.1011,-3.1314,0.0,-2.9141,-2.8624,0.0,-2.564,0.0,0.0,0.0,0.0,0.0,0.0,0.0,0.0,-2.1734,-2.0369,0.0,0.0,0.0,0.0,0.0,0.0,0.0,0.0,0.0,-1.9283,-2.0309,0.0,0.0,0.0,0.0,-2.8274,-2.9715,-3.1885,-3.3276,-3.3789,-3.427,-3.4634,-3.4899,-3.4899,-3.4899,-3.4899,-3.4899,-3.4899,-3.4899,-3.4899,-3.4899,-3.4899,-3.4899,-3.4899,-3.4899,-3.4899,-3.5181,-3.5678,-3.6141,-3.6489,-3.6754,-3.7019,-3.7102,-3.7102,-3.7102,-3.7433,-3.7814,-3.7814,-3.8146,-3.8536,-3.8536,-3.8536,-3.8536,-3.8536,-3.8536,-3.8536,-3.8536,-3.8709,-3.8907,-3.8907,-3.9116,-3.9232,-3.8967,-3.8907,-3.8834,-3.8543,-3.8112,-3.7914,-3.8179,-3.7996,-3.7649,-3.7168,-3.7102,-3.7003,-3.6738,-3.629,-3.5893,-3.5628,-3.5164,-3.4899,-3.4899,-3.4899,-3.4899,-3.4899,-3.4899,-3.4899,-3.4899,-3.4899,-3.4899,-3.4899,-3.4899,-3.4899,-3.4899,-3.4899,-3.4899]}]]